Time,TemperatureF,DewpointF,PressureIn,WindDirection,WindDirectionDegrees,WindSpeedMPH,WindSpeedGustMPH,Humidity,HourlyPrecipIn,Conditions,Clouds,dailyrainin,SoftwareType,DateUTC
2013-04-18 00:00:00,61.2,60.3,28.53,SSE,166,0.0,3.1,97,0.04,,---,0.00,VWS V14.01,2013-04-18 04:00:00,
2013-04-18 00:01:00,61.2,60.3,28.53,SSE,166,0.0,0.0,97,0.04,,---,0.00,VWS V14.01,2013-04-18 04:01:00,
2013-04-18 00:02:00,61.2,60.3,28.53,SSE,166,0.0,2.7,97,0.04,,---,0.00,VWS V14.01,2013-04-18 04:02:00,
2013-04-18 00:03:00,61.2,60.3,28.53,SSE,166,0.0,2.7,97,0.04,,---,0.00,VWS V14.01,2013-04-18 04:03:00,
2013-04-18 00:04:00,61.2,60.3,28.53,SSE,166,2.7,4.0,97,0.04,,---,0.00,VWS V14.01,2013-04-18 04:04:00,
2013-04-18 00:05:00,61.2,60.3,28.53,ESE,119,0.0,5.4,97,0.04,,---,0.00,VWS V14.01,2013-04-18 04:05:00,
2013-04-18 00:06:00,61.2,60.3,28.53,SE,145,4.0,4.0,97,0.04,,---,0.00,VWS V14.01,2013-04-18 04:06:00,
2013-04-18 00:07:00,61.2,60.3,28.53,SE,145,0.0,4.0,97,0.04,,---,0.00,VWS V14.01,2013-04-18 04:07:00,
2013-04-18 00:08:00,61.2,60.3,28.53,SE,145,0.0,0.0,97,0.04,,---,0.00,VWS V14.01,2013-04-18 04:08:00,
2013-04-18 00:09:00,61.2,60.3,28.53,SE,145,0.0,0.0,97,0.04,,---,0.00,VWS V14.01,2013-04-18 04:09:00,
2013-04-18 00:10:00,61.2,60.3,28.53,SE,145,3.1,3.1,97,0.04,,---,0.00,VWS V14.01,2013-04-18 04:10:00,
2013-04-18 00:11:00,61.2,60.3,28.53,SE,145,2.7,4.0,97,0.04,,---,0.00,VWS V14.01,2013-04-18 04:11:00,
2013-04-18 00:12:00,61.2,60.3,28.53,SE,141,3.6,4.0,97,0.04,,---,0.00,VWS V14.01,2013-04-18 04:12:00,
2013-04-18 00:13:00,61.2,60.3,28.53,SE,141,3.1,4.5,97,0.04,,---,0.00,VWS V14.01,2013-04-18 04:13:00,
2013-04-18 00:14:00,61.2,60.3,28.53,South,170,3.6,4.5,97,0.04,,---,0.00,VWS V14.01,2013-04-18 04:14:00,
2013-04-18 00:15:00,61.2,60.3,28.53,SE,145,3.1,4.9,97,0.04,,---,0.00,VWS V14.01,2013-04-18 04:15:00,
2013-04-18 00:16:00,61.2,60.3,28.53,SE,145,3.6,3.6,97,0.04,,---,0.00,VWS V14.01,2013-04-18 04:16:00,
2013-04-18 00:17:00,61.2,60.3,28.53,SE,145,0.0,3.6,97,0.04,,---,0.00,VWS V14.01,2013-04-18 04:17:00,
2013-04-18 00:18:00,61.2,60.3,28.53,SE,145,0.0,2.7,97,0.04,,---,0.00,VWS V14.01,2013-04-18 04:18:00,
2013-04-18 00:19:00,61.2,60.3,28.53,SE,138,0.0,3.6,97,0.04,,---,0.00,VWS V14.01,2013-04-18 04:19:00,
2013-04-18 00:20:00,61.2,60.3,28.53,SE,141,0.0,0.0,97,0.04,,---,0.00,VWS V14.01,2013-04-18 04:20:00,
2013-04-18 00:21:00,61.2,60.3,28.53,SSE,149,0.0,2.7,97,0.04,,---,0.00,VWS V14.01,2013-04-18 04:21:00,
2013-04-18 00:22:00,61.0,60.1,28.53,SSE,149,0.0,0.0,97,0.04,,---,0.00,VWS V14.01,2013-04-18 04:22:00,
2013-04-18 00:23:00,61.0,60.1,28.53,SSE,149,0.0,0.0,97,0.04,,---,0.00,VWS V14.01,2013-04-18 04:23:00,
2013-04-18 00:24:00,61.0,60.1,28.53,SSE,149,0.0,0.0,97,0.04,,---,0.00,VWS V14.01,2013-04-18 04:24:00,
2013-04-18 00:25:00,61.0,60.1,28.53,SSE,149,0.0,0.0,97,0.04,,---,0.00,VWS V14.01,2013-04-18 04:25:00,
2013-04-18 00:26:00,61.0,60.1,28.53,SSE,149,0.0,0.0,97,0.04,,---,0.00,VWS V14.01,2013-04-18 04:26:00,
2013-04-18 00:27:00,61.0,60.1,28.50,SSE,149,0.0,0.0,97,0.04,,---,0.00,VWS V14.01,2013-04-18 04:27:00,
2013-04-18 00:28:00,61.0,60.1,28.50,SSE,149,0.0,0.0,97,0.04,,---,0.00,VWS V14.01,2013-04-18 04:28:00,
2013-04-18 00:29:00,61.0,60.1,28.50,ENE,60,0.0,3.6,97,0.04,,---,0.00,VWS V14.01,2013-04-18 04:29:00,
2013-04-18 00:30:00,61.0,60.1,28.50,ESE,114,0.0,3.1,97,0.04,,---,0.00,VWS V14.01,2013-04-18 04:30:00,
2013-04-18 00:31:00,61.0,60.1,28.50,ESE,121,3.1,5.4,97,0.04,,---,0.00,VWS V14.01,2013-04-18 04:31:00,
2013-04-18 00:32:00,61.0,60.1,28.50,ESE,107,0.0,5.8,97,0.04,,---,0.00,VWS V14.01,2013-04-18 04:32:00,
2013-04-18 00:33:00,61.0,60.1,28.50,ESE,107,0.0,0.0,97,0.04,,---,0.00,VWS V14.01,2013-04-18 04:33:00,
2013-04-18 00:34:00,61.0,60.1,28.50,ESE,107,0.0,0.0,97,0.04,,---,0.00,VWS V14.01,2013-04-18 04:34:00,
2013-04-18 00:35:00,61.0,60.1,28.50,ESE,107,0.0,0.0,97,0.04,,---,0.00,VWS V14.01,2013-04-18 04:35:00,
2013-04-18 00:36:00,61.0,60.1,28.50,ESE,107,0.0,0.0,97,0.04,,---,0.00,VWS V14.01,2013-04-18 04:36:00,
2013-04-18 00:37:00,61.0,60.1,28.50,ESE,107,0.0,0.0,97,0.04,,---,0.00,VWS V14.01,2013-04-18 04:37:00,
2013-04-18 00:38:00,61.2,60.3,28.50,ESE,107,0.0,0.0,97,0.04,,---,0.00,VWS V14.01,2013-04-18 04:38:00,
2013-04-18 00:39:00,61.2,60.3,28.50,ESE,107,0.0,0.0,97,0.04,,---,0.00,VWS V14.01,2013-04-18 04:39:00,
2013-04-18 00:40:00,61.2,60.3,28.50,ESE,107,0.0,0.0,97,0.04,,---,0.00,VWS V14.01,2013-04-18 04:40:00,
2013-04-18 00:41:00,61.0,60.1,28.50,ESE,107,0.0,0.0,97,0.04,,---,0.00,VWS V14.01,2013-04-18 04:41:00,
2013-04-18 00:42:00,61.0,60.1,28.50,ESE,107,0.0,0.0,97,0.04,,---,0.00,VWS V14.01,2013-04-18 04:42:00,
2013-04-18 00:43:00,61.0,60.1,28.50,ESE,107,0.0,0.0,97,0.04,,---,0.00,VWS V14.01,2013-04-18 04:43:00,
2013-04-18 00:44:00,61.0,60.1,28.50,ESE,107,0.0,0.0,97,0.04,,---,0.00,VWS V14.01,2013-04-18 04:44:00,
2013-04-18 00:45:00,61.0,60.1,28.50,ESE,107,0.0,0.0,97,0.04,,---,0.00,VWS V14.01,2013-04-18 04:45:00,
2013-04-18 00:46:00,61.0,60.1,28.50,ESE,107,0.0,0.0,97,0.04,,---,0.00,VWS V14.01,2013-04-18 04:46:00,
2013-04-18 00:47:00,61.0,60.1,28.50,ESE,107,0.0,0.0,97,0.04,,---,0.00,VWS V14.01,2013-04-18 04:47:00,
2013-04-18 00:48:00,61.0,60.1,28.50,ESE,107,0.0,0.0,97,0.04,,---,0.00,VWS V14.01,2013-04-18 04:48:00,
2013-04-18 00:49:00,61.0,60.1,28.50,ESE,107,0.0,0.0,97,0.04,,---,0.00,VWS V14.01,2013-04-18 04:49:00,
2013-04-18 00:50:00,61.0,60.1,28.50,ESE,107,0.0,0.0,97,0.04,,---,0.00,VWS V14.01,2013-04-18 04:50:00,
2013-04-18 00:51:00,61.0,60.1,28.50,ESE,107,0.0,0.0,97,0.04,,---,0.00,VWS V14.01,2013-04-18 04:51:00,
2013-04-18 00:52:00,61.0,60.1,28.50,ESE,107,0.0,0.0,97,0.04,,---,0.00,VWS V14.01,2013-04-18 04:52:00,
2013-04-18 00:53:00,61.0,60.1,28.50,ESE,107,0.0,0.0,97,0.04,,---,0.00,VWS V14.01,2013-04-18 04:53:00,
2013-04-18 00:54:00,61.0,60.1,28.50,ESE,107,0.0,0.0,97,0.04,,---,0.00,VWS V14.01,2013-04-18 04:54:00,
2013-04-18 00:55:00,61.0,60.1,28.50,ESE,107,0.0,0.0,97,0.00,,---,0.00,VWS V14.01,2013-04-18 04:55:00,
2013-04-18 00:56:00,61.0,60.1,28.50,ESE,107,0.0,0.0,97,0.00,,---,0.00,VWS V14.01,2013-04-18 04:56:00,
2013-04-18 00:57:00,61.0,60.1,28.47,ESE,107,0.0,0.0,97,0.00,,---,0.00,VWS V14.01,2013-04-18 04:57:00,
2013-04-18 00:58:00,61.0,60.1,28.47,ESE,107,0.0,0.0,97,0.00,,---,0.00,VWS V14.01,2013-04-18 04:58:00,
2013-04-18 00:59:00,61.0,60.1,28.47,ESE,107,0.0,0.0,97,0.00,,---,0.00,VWS V14.01,2013-04-18 04:59:00,
2013-04-18 01:00:00,61.0,60.1,28.47,ESE,107,0.0,0.0,97,0.00,,---,0.00,VWS V14.01,2013-04-18 05:00:00,
2013-04-18 01:01:00,61.0,60.1,28.47,ESE,107,0.0,0.0,97,0.00,,---,0.00,VWS V14.01,2013-04-18 05:01:00,
2013-04-18 01:02:00,61.0,60.1,28.47,ESE,107,0.0,0.0,97,0.00,,---,0.00,VWS V14.01,2013-04-18 05:02:00,
2013-04-18 01:03:00,61.0,60.1,28.47,ESE,107,0.0,0.0,97,0.00,,---,0.00,VWS V14.01,2013-04-18 05:03:00,
2013-04-18 01:04:00,61.0,60.1,28.47,ESE,107,0.0,0.0,97,0.00,,---,0.00,VWS V14.01,2013-04-18 05:04:00,
2013-04-18 01:05:00,61.0,60.1,28.47,ESE,107,0.0,0.0,97,0.00,,---,0.00,VWS V14.01,2013-04-18 05:05:00,
2013-04-18 01:06:00,61.0,60.1,28.47,ESE,107,0.0,0.0,97,0.00,,---,0.00,VWS V14.01,2013-04-18 05:06:00,
2013-04-18 01:07:00,61.0,60.1,28.47,ESE,107,0.0,0.0,97,0.00,,---,0.00,VWS V14.01,2013-04-18 05:07:00,
2013-04-18 01:08:00,61.0,60.1,28.47,ESE,107,0.0,0.0,97,0.00,,---,0.00,VWS V14.01,2013-04-18 05:08:00,
2013-04-18 01:09:00,61.0,60.1,28.47,ESE,107,0.0,0.0,97,0.00,,---,0.00,VWS V14.01,2013-04-18 05:09:00,
2013-04-18 01:10:00,61.0,60.1,28.47,ESE,107,0.0,0.0,97,0.00,,---,0.00,VWS V14.01,2013-04-18 05:10:00,
2013-04-18 01:11:00,61.0,60.1,28.47,ESE,107,0.0,2.7,97,0.00,,---,0.00,VWS V14.01,2013-04-18 05:11:00,
2013-04-18 01:12:00,61.0,60.1,28.47,ESE,107,0.0,0.0,97,0.00,,---,0.00,VWS V14.01,2013-04-18 05:12:00,
2013-04-18 01:13:00,61.0,60.1,28.47,ESE,107,0.0,0.0,97,0.00,,---,0.00,VWS V14.01,2013-04-18 05:13:00,
2013-04-18 01:14:00,61.0,60.1,28.47,ESE,107,0.0,3.1,97,0.00,,---,0.00,VWS V14.01,2013-04-18 05:14:00,
2013-04-18 01:15:00,61.0,60.1,28.47,ESE,107,3.1,3.6,97,0.00,,---,0.00,VWS V14.01,2013-04-18 05:15:00,
2013-04-18 01:16:00,61.0,60.1,28.47,West,272,4.5,4.5,97,0.00,,---,0.00,VWS V14.01,2013-04-18 05:16:00,
2013-04-18 01:17:00,61.0,60.1,28.47,West,272,4.0,4.5,97,0.00,,---,0.00,VWS V14.01,2013-04-18 05:17:00,
2013-04-18 01:18:00,61.0,60.1,28.47,West,259,4.5,5.8,97,0.00,,---,0.00,VWS V14.01,2013-04-18 05:18:00,
2013-04-18 01:19:00,61.0,60.1,28.47,West,276,4.9,4.9,97,0.00,,---,0.00,VWS V14.01,2013-04-18 05:19:00,
2013-04-18 01:20:00,51.4,46.8,28.85,ESE,104,5.4,8.3,84,0.00,,---,0.00,VWS V14.01,2013-04-18 05:20:00,
2013-04-18 01:21:00,61.0,60.1,28.47,WNW,290,6.3,8.3,97,0.00,,---,0.00,VWS V14.01,2013-04-18 05:21:00,
2013-04-18 01:22:00,60.4,59.6,28.47,NW,305,11.6,13.4,97,0.00,,---,0.00,VWS V14.01,2013-04-18 05:22:00,
2013-04-18 01:23:00,59.4,58.5,28.47,West,279,7.8,11.6,97,0.00,,---,0.00,VWS V14.01,2013-04-18 05:23:00,
2013-04-18 01:24:00,58.5,57.6,28.47,WSW,242,8.3,13.4,97,0.00,,---,0.00,VWS V14.01,2013-04-18 05:24:00,
2013-04-18 01:25:00,51.3,46.6,28.85,East,101,7.4,7.4,84,0.00,,---,0.00,VWS V14.01,2013-04-18 05:25:00,
2013-04-18 01:26:00,57.7,56.9,28.47,West,259,12.1,18.6,97,0.04,,---,0.04,VWS V14.01,2013-04-18 05:26:00,
2013-04-18 01:27:00,57.2,56.4,28.53,NW,313,8.7,19.0,97,0.04,,---,0.04,VWS V14.01,2013-04-18 05:27:00,
2013-04-18 01:28:00,57.0,56.2,28.53,WNW,302,4.5,12.1,97,0.04,,---,0.04,VWS V14.01,2013-04-18 05:28:00,
2013-04-18 01:29:00,56.8,56.0,28.53,NW,325,4.9,8.3,97,0.04,,---,0.04,VWS V14.01,2013-04-18 05:29:00,
2013-04-18 01:30:00,56.7,55.8,28.53,NW,304,6.9,9.6,97,0.04,,---,0.04,VWS V14.01,2013-04-18 05:30:00,
2013-04-18 01:31:00,56.7,55.8,28.53,NW,317,6.9,11.2,97,0.04,,---,0.04,VWS V14.01,2013-04-18 05:31:00,
2013-04-18 01:32:00,56.7,55.8,28.53,WNW,297,6.7,10.1,97,0.04,,---,0.04,VWS V14.01,2013-04-18 05:32:00,
2013-04-18 01:33:00,56.7,55.8,28.53,West,267,5.8,8.3,97,0.04,,---,0.04,VWS V14.01,2013-04-18 05:33:00,
2013-04-18 01:34:00,51.3,46.3,28.82,ESE,104,6.9,8.3,83,0.00,,---,0.00,VWS V14.01,2013-04-18 05:34:00,
2013-04-18 01:35:00,56.7,55.8,28.53,West,263,6.3,10.1,97,0.04,,---,0.04,VWS V14.01,2013-04-18 05:35:00,
2013-04-18 01:36:00,56.5,55.6,28.53,West,270,6.3,9.2,97,0.04,,---,0.04,VWS V14.01,2013-04-18 05:36:00,
2013-04-18 01:37:00,56.3,55.5,28.53,West,261,5.8,9.2,97,0.08,,---,0.08,VWS V14.01,2013-04-18 05:37:00,
2013-04-18 01:38:00,56.3,55.5,28.53,WNW,284,10.1,10.1,97,0.08,,---,0.08,VWS V14.01,2013-04-18 05:38:00,
2013-04-18 01:39:00,56.3,55.5,28.53,WNW,299,6.3,10.1,97,0.08,,---,0.08,VWS V14.01,2013-04-18 05:39:00,
2013-04-18 01:40:00,56.1,55.3,28.53,WNW,294,6.3,7.4,97,0.08,,---,0.08,VWS V14.01,2013-04-18 05:40:00,
2013-04-18 01:41:00,56.3,55.5,28.53,NW,318,4.0,7.8,97,0.08,,---,0.08,VWS V14.01,2013-04-18 05:41:00,
2013-04-18 01:42:00,56.1,55.3,28.50,NW,320,6.3,6.9,97,0.08,,---,0.08,VWS V14.01,2013-04-18 05:42:00,
2013-04-18 01:43:00,56.1,55.3,28.50,NW,314,7.8,7.8,97,0.08,,---,0.08,VWS V14.01,2013-04-18 05:43:00,
2013-04-18 01:44:00,55.9,55.1,28.50,WNW,301,8.3,9.2,97,0.08,,---,0.08,VWS V14.01,2013-04-18 05:44:00,
2013-04-18 01:45:00,55.9,55.1,28.50,North,356,6.3,8.3,97,0.08,,---,0.08,VWS V14.01,2013-04-18 05:45:00,
2013-04-18 01:46:00,51.3,46.6,28.82,SE,129,4.9,6.7,84,0.00,,---,0.00,VWS V14.01,2013-04-18 05:46:00,
2013-04-18 01:47:00,55.9,55.1,28.50,West,273,4.9,7.4,97,0.08,,---,0.08,VWS V14.01,2013-04-18 05:47:00,
2013-04-18 01:48:00,55.9,55.1,28.50,NW,324,4.5,6.7,97,0.08,,---,0.08,VWS V14.01,2013-04-18 05:48:00,
2013-04-18 01:49:00,55.9,55.1,28.50,WNW,298,4.9,7.4,97,0.08,,---,0.08,VWS V14.01,2013-04-18 05:49:00,
2013-04-18 01:50:00,55.9,55.1,28.50,NW,316,3.1,5.4,97,0.08,,---,0.08,VWS V14.01,2013-04-18 05:50:00,
2013-04-18 01:51:00,55.9,55.1,28.50,WNW,301,4.9,5.8,97,0.08,,---,0.08,VWS V14.01,2013-04-18 05:51:00,
2013-04-18 01:52:00,55.8,54.9,28.50,WNW,301,3.1,4.9,97,0.08,,---,0.08,VWS V14.01,2013-04-18 05:52:00,
2013-04-18 01:53:00,51.3,46.6,28.82,ESE,107,6.7,7.4,84,0.00,,---,0.00,VWS V14.01,2013-04-18 05:53:00,
2013-04-18 01:54:00,55.9,55.1,28.50,WSW,258,0.0,3.6,97,0.08,,---,0.08,VWS V14.01,2013-04-18 05:54:00,
2013-04-18 01:55:00,55.9,55.1,28.50,WNW,298,5.8,6.9,97,0.08,,---,0.08,VWS V14.01,2013-04-18 05:55:00,
2013-04-18 01:56:00,55.9,55.1,28.50,WNW,285,5.8,6.3,97,0.12,,---,0.12,VWS V14.01,2013-04-18 05:56:00,
2013-04-18 01:57:00,55.8,54.9,28.50,WNW,299,6.3,8.7,97,0.12,,---,0.12,VWS V14.01,2013-04-18 05:57:00,
2013-04-18 01:58:00,51.3,46.6,28.82,ESE,110,5.4,8.3,84,0.00,,---,0.00,VWS V14.01,2013-04-18 05:58:00,
2013-04-18 01:59:00,55.8,54.9,28.50,WNW,296,4.5,6.3,97,0.12,,---,0.12,VWS V14.01,2013-04-18 05:59:00,
2013-04-18 02:00:00,55.8,54.9,28.50,WSW,241,5.8,6.3,97,0.12,,---,0.12,VWS V14.01,2013-04-18 06:00:00,
2013-04-18 02:01:00,55.8,54.9,28.50,West,273,3.1,5.8,97,0.12,,---,0.12,VWS V14.01,2013-04-18 06:01:00,
2013-04-18 02:02:00,55.9,55.1,28.50,WSW,256,4.0,7.8,97,0.12,,---,0.12,VWS V14.01,2013-04-18 06:02:00,
2013-04-18 02:03:00,55.9,55.1,28.50,NW,306,2.7,5.8,97,0.12,,---,0.12,VWS V14.01,2013-04-18 06:03:00,
2013-04-18 02:04:00,51.3,46.9,28.82,ESE,115,5.8,5.8,85,0.00,,---,0.00,VWS V14.01,2013-04-18 06:04:00,
2013-04-18 02:05:00,55.9,55.1,28.50,West,278,7.4,8.3,97,0.12,,---,0.12,VWS V14.01,2013-04-18 06:05:00,
2013-04-18 02:06:00,55.8,54.9,28.50,WSW,258,4.9,7.4,97,0.12,,---,0.12,VWS V14.01,2013-04-18 06:06:00,
2013-04-18 02:07:00,55.8,54.9,28.50,WNW,298,4.9,7.4,97,0.12,,---,0.12,VWS V14.01,2013-04-18 06:07:00,
2013-04-18 02:08:00,55.8,54.9,28.50,WNW,298,6.9,6.9,97,0.12,,---,0.12,VWS V14.01,2013-04-18 06:08:00,
2013-04-18 02:09:00,51.3,46.9,28.82,East,101,6.3,6.7,85,0.00,,---,0.00,VWS V14.01,2013-04-18 06:09:00,
2013-04-18 02:10:00,55.8,54.9,28.50,NW,313,5.4,6.9,97,0.12,,---,0.12,VWS V14.01,2013-04-18 06:10:00,
2013-04-18 02:11:00,55.8,54.9,28.50,NW,310,6.3,7.8,97,0.12,,---,0.12,VWS V14.01,2013-04-18 06:11:00,
2013-04-18 02:12:00,55.6,54.7,28.47,WNW,287,5.8,6.3,97,0.12,,---,0.12,VWS V14.01,2013-04-18 06:12:00,
2013-04-18 02:13:00,55.8,54.9,28.47,WSW,252,4.0,5.8,97,0.12,,---,0.12,VWS V14.01,2013-04-18 06:13:00,
2013-04-18 02:14:00,51.6,47.6,28.82,ESE,114,6.7,6.7,86,0.00,,---,0.00,VWS V14.01,2013-04-18 06:14:00,
2013-04-18 02:15:00,55.6,54.7,28.47,West,275,4.5,6.7,97,0.12,,---,0.12,VWS V14.01,2013-04-18 06:15:00,
2013-04-18 02:16:00,55.6,54.7,28.47,NW,308,3.1,4.5,97,0.12,,---,0.12,VWS V14.01,2013-04-18 06:16:00,
2013-04-18 02:17:00,55.6,54.7,28.47,WNW,291,5.4,5.4,97,0.16,,---,0.16,VWS V14.01,2013-04-18 06:17:00,
2013-04-18 02:18:00,55.6,54.7,28.47,NNW,331,3.6,6.7,97,0.16,,---,0.16,VWS V14.01,2013-04-18 06:18:00,
2013-04-18 02:19:00,51.8,48.1,28.82,ESE,115,4.5,6.7,87,0.00,,---,0.00,VWS V14.01,2013-04-18 06:19:00,
2013-04-18 02:20:00,55.4,54.6,28.47,WNW,288,9.6,12.5,97,0.16,,---,0.16,VWS V14.01,2013-04-18 06:20:00,
2013-04-18 02:21:00,54.5,53.7,28.47,NW,309,9.6,12.1,97,0.16,,---,0.16,VWS V14.01,2013-04-18 06:21:00,
2013-04-18 02:22:00,54.3,53.5,28.47,WNW,302,9.6,12.1,97,0.16,,---,0.16,VWS V14.01,2013-04-18 06:22:00,
2013-04-18 02:23:00,54.1,53.3,28.47,West,266,10.1,10.1,97,0.16,,---,0.16,VWS V14.01,2013-04-18 06:23:00,
2013-04-18 02:24:00,52.0,48.5,28.82,SE,125,4.5,5.8,88,0.00,,---,0.00,VWS V14.01,2013-04-18 06:24:00,
2013-04-18 02:25:00,53.8,53.0,28.47,West,280,10.5,13.4,97,0.16,,---,0.16,VWS V14.01,2013-04-18 06:25:00,
2013-04-18 02:26:00,53.6,52.8,28.47,NW,325,4.5,11.0,97,0.12,,---,0.16,VWS V14.01,2013-04-18 06:26:00,
2013-04-18 02:27:00,53.4,52.6,28.50,WSW,244,7.4,14.3,97,0.12,,---,0.16,VWS V14.01,2013-04-18 06:27:00,
2013-04-18 02:28:00,53.4,52.6,28.50,SW,228,9.2,12.5,97,0.12,,---,0.16,VWS V14.01,2013-04-18 06:28:00,
2013-04-18 02:29:00,52.2,49.0,28.79,ESE,113,6.3,6.3,89,0.00,,---,0.00,VWS V14.01,2013-04-18 06:29:00,
2013-04-18 02:30:00,53.1,52.2,28.50,NW,311,8.3,12.1,97,0.12,,---,0.16,VWS V14.01,2013-04-18 06:30:00,
2013-04-18 02:31:00,52.9,52.1,28.50,NW,321,6.9,9.2,97,0.12,,---,0.16,VWS V14.01,2013-04-18 06:31:00,
2013-04-18 02:32:00,52.7,51.9,28.50,NNW,330,5.4,9.6,97,0.12,,---,0.16,VWS V14.01,2013-04-18 06:32:00,
2013-04-18 02:33:00,52.7,51.9,28.50,West,278,6.9,8.7,97,0.12,,---,0.16,VWS V14.01,2013-04-18 06:33:00,
2013-04-18 02:34:00,52.7,51.9,28.50,WNW,289,4.9,6.9,97,0.12,,---,0.16,VWS V14.01,2013-04-18 06:34:00,
2013-04-18 02:35:00,52.5,49.7,28.79,ESE,109,4.9,5.8,90,0.00,,---,0.00,VWS V14.01,2013-04-18 06:35:00,
2013-04-18 02:36:00,52.7,51.9,28.50,NW,305,4.0,6.3,97,0.12,,---,0.16,VWS V14.01,2013-04-18 06:36:00,
2013-04-18 02:37:00,52.7,51.9,28.50,West,273,8.3,8.3,97,0.12,,---,0.16,VWS V14.01,2013-04-18 06:37:00,
2013-04-18 02:38:00,52.7,51.9,28.50,West,277,6.9,8.3,97,0.08,,---,0.16,VWS V14.01,2013-04-18 06:38:00,
2013-04-18 02:39:00,52.7,51.9,28.50,NW,315,5.4,9.2,97,0.08,,---,0.16,VWS V14.01,2013-04-18 06:39:00,
2013-04-18 02:41:00,52.9,50.3,28.79,ESE,107,3.6,4.5,91,0.00,,---,0.00,VWS V14.01,2013-04-18 06:41:00,
2013-04-18 02:42:00,52.7,51.9,28.47,NW,325,6.9,9.6,97,0.12,,---,0.20,VWS V14.01,2013-04-18 06:42:00,
2013-04-18 02:43:00,52.7,51.9,28.47,NW,321,5.4,7.8,97,0.12,,---,0.20,VWS V14.01,2013-04-18 06:43:00,
2013-04-18 02:44:00,52.7,51.9,28.47,WNW,283,6.3,6.7,97,0.12,,---,0.20,VWS V14.01,2013-04-18 06:44:00,
2013-04-18 02:45:00,52.7,51.9,28.47,WNW,303,6.7,12.1,97,0.12,,---,0.20,VWS V14.01,2013-04-18 06:45:00,
2013-04-18 02:46:00,52.5,51.7,28.47,NW,317,7.4,9.6,97,0.12,,---,0.20,VWS V14.01,2013-04-18 06:46:00,
2013-04-18 02:47:00,53.2,51.0,28.79,ESE,113,4.0,4.0,92,0.00,,---,0.00,VWS V14.01,2013-04-18 06:47:00,
2013-04-18 02:48:00,52.2,51.3,28.47,WSW,255,11.2,16.3,97,0.12,,---,0.20,VWS V14.01,2013-04-18 06:48:00,
2013-04-18 02:49:00,52.0,51.2,28.47,NW,314,5.8,11.2,97,0.12,,---,0.20,VWS V14.01,2013-04-18 06:49:00,
2013-04-18 02:50:00,51.4,50.6,28.47,NW,316,9.2,11.6,97,0.12,,---,0.20,VWS V14.01,2013-04-18 06:50:00,
2013-04-18 02:51:00,50.7,49.9,28.47,NNW,342,7.4,9.2,97,0.12,,---,0.20,VWS V14.01,2013-04-18 06:51:00,
2013-04-18 02:52:00,53.4,51.2,28.79,ESE,118,5.8,5.8,92,0.00,,---,0.00,VWS V14.01,2013-04-18 06:52:00,
2013-04-18 02:53:00,49.8,49.0,28.47,WSW,257,13.0,13.0,97,0.12,,---,0.20,VWS V14.01,2013-04-18 06:53:00,
2013-04-18 02:54:00,49.5,48.7,28.47,NW,326,10.1,14.8,97,0.12,,---,0.20,VWS V14.01,2013-04-18 06:54:00,
2013-04-18 02:55:00,49.3,48.5,28.47,WNW,301,11.6,12.5,97,0.12,,---,0.20,VWS V14.01,2013-04-18 06:55:00,
2013-04-18 02:56:00,49.3,48.5,28.47,WNW,297,14.3,14.3,97,0.16,,---,0.24,VWS V14.01,2013-04-18 06:56:00,
2013-04-18 02:57:00,54.9,52.9,28.79,ESE,107,4.5,4.9,93,0.00,,---,0.00,VWS V14.01,2013-04-18 06:57:00,
2013-04-18 02:58:00,48.9,48.1,28.50,WNW,297,6.3,8.3,97,0.12,,---,0.24,VWS V14.01,2013-04-18 06:58:00,
2013-04-18 02:59:00,48.9,48.1,28.50,NNW,343,5.8,9.2,97,0.12,,---,0.24,VWS V14.01,2013-04-18 06:59:00,
2013-04-18 03:00:00,48.9,48.1,28.50,NW,316,8.7,9.6,97,0.12,,---,0.24,VWS V14.01,2013-04-18 07:00:00,
2013-04-18 03:01:00,48.7,47.9,28.50,North,351,6.9,8.7,97,0.12,,---,0.24,VWS V14.01,2013-04-18 07:01:00,
2013-04-18 03:02:00,56.1,54.4,28.76,SE,133,3.6,6.3,94,0.00,,---,0.00,VWS V14.01,2013-04-18 07:02:00,
2013-04-18 03:03:00,48.7,47.9,28.50,NNW,335,5.4,9.6,97,0.12,,---,0.24,VWS V14.01,2013-04-18 07:03:00,
2013-04-18 03:04:00,48.7,47.9,28.50,NW,322,6.3,12.1,97,0.12,,---,0.24,VWS V14.01,2013-04-18 07:04:00,
2013-04-18 03:05:00,48.7,47.9,28.50,NW,320,5.4,7.8,97,0.12,,---,0.24,VWS V14.01,2013-04-18 07:05:00,
2013-04-18 03:06:00,48.7,47.9,28.50,WNW,299,4.0,6.3,97,0.12,,---,0.24,VWS V14.01,2013-04-18 07:06:00,
2013-04-18 03:07:00,48.7,47.9,28.50,North,351,5.4,5.4,97,0.12,,---,0.24,VWS V14.01,2013-04-18 07:07:00,
2013-04-18 03:08:00,56.7,55.0,28.76,SSE,147,6.3,6.3,94,0.00,,---,0.00,VWS V14.01,2013-04-18 07:08:00,
2013-04-18 03:09:00,48.7,47.9,28.50,NW,307,6.7,12.5,97,0.12,,---,0.24,VWS V14.01,2013-04-18 07:09:00,
2013-04-18 03:10:00,48.6,47.8,28.50,NNW,329,5.4,8.3,97,0.12,,---,0.24,VWS V14.01,2013-04-18 07:10:00,
2013-04-18 03:11:00,48.6,47.8,28.50,WNW,296,7.4,9.2,97,0.12,,---,0.24,VWS V14.01,2013-04-18 07:11:00,
2013-04-18 03:12:00,48.6,47.8,28.47,WNW,289,8.3,11.6,97,0.12,,---,0.24,VWS V14.01,2013-04-18 07:12:00,
2013-04-18 03:13:00,57.2,55.8,28.76,SE,144,3.6,4.5,95,0.00,,---,0.00,VWS V14.01,2013-04-18 07:13:00,
2013-04-18 03:14:00,48.2,47.4,28.47,WNW,283,8.7,13.4,97,0.12,,---,0.24,VWS V14.01,2013-04-18 07:14:00,
2013-04-18 03:15:00,48.2,47.4,28.47,NNW,334,4.9,8.7,97,0.12,,---,0.24,VWS V14.01,2013-04-18 07:15:00,
2013-04-18 03:16:00,48.2,47.4,28.47,West,264,6.9,7.4,97,0.12,,---,0.24,VWS V14.01,2013-04-18 07:16:00,
2013-04-18 03:17:00,48.2,47.4,28.47,NNW,339,6.3,11.0,97,0.12,,---,0.24,VWS V14.01,2013-04-18 07:17:00,
2013-04-18 03:18:00,57.6,56.4,28.76,SSE,148,4.9,5.4,96,0.00,,---,0.00,VWS V14.01,2013-04-18 07:18:00,
2013-04-18 03:19:00,47.8,47.0,28.47,NW,320,11.6,13.4,97,0.08,,---,0.24,VWS V14.01,2013-04-18 07:19:00,
2013-04-18 03:20:00,47.7,46.8,28.47,West,269,6.7,13.0,97,0.12,,---,0.28,VWS V14.01,2013-04-18 07:20:00,
2013-04-18 03:21:00,47.7,46.8,28.47,NW,306,11.2,11.6,97,0.12,,---,0.28,VWS V14.01,2013-04-18 07:21:00,
2013-04-18 03:22:00,47.7,46.8,28.47,West,266,11.0,11.2,97,0.12,,---,0.28,VWS V14.01,2013-04-18 07:22:00,
2013-04-18 03:23:00,58.3,57.2,28.76,ESE,121,6.3,6.9,96,0.00,,---,0.00,VWS V14.01,2013-04-18 07:23:00,
2013-04-18 03:24:00,47.7,46.8,28.47,NW,310,13.4,14.8,97,0.12,,---,0.28,VWS V14.01,2013-04-18 07:24:00,
2013-04-18 03:25:00,47.7,46.8,28.47,WNW,284,11.0,13.4,97,0.12,,---,0.28,VWS V14.01,2013-04-18 07:25:00,
2013-04-18 03:26:00,47.5,46.7,28.47,North,351,9.2,14.8,97,0.12,,---,0.28,VWS V14.01,2013-04-18 07:26:00,
2013-04-18 03:27:00,47.7,46.8,28.47,WNW,284,8.7,9.2,97,0.12,,---,0.28,VWS V14.01,2013-04-18 07:27:00,
2013-04-18 03:28:00,58.8,57.7,28.76,SE,130,3.6,4.5,96,0.00,,---,0.00,VWS V14.01,2013-04-18 07:28:00,
2013-04-18 03:29:00,47.5,46.7,28.47,North,356,7.8,11.0,97,0.12,,---,0.28,VWS V14.01,2013-04-18 07:29:00,
2013-04-18 03:30:00,47.3,46.5,28.47,WSW,246,6.7,15.9,97,0.12,,---,0.28,VWS V14.01,2013-04-18 07:30:00,
2013-04-18 03:31:00,47.3,46.5,28.47,WSW,237,6.9,9.2,97,0.12,,---,0.28,VWS V14.01,2013-04-18 07:31:00,
2013-04-18 03:32:00,47.3,46.5,28.47,WNW,299,8.3,8.7,97,0.12,,---,0.28,VWS V14.01,2013-04-18 07:32:00,
2013-04-18 03:33:00,59.4,58.2,28.76,SSE,156,2.7,5.4,96,0.00,,---,0.00,VWS V14.01,2013-04-18 07:33:00,
2013-04-18 03:34:00,47.3,46.5,28.47,West,278,11.6,11.6,97,0.12,,---,0.28,VWS V14.01,2013-04-18 07:34:00,
2013-04-18 03:35:00,47.3,46.5,28.47,NW,312,9.6,12.1,97,0.12,,---,0.28,VWS V14.01,2013-04-18 07:35:00,
2013-04-18 03:36:00,47.3,46.5,28.47,West,268,9.6,15.9,97,0.12,,---,0.28,VWS V14.01,2013-04-18 07:36:00,
2013-04-18 03:37:00,47.3,46.5,28.47,SW,227,6.9,13.4,97,0.12,,---,0.28,VWS V14.01,2013-04-18 07:37:00,
2013-04-18 03:38:00,59.5,58.4,28.76,SSE,154,0.0,5.8,96,0.00,,---,0.00,VWS V14.01,2013-04-18 07:38:00,
2013-04-18 03:39:00,47.3,46.5,28.47,NNW,347,8.3,9.2,97,0.16,,---,0.31,VWS V14.01,2013-04-18 07:39:00,
2013-04-18 03:40:00,47.5,46.7,28.47,NW,317,2.7,11.6,97,0.16,,---,0.31,VWS V14.01,2013-04-18 07:40:00,
2013-04-18 03:41:00,47.5,46.7,28.47,NW,314,6.9,9.2,97,0.12,,---,0.31,VWS V14.01,2013-04-18 07:41:00,
2013-04-18 03:42:00,47.5,46.7,28.47,NW,315,6.3,9.2,97,0.12,,---,0.31,VWS V14.01,2013-04-18 07:42:00,
2013-04-18 03:43:00,59.4,58.5,28.76,SSW,196,0.0,4.9,97,0.00,,---,0.00,VWS V14.01,2013-04-18 07:43:00,
2013-04-18 03:44:00,47.5,46.7,28.47,WNW,293,16.3,16.8,97,0.12,,---,0.31,VWS V14.01,2013-04-18 07:44:00,
2013-04-18 03:45:00,47.3,46.5,28.47,NW,304,8.3,16.3,97,0.12,,---,0.31,VWS V14.01,2013-04-18 07:45:00,
2013-04-18 03:46:00,47.3,46.5,28.47,WNW,301,12.5,17.7,97,0.12,,---,0.31,VWS V14.01,2013-04-18 07:46:00,
2013-04-18 03:47:00,47.1,46.3,28.47,WNW,291,8.7,14.3,97,0.12,,---,0.31,VWS V14.01,2013-04-18 07:47:00,
2013-04-18 03:48:00,47.1,46.3,28.47,WNW,302,5.4,9.2,97,0.12,,---,0.31,VWS V14.01,2013-04-18 07:48:00,
2013-04-18 03:49:00,59.7,58.9,28.73,South,177,4.5,4.5,97,0.00,,---,0.00,VWS V14.01,2013-04-18 07:49:00,
2013-04-18 03:50:00,47.1,46.3,28.47,NNW,341,6.9,11.0,97,0.12,,---,0.31,VWS V14.01,2013-04-18 07:50:00,
2013-04-18 03:51:00,47.1,46.3,28.47,NW,320,4.0,11.0,97,0.12,,---,0.31,VWS V14.01,2013-04-18 07:51:00,
2013-04-18 03:52:00,47.1,46.3,28.47,West,276,4.9,10.1,97,0.12,,---,0.31,VWS V14.01,2013-04-18 07:52:00,
2013-04-18 03:53:00,46.9,46.1,28.47,NW,307,10.5,13.0,97,0.12,,---,0.31,VWS V14.01,2013-04-18 07:53:00,
2013-04-18 03:54:00,46.8,46.0,28.47,WNW,302,10.1,14.8,97,0.12,,---,0.31,VWS V14.01,2013-04-18 07:54:00,
2013-04-18 03:55:00,59.9,58.8,28.73,South,176,2.7,3.6,96,0.00,,---,0.00,VWS V14.01,2013-04-18 07:55:00,
2013-04-18 03:56:00,46.6,45.8,28.47,North,351,7.4,15.9,97,0.12,,---,0.31,VWS V14.01,2013-04-18 07:56:00,
2013-04-18 03:57:00,46.6,45.8,28.47,WNW,290,13.4,15.2,97,0.08,,---,0.31,VWS V14.01,2013-04-18 07:57:00,
2013-04-18 03:58:00,46.4,45.6,28.47,NW,325,8.3,13.4,97,0.08,,---,0.31,VWS V14.01,2013-04-18 07:58:00,
2013-04-18 03:59:00,46.4,45.6,28.47,NW,308,6.3,15.4,97,0.08,,---,0.31,VWS V14.01,2013-04-18 07:59:00,
2013-04-18 04:00:00,60.4,59.3,28.73,SE,140,4.5,4.9,96,0.00,,---,0.00,VWS V14.01,2013-04-18 08:00:00,
2013-04-18 04:01:00,46.2,45.4,28.47,West,276,7.4,15.4,97,0.08,,---,0.31,VWS V14.01,2013-04-18 08:01:00,
2013-04-18 04:02:00,46.2,45.4,28.47,WNW,298,9.6,14.8,97,0.08,,---,0.31,VWS V14.01,2013-04-18 08:02:00,
2013-04-18 04:03:00,46.2,45.4,28.47,NNW,338,7.8,11.2,97,0.08,,---,0.31,VWS V14.01,2013-04-18 08:03:00,
2013-04-18 04:04:00,46.0,45.2,28.47,WNW,282,9.2,13.9,97,0.08,,---,0.31,VWS V14.01,2013-04-18 08:04:00,
2013-04-18 04:05:00,61.2,60.3,28.73,SSE,162,2.7,6.3,97,0.00,,---,0.00,VWS V14.01,2013-04-18 08:05:00,
2013-04-18 04:06:00,45.9,45.1,28.47,WNW,288,6.9,15.2,97,0.12,,---,0.35,VWS V14.01,2013-04-18 08:06:00,
2013-04-18 04:07:00,45.7,44.9,28.47,WSW,252,10.1,14.8,97,0.12,,---,0.35,VWS V14.01,2013-04-18 08:07:00,
2013-04-18 04:08:00,45.7,44.9,28.47,WNW,299,2.7,11.0,97,0.12,,---,0.35,VWS V14.01,2013-04-18 08:08:00,
2013-04-18 04:09:00,45.5,44.7,28.47,North,356,8.7,9.6,97,0.12,,---,0.35,VWS V14.01,2013-04-18 08:09:00,
2013-04-18 04:10:00,62.6,61.5,28.73,SSE,155,8.7,8.7,96,0.00,,---,0.00,VWS V14.01,2013-04-18 08:10:00,
2013-04-18 04:11:00,45.3,44.5,28.47,WSW,248,10.5,11.2,97,0.12,,---,0.35,VWS V14.01,2013-04-18 08:11:00,
2013-04-18 04:12:00,45.1,44.3,28.50,WSW,237,9.2,15.4,97,0.12,,---,0.35,VWS V14.01,2013-04-18 08:12:00,
2013-04-18 04:13:00,45.0,44.2,28.50,NW,321,8.3,11.6,97,0.12,,---,0.35,VWS V14.01,2013-04-18 08:13:00,
2013-04-18 04:14:00,44.8,44.0,28.50,WNW,294,7.4,12.1,97,0.12,,---,0.35,VWS V14.01,2013-04-18 08:14:00,
2013-04-18 04:15:00,63.1,62.0,28.73,SSW,196,5.8,8.3,96,0.00,,---,0.00,VWS V14.01,2013-04-18 08:15:00,
2013-04-18 04:16:00,44.8,44.0,28.50,WNW,303,4.5,9.2,97,0.12,,---,0.35,VWS V14.01,2013-04-18 08:16:00,
2013-04-18 04:17:00,44.8,44.0,28.50,WNW,298,9.2,11.2,97,0.12,,---,0.35,VWS V14.01,2013-04-18 08:17:00,
2013-04-18 04:18:00,44.8,44.0,28.50,WNW,295,10.1,11.0,97,0.12,,---,0.35,VWS V14.01,2013-04-18 08:18:00,
2013-04-18 04:19:00,44.6,43.8,28.50,WNW,284,9.6,16.3,97,0.12,,---,0.35,VWS V14.01,2013-04-18 08:19:00,
2013-04-18 04:20:00,63.5,62.3,28.73,WSW,255,4.5,8.3,96,0.00,,---,0.00,VWS V14.01,2013-04-18 08:20:00,
2013-04-18 04:21:00,44.2,43.4,28.50,NW,310,7.4,15.4,97,0.08,,---,0.35,VWS V14.01,2013-04-18 08:21:00,
2013-04-18 04:22:00,44.2,43.4,28.50,NW,314,6.9,11.0,97,0.08,,---,0.35,VWS V14.01,2013-04-18 08:22:00,
2013-04-18 04:23:00,44.2,43.4,28.50,NW,304,10.5,10.5,97,0.08,,---,0.35,VWS V14.01,2013-04-18 08:23:00,
2013-04-18 04:24:00,44.2,43.4,28.50,WSW,256,5.8,15.2,97,0.08,,---,0.35,VWS V14.01,2013-04-18 08:24:00,
2013-04-18 04:25:00,63.9,62.1,28.73,SE,138,4.5,7.8,94,0.00,,---,0.00,VWS V14.01,2013-04-18 08:25:00,
2013-04-18 04:26:00,44.1,43.3,28.50,West,268,7.4,11.2,97,0.08,,---,0.35,VWS V14.01,2013-04-18 08:26:00,
2013-04-18 04:27:00,44.1,43.3,28.50,WNW,284,5.8,12.1,97,0.08,,---,0.35,VWS V14.01,2013-04-18 08:27:00,
2013-04-18 04:28:00,44.1,43.3,28.50,West,281,6.9,13.0,97,0.08,,---,0.35,VWS V14.01,2013-04-18 08:28:00,
2013-04-18 04:29:00,44.1,43.3,28.50,NW,312,9.2,13.4,97,0.08,,---,0.35,VWS V14.01,2013-04-18 08:29:00,
2013-04-18 04:30:00,64.0,61.4,28.73,SW,228,6.7,6.9,91,0.00,,---,0.00,VWS V14.01,2013-04-18 08:30:00,
2013-04-18 04:33:00,43.9,43.1,28.50,WNW,284,5.8,11.2,97,0.08,,---,0.35,VWS V14.01,2013-04-18 08:33:00,
2013-04-18 04:34:00,43.9,43.1,28.50,WSW,252,9.2,9.6,97,0.08,,---,0.35,VWS V14.01,2013-04-18 08:34:00,
2013-04-18 04:35:00,64.2,60.3,28.73,South,180,5.8,7.8,87,0.00,,---,0.00,VWS V14.01,2013-04-18 08:35:00,
2013-04-18 04:36:00,43.9,43.1,28.50,WNW,293,7.4,14.3,97,0.08,,---,0.35,VWS V14.01,2013-04-18 08:36:00,
2013-04-18 04:37:00,43.9,43.1,28.50,NW,305,7.4,11.2,97,0.08,,---,0.35,VWS V14.01,2013-04-18 08:37:00,
2013-04-18 04:38:00,43.7,42.9,28.50,WNW,286,6.9,13.9,97,0.08,,---,0.35,VWS V14.01,2013-04-18 08:38:00,
2013-04-18 04:39:00,43.7,42.9,28.50,WNW,292,11.0,12.5,97,0.08,,---,0.35,VWS V14.01,2013-04-18 08:39:00,
2013-04-18 04:40:00,43.7,42.9,28.50,WNW,288,5.8,13.4,97,0.04,,---,0.35,VWS V14.01,2013-04-18 08:40:00,
2013-04-18 04:41:00,64.2,59.0,28.73,SSW,212,0.0,7.4,83,0.00,,---,0.00,VWS V14.01,2013-04-18 08:41:00,
2013-04-18 04:42:00,43.7,42.9,28.50,WNW,292,15.4,19.5,97,0.04,,---,0.35,VWS V14.01,2013-04-18 08:42:00,
2013-04-18 04:43:00,43.5,42.7,28.50,WSW,252,6.9,15.4,97,0.04,,---,0.35,VWS V14.01,2013-04-18 08:43:00,
2013-04-18 04:44:00,43.5,42.7,28.50,NNW,333,11.6,13.9,97,0.04,,---,0.35,VWS V14.01,2013-04-18 08:44:00,
2013-04-18 04:45:00,43.5,42.7,28.50,WSW,255,7.4,13.9,97,0.04,,---,0.35,VWS V14.01,2013-04-18 08:45:00,
2013-04-18 04:46:00,43.5,42.7,28.50,NW,308,5.4,8.7,97,0.04,,---,0.35,VWS V14.01,2013-04-18 08:46:00,
2013-04-18 04:47:00,64.2,57.9,28.73,SW,218,4.9,7.8,80,0.00,,---,0.00,VWS V14.01,2013-04-18 08:47:00,
2013-04-18 04:48:00,43.7,42.9,28.50,WNW,300,12.1,16.8,97,0.04,,---,0.35,VWS V14.01,2013-04-18 08:48:00,
2013-04-18 04:49:00,43.5,42.7,28.50,West,280,4.0,12.5,97,0.04,,---,0.35,VWS V14.01,2013-04-18 08:49:00,
2013-04-18 04:50:00,43.7,42.9,28.50,WNW,303,7.4,7.4,97,0.04,,---,0.35,VWS V14.01,2013-04-18 08:50:00,
2013-04-18 04:51:00,43.7,42.9,28.50,WNW,295,7.4,12.1,97,0.04,,---,0.35,VWS V14.01,2013-04-18 08:51:00,
2013-04-18 04:52:00,64.2,57.9,28.73,SW,225,6.3,8.3,80,0.00,,---,0.00,VWS V14.01,2013-04-18 08:52:00,
2013-04-18 04:53:00,43.9,43.1,28.50,NNE,13,4.9,11.6,97,0.04,,---,0.35,VWS V14.01,2013-04-18 08:53:00,
2013-04-18 04:54:00,43.9,43.1,28.50,West,269,6.3,11.0,97,0.04,,---,0.35,VWS V14.01,2013-04-18 08:54:00,
2013-04-18 04:55:00,43.9,43.1,28.50,SW,221,4.5,8.3,97,0.04,,---,0.35,VWS V14.01,2013-04-18 08:55:00,
2013-04-18 04:56:00,43.9,43.1,28.50,West,263,4.9,11.2,97,0.04,,---,0.35,VWS V14.01,2013-04-18 08:56:00,
2013-04-18 04:57:00,64.2,57.6,28.73,SE,124,5.8,6.7,79,0.00,,---,0.00,VWS V14.01,2013-04-18 08:57:00,
2013-04-18 04:58:00,43.9,43.1,28.50,NNW,338,9.2,10.5,97,0.04,,---,0.35,VWS V14.01,2013-04-18 08:58:00,
2013-04-18 04:59:00,43.9,43.1,28.50,WNW,297,4.0,9.2,97,0.04,,---,0.35,VWS V14.01,2013-04-18 08:59:00,
2013-04-18 05:00:00,44.1,43.3,28.50,WSW,258,6.7,7.8,97,0.04,,---,0.35,VWS V14.01,2013-04-18 09:00:00,
2013-04-18 05:01:00,44.1,43.3,28.50,West,279,10.5,11.0,97,0.04,,---,0.35,VWS V14.01,2013-04-18 09:01:00,
2013-04-18 05:02:00,64.2,57.6,28.73,SSW,205,6.9,6.9,79,0.00,,---,0.00,VWS V14.01,2013-04-18 09:02:00,
2013-04-18 05:03:00,44.1,43.3,28.50,WNW,290,6.9,11.6,97,0.04,,---,0.35,VWS V14.01,2013-04-18 09:03:00,
2013-04-18 05:04:00,44.1,43.3,28.50,WNW,295,5.4,12.1,97,0.04,,---,0.35,VWS V14.01,2013-04-18 09:04:00,
2013-04-18 05:05:00,44.1,43.3,28.50,WNW,295,9.6,9.6,97,0.04,,---,0.35,VWS V14.01,2013-04-18 09:05:00,
2013-04-18 05:06:00,44.1,43.3,28.50,NW,320,3.6,9.6,97,0.04,,---,0.35,VWS V14.01,2013-04-18 09:06:00,
2013-04-18 05:07:00,44.2,43.4,28.50,NW,313,6.3,9.2,97,0.00,,---,0.35,VWS V14.01,2013-04-18 09:07:00,
2013-04-18 05:08:00,64.2,57.6,28.73,SSW,196,4.9,7.8,79,0.00,,---,0.00,VWS V14.01,2013-04-18 09:08:00,
2013-04-18 05:09:00,44.1,43.3,28.50,NNW,331,8.3,16.3,97,0.00,,---,0.35,VWS V14.01,2013-04-18 09:09:00,
2013-04-18 05:10:00,43.5,42.7,28.50,WNW,296,11.2,13.9,97,0.00,,---,0.35,VWS V14.01,2013-04-18 09:10:00,
2013-04-18 05:11:00,43.0,42.2,28.50,West,272,6.3,16.8,97,0.00,,---,0.35,VWS V14.01,2013-04-18 09:11:00,
2013-04-18 05:12:00,43.0,42.2,28.50,NW,315,5.4,12.1,97,0.00,,---,0.35,VWS V14.01,2013-04-18 09:12:00,
2013-04-18 05:13:00,42.8,42.0,28.50,North,3,9.2,10.5,97,0.00,,---,0.35,VWS V14.01,2013-04-18 09:13:00,
2013-04-18 05:14:00,64.2,57.6,28.73,SSW,205,5.4,6.9,79,0.00,,---,0.00,VWS V14.01,2013-04-18 09:14:00,
2013-04-18 05:15:00,42.6,41.8,28.50,NNW,330,8.3,13.0,97,0.00,,---,0.35,VWS V14.01,2013-04-18 09:15:00,
2013-04-18 05:16:00,42.6,41.8,28.50,West,275,5.8,10.5,97,0.00,,---,0.35,VWS V14.01,2013-04-18 09:16:00,
2013-04-18 05:17:00,42.6,41.8,28.50,NNW,331,4.9,11.0,97,0.00,,---,0.35,VWS V14.01,2013-04-18 09:17:00,
2013-04-18 05:18:00,42.8,42.0,28.50,NW,317,10.1,11.6,97,0.00,,---,0.35,VWS V14.01,2013-04-18 09:18:00,
2013-04-18 05:19:00,42.8,42.0,28.50,WNW,301,4.0,13.0,97,0.00,,---,0.35,VWS V14.01,2013-04-18 09:19:00,
2013-04-18 05:20:00,64.0,57.4,28.73,SSW,205,5.8,7.4,79,0.00,,---,0.00,VWS V14.01,2013-04-18 09:20:00,
2013-04-18 05:21:00,42.6,41.8,28.50,West,280,8.3,8.7,97,0.00,,---,0.35,VWS V14.01,2013-04-18 09:21:00,
2013-04-18 05:22:00,42.4,41.7,28.50,SW,234,8.3,13.0,97,0.00,,---,0.35,VWS V14.01,2013-04-18 09:22:00,
2013-04-18 05:23:00,42.4,41.7,28.50,WNW,286,9.2,11.6,97,0.00,,---,0.35,VWS V14.01,2013-04-18 09:23:00,
2013-04-18 05:24:00,42.3,41.5,28.50,WSW,246,10.5,15.4,97,0.00,,---,0.35,VWS V14.01,2013-04-18 09:24:00,
2013-04-18 05:25:00,42.1,41.3,28.50,WSW,257,11.6,12.1,97,0.00,,---,0.35,VWS V14.01,2013-04-18 09:25:00,
2013-04-18 05:26:00,64.0,57.8,28.73,SSW,205,3.6,9.2,80,0.00,,---,0.00,VWS V14.01,2013-04-18 09:26:00,
2013-04-18 05:27:00,42.1,41.3,28.50,NW,319,6.3,13.9,97,0.00,,---,0.35,VWS V14.01,2013-04-18 09:27:00,
2013-04-18 05:28:00,42.1,41.3,28.50,NW,305,7.4,9.2,97,0.00,,---,0.35,VWS V14.01,2013-04-18 09:28:00,
2013-04-18 05:29:00,42.1,41.3,28.50,West,276,8.7,14.3,97,0.00,,---,0.35,VWS V14.01,2013-04-18 09:29:00,
2013-04-18 05:30:00,42.1,41.3,28.50,WNW,300,10.1,11.0,97,0.00,,---,0.35,VWS V14.01,2013-04-18 09:30:00,
2013-04-18 05:31:00,63.9,57.6,28.73,SSW,209,4.5,6.9,80,0.00,,---,0.00,VWS V14.01,2013-04-18 09:31:00,
2013-04-18 05:33:00,42.1,41.3,28.50,NW,306,6.3,12.5,97,0.00,,---,0.35,VWS V14.01,2013-04-18 09:33:00,
2013-04-18 05:34:00,42.1,41.3,28.50,WNW,291,8.7,13.0,97,0.00,,---,0.35,VWS V14.01,2013-04-18 09:34:00,
2013-04-18 05:35:00,42.1,41.3,28.50,West,262,6.7,12.1,97,0.00,,---,0.35,VWS V14.01,2013-04-18 09:35:00,
2013-04-18 05:36:00,42.1,41.3,28.50,WNW,297,8.3,9.2,97,0.00,,---,0.35,VWS V14.01,2013-04-18 09:36:00,
2013-04-18 05:37:00,63.7,57.4,28.73,South,189,3.6,6.7,80,0.00,,---,0.00,VWS V14.01,2013-04-18 09:37:00,
2013-04-18 05:38:00,42.3,41.5,28.50,West,281,7.4,11.6,97,0.00,,---,0.35,VWS V14.01,2013-04-18 09:38:00,
2013-04-18 05:39:00,42.3,41.5,28.50,WNW,297,6.3,11.2,97,0.00,,---,0.35,VWS V14.01,2013-04-18 09:39:00,
2013-04-18 05:40:00,42.3,41.5,28.50,WNW,287,6.9,11.6,97,0.00,,---,0.35,VWS V14.01,2013-04-18 09:40:00,
2013-04-18 05:41:00,42.3,41.5,28.50,NNW,334,6.9,11.2,97,0.00,,---,0.35,VWS V14.01,2013-04-18 09:41:00,
2013-04-18 05:42:00,63.5,57.2,28.73,SSW,202,5.4,7.4,80,0.00,,---,0.00,VWS V14.01,2013-04-18 09:42:00,
2013-04-18 05:43:00,42.1,41.3,28.50,NW,304,6.9,12.1,97,0.00,,---,0.35,VWS V14.01,2013-04-18 09:43:00,
2013-04-18 05:44:00,42.1,41.3,28.50,West,273,6.7,11.0,97,0.00,,---,0.35,VWS V14.01,2013-04-18 09:44:00,
2013-04-18 05:45:00,42.3,41.5,28.50,NW,311,7.8,11.2,97,0.00,,---,0.35,VWS V14.01,2013-04-18 09:45:00,
2013-04-18 05:46:00,42.3,41.5,28.50,WNW,283,10.5,10.5,97,0.00,,---,0.35,VWS V14.01,2013-04-18 09:46:00,
2013-04-18 05:47:00,63.5,57.6,28.73,SSW,194,5.8,7.8,81,0.00,,---,0.00,VWS V14.01,2013-04-18 09:47:00,
2013-04-18 05:48:00,42.1,41.3,28.50,West,269,4.9,9.2,97,0.00,,---,0.35,VWS V14.01,2013-04-18 09:48:00,
2013-04-18 05:49:00,42.3,41.5,28.50,NW,305,5.4,10.1,97,0.00,,---,0.35,VWS V14.01,2013-04-18 09:49:00,
2013-04-18 05:50:00,42.1,41.3,28.50,NW,309,6.7,15.9,97,0.00,,---,0.35,VWS V14.01,2013-04-18 09:50:00,
2013-04-18 05:51:00,42.1,41.3,28.50,WNW,292,5.8,8.3,97,0.00,,---,0.35,VWS V14.01,2013-04-18 09:51:00,
2013-04-18 05:52:00,63.5,57.6,28.73,SW,221,6.7,6.7,81,0.00,,---,0.00,VWS V14.01,2013-04-18 09:52:00,
2013-04-18 05:53:00,42.1,41.3,28.50,WSW,253,8.7,8.7,97,0.00,,---,0.35,VWS V14.01,2013-04-18 09:53:00,
2013-04-18 05:54:00,42.1,41.3,28.50,West,277,9.2,10.5,97,0.00,,---,0.35,VWS V14.01,2013-04-18 09:54:00,
2013-04-18 05:55:00,42.1,41.3,28.50,West,269,9.2,10.5,97,0.00,,---,0.35,VWS V14.01,2013-04-18 09:55:00,
2013-04-18 05:56:00,42.1,41.3,28.50,West,272,10.5,13.4,97,0.00,,---,0.35,VWS V14.01,2013-04-18 09:56:00,
2013-04-18 05:57:00,42.1,41.3,28.50,WSW,241,12.5,13.9,97,0.00,,---,0.35,VWS V14.01,2013-04-18 09:57:00,
2013-04-18 05:58:00,42.1,41.3,28.50,NNW,331,13.0,17.7,97,0.00,,---,0.35,VWS V14.01,2013-04-18 09:58:00,
2013-04-18 05:59:00,41.9,41.1,28.50,West,280,6.3,13.0,97,0.00,,---,0.35,VWS V14.01,2013-04-18 09:59:00,
2013-04-18 06:00:00,41.9,41.1,28.50,WNW,294,9.6,12.5,97,0.00,,---,0.35,VWS V14.01,2013-04-18 10:00:00,
2013-04-18 06:01:00,41.9,41.1,28.50,WSW,243,11.0,13.9,97,0.00,,---,0.35,VWS V14.01,2013-04-18 10:01:00,
2013-04-18 06:02:00,41.7,40.9,28.50,NW,311,8.7,12.5,97,0.00,,---,0.35,VWS V14.01,2013-04-18 10:02:00,
2013-04-18 06:03:00,41.9,41.1,28.50,NW,309,5.4,11.0,97,0.00,,---,0.35,VWS V14.01,2013-04-18 10:03:00,
2013-04-18 06:04:00,41.9,41.1,28.50,WNW,293,3.6,9.6,97,0.00,,---,0.35,VWS V14.01,2013-04-18 10:04:00,
2013-04-18 06:05:00,41.9,41.1,28.50,NW,306,10.5,12.5,97,0.00,,---,0.35,VWS V14.01,2013-04-18 10:05:00,
2013-04-18 06:06:00,41.9,41.1,28.50,SW,230,7.8,13.9,97,0.00,,---,0.35,VWS V14.01,2013-04-18 10:06:00,
2013-04-18 06:07:00,41.9,41.1,28.50,NNW,334,4.9,8.7,97,0.00,,---,0.35,VWS V14.01,2013-04-18 10:07:00,
2013-04-18 06:08:00,42.1,41.3,28.50,West,271,5.4,11.2,97,0.00,,---,0.35,VWS V14.01,2013-04-18 10:08:00,
2013-04-18 06:09:00,41.9,41.1,28.50,WSW,242,8.7,14.8,97,0.00,,---,0.35,VWS V14.01,2013-04-18 10:09:00,
2013-04-18 06:10:00,41.9,41.1,28.50,WNW,294,7.4,10.5,97,0.00,,---,0.35,VWS V14.01,2013-04-18 10:10:00,
2013-04-18 06:11:00,41.9,41.1,28.50,NW,314,7.4,14.3,97,0.00,,---,0.35,VWS V14.01,2013-04-18 10:11:00,
2013-04-18 06:12:00,41.7,40.9,28.50,West,278,17.2,17.2,97,0.00,,---,0.35,VWS V14.01,2013-04-18 10:12:00,
2013-04-18 06:13:00,41.5,40.8,28.50,NW,312,11.0,17.2,97,0.00,,---,0.35,VWS V14.01,2013-04-18 10:13:00,
2013-04-18 06:14:00,41.4,40.6,28.50,WNW,302,10.5,12.1,97,0.00,,---,0.35,VWS V14.01,2013-04-18 10:14:00,
2013-04-18 06:15:00,41.4,40.6,28.50,WNW,302,12.1,17.2,97,0.00,,---,0.35,VWS V14.01,2013-04-18 10:15:00,
2013-04-18 06:16:00,64.4,58.1,28.73,SSW,199,5.8,6.7,80,0.00,,---,0.00,VWS V14.01,2013-04-18 10:16:00,
2013-04-18 06:17:00,41.0,40.2,28.50,NNW,338,10.5,11.6,97,0.00,,---,0.35,VWS V14.01,2013-04-18 10:17:00,
2013-04-18 06:18:00,41.0,40.2,28.50,NW,304,9.2,19.5,97,0.00,,---,0.35,VWS V14.01,2013-04-18 10:18:00,
2013-04-18 06:19:00,40.8,40.0,28.50,NW,324,10.5,14.8,97,0.00,,---,0.35,VWS V14.01,2013-04-18 10:19:00,
2013-04-18 06:20:00,40.6,39.9,28.50,WNW,293,6.9,18.6,97,0.00,,---,0.35,VWS V14.01,2013-04-18 10:20:00,
2013-04-18 06:21:00,40.5,39.7,28.50,NNW,343,6.3,13.0,97,0.00,,---,0.35,VWS V14.01,2013-04-18 10:21:00,
2013-04-18 06:22:00,40.5,39.7,28.50,West,274,7.8,13.4,97,0.00,,---,0.35,VWS V14.01,2013-04-18 10:22:00,
2013-04-18 06:23:00,40.5,39.7,28.50,NW,309,11.0,15.9,97,0.00,,---,0.35,VWS V14.01,2013-04-18 10:23:00,
2013-04-18 06:24:00,40.5,39.7,28.50,WNW,290,10.5,12.1,97,0.00,,---,0.35,VWS V14.01,2013-04-18 10:24:00,
2013-04-18 06:25:00,64.9,58.3,28.73,SSW,206,5.8,9.2,79,0.00,,---,0.00,VWS V14.01,2013-04-18 10:25:00,
2013-04-18 06:26:00,40.3,39.5,28.50,WSW,254,13.9,13.9,97,0.00,,---,0.35,VWS V14.01,2013-04-18 10:26:00,
2013-04-18 06:27:00,40.3,39.5,28.53,NW,306,5.4,14.3,97,0.00,,---,0.35,VWS V14.01,2013-04-18 10:27:00,
2013-04-18 06:28:00,40.3,39.5,28.53,West,271,10.5,13.4,97,0.00,,---,0.35,VWS V14.01,2013-04-18 10:28:00,
2013-04-18 06:29:00,40.3,39.5,28.53,West,264,6.9,14.3,97,0.00,,---,0.35,VWS V14.01,2013-04-18 10:29:00,
2013-04-18 06:30:00,40.3,39.5,28.53,West,268,5.4,8.3,97,0.00,,---,0.35,VWS V14.01,2013-04-18 10:30:00,
2013-04-18 06:31:00,40.3,39.5,28.53,WNW,303,7.4,17.2,97,0.00,,---,0.35,VWS V14.01,2013-04-18 10:31:00,
2013-04-18 06:32:00,40.3,39.5,28.53,West,281,13.0,13.4,97,0.00,,---,0.35,VWS V14.01,2013-04-18 10:32:00,
2013-04-18 06:33:00,40.3,39.5,28.53,WNW,287,8.7,13.4,97,0.00,,---,0.35,VWS V14.01,2013-04-18 10:33:00,
2013-04-18 06:34:00,40.3,39.5,28.53,West,267,13.0,13.0,97,0.00,,---,0.35,VWS V14.01,2013-04-18 10:34:00,
2013-04-18 06:35:00,40.1,39.3,28.53,WNW,297,9.6,13.0,97,0.00,,---,0.35,VWS V14.01,2013-04-18 10:35:00,
2013-04-18 06:36:00,39.9,39.1,28.53,NW,318,7.4,11.2,97,0.00,,---,0.35,VWS V14.01,2013-04-18 10:36:00,
2013-04-18 06:37:00,39.9,39.1,28.53,NW,318,9.6,13.0,97,0.00,,---,0.35,VWS V14.01,2013-04-18 10:37:00,
2013-04-18 06:38:00,39.9,39.1,28.53,West,267,6.3,13.4,97,0.00,,---,0.35,VWS V14.01,2013-04-18 10:38:00,
2013-04-18 06:39:00,39.7,39.0,28.53,West,263,10.1,16.8,97,0.00,,---,0.35,VWS V14.01,2013-04-18 10:39:00,
2013-04-18 06:40:00,39.7,39.0,28.53,NNW,344,6.3,19.5,97,0.00,,---,0.35,VWS V14.01,2013-04-18 10:40:00,
2013-04-18 06:41:00,39.7,38.7,28.53,NW,320,14.8,15.9,96,0.00,,---,0.35,VWS V14.01,2013-04-18 10:41:00,
2013-04-18 06:42:00,39.7,38.7,28.53,NW,313,9.6,14.8,96,0.00,,---,0.35,VWS V14.01,2013-04-18 10:42:00,
2013-04-18 06:43:00,39.7,38.4,28.53,WNW,298,8.7,11.6,95,0.00,,---,0.35,VWS V14.01,2013-04-18 10:43:00,
2013-04-18 06:44:00,39.6,38.2,28.53,WSW,245,14.8,17.7,95,0.00,,---,0.35,VWS V14.01,2013-04-18 10:44:00,
2013-04-18 06:45:00,39.4,37.8,28.53,WNW,300,10.5,15.4,94,0.00,,---,0.35,VWS V14.01,2013-04-18 10:45:00,
2013-04-18 06:46:00,39.4,37.8,28.53,WSW,249,9.6,13.4,94,0.00,,---,0.35,VWS V14.01,2013-04-18 10:46:00,
2013-04-18 06:47:00,64.8,57.4,28.70,South,183,4.5,12.5,77,0.00,,---,0.00,VWS V14.01,2013-04-18 10:47:00,
2013-04-18 06:48:00,39.6,37.4,28.53,WNW,301,12.5,17.7,92,0.00,,---,0.35,VWS V14.01,2013-04-18 10:48:00,
2013-04-18 06:49:00,39.6,37.4,28.53,WSW,257,7.4,12.5,92,0.00,,---,0.35,VWS V14.01,2013-04-18 10:49:00,
2013-04-18 06:50:00,39.7,37.3,28.53,SW,233,6.9,10.1,91,0.00,,---,0.35,VWS V14.01,2013-04-18 10:50:00,
2013-04-18 06:51:00,39.7,37.3,28.53,NW,313,13.9,13.9,91,0.00,,---,0.35,VWS V14.01,2013-04-18 10:51:00,
2013-04-18 06:52:00,39.7,37.3,28.53,NW,308,11.0,13.9,91,0.00,,---,0.35,VWS V14.01,2013-04-18 10:52:00,
2013-04-18 06:53:00,39.7,37.0,28.53,West,276,10.1,12.5,90,0.00,,---,0.35,VWS V14.01,2013-04-18 10:53:00,
2013-04-18 06:54:00,39.6,36.6,28.53,WSW,250,15.2,21.5,89,0.00,,---,0.35,VWS V14.01,2013-04-18 10:54:00,
2013-04-18 06:55:00,39.6,36.3,28.53,WSW,246,14.3,15.2,88,0.00,,---,0.35,VWS V14.01,2013-04-18 10:55:00,
2013-04-18 06:56:00,39.7,36.2,28.53,WSW,255,7.4,14.3,87,0.00,,---,0.35,VWS V14.01,2013-04-18 10:56:00,
2013-04-18 06:57:00,39.6,35.7,28.53,SW,229,13.4,14.3,86,0.00,,---,0.35,VWS V14.01,2013-04-18 10:57:00,
2013-04-18 06:58:00,39.6,35.4,28.53,West,271,10.5,13.4,85,0.00,,---,0.35,VWS V14.01,2013-04-18 10:58:00,
2013-04-18 06:59:00,39.4,35.0,28.53,WNW,293,7.8,12.5,84,0.00,,---,0.35,VWS V14.01,2013-04-18 10:59:00,
2013-04-18 07:00:00,39.4,34.7,28.53,West,266,15.4,15.9,83,0.00,,---,0.35,VWS V14.01,2013-04-18 11:00:00,
2013-04-18 07:01:00,39.2,33.9,28.53,WNW,288,11.6,15.4,81,0.00,,---,0.35,VWS V14.01,2013-04-18 11:01:00,
2013-04-18 07:02:00,64.6,57.6,28.70,SSW,208,6.3,10.5,78,0.00,,---,0.00,VWS V14.01,2013-04-18 11:02:00,
2013-04-18 07:03:00,39.0,32.4,28.53,WNW,286,12.1,17.2,77,0.00,,---,0.35,VWS V14.01,2013-04-18 11:03:00,
2013-04-18 07:04:00,38.8,31.6,28.53,WNW,285,11.2,18.1,75,0.00,,---,0.35,VWS V14.01,2013-04-18 11:04:00,
2013-04-18 07:05:00,38.8,31.3,28.53,West,261,14.3,16.3,74,0.00,,---,0.35,VWS V14.01,2013-04-18 11:05:00,
2013-04-18 07:06:00,38.8,30.9,28.53,West,269,10.5,19.9,73,0.00,,---,0.35,VWS V14.01,2013-04-18 11:06:00,
2013-04-18 07:07:00,64.6,57.9,28.70,South,174,5.8,7.8,79,0.00,,---,0.00,VWS V14.01,2013-04-18 11:07:00,
2013-04-18 07:08:00,38.8,30.6,28.53,NW,310,13.9,14.8,72,0.00,,---,0.35,VWS V14.01,2013-04-18 11:08:00,
2013-04-18 07:09:00,38.8,30.6,28.53,NW,312,12.5,15.2,72,0.00,,---,0.35,VWS V14.01,2013-04-18 11:09:00,
2013-04-18 07:10:00,38.7,30.1,28.53,WNW,299,11.6,19.0,71,0.00,,---,0.35,VWS V14.01,2013-04-18 11:10:00,
2013-04-18 07:11:00,38.7,30.4,28.53,NW,321,7.8,17.2,72,0.00,,---,0.35,VWS V14.01,2013-04-18 11:11:00,
2013-04-18 07:12:00,38.7,30.4,28.53,NW,321,11.0,12.1,72,0.00,,---,0.35,VWS V14.01,2013-04-18 11:12:00,
2013-04-18 07:13:00,38.7,30.4,28.53,WNW,283,9.2,13.9,72,0.00,,---,0.35,VWS V14.01,2013-04-18 11:13:00,
2013-04-18 07:14:00,64.6,57.9,28.73,SSE,156,5.8,7.4,79,0.00,,---,0.00,VWS V14.01,2013-04-18 11:14:00,
2013-04-18 07:15:00,38.7,30.1,28.53,NW,314,11.2,12.5,71,0.00,,---,0.35,VWS V14.01,2013-04-18 11:15:00,
2013-04-18 07:16:00,38.7,29.7,28.53,NW,313,12.5,17.7,70,0.00,,---,0.35,VWS V14.01,2013-04-18 11:16:00,
2013-04-18 07:17:00,38.7,29.7,28.53,WNW,286,13.9,17.2,70,0.00,,---,0.35,VWS V14.01,2013-04-18 11:17:00,
2013-04-18 07:18:00,38.7,29.7,28.53,NNW,333,9.6,19.9,70,0.00,,---,0.35,VWS V14.01,2013-04-18 11:18:00,
2013-04-18 07:19:00,64.8,58.1,28.73,SW,223,6.9,11.6,79,0.00,,---,0.00,VWS V14.01,2013-04-18 11:19:00,
2013-04-18 07:20:00,38.7,29.7,28.53,West,264,10.1,17.2,70,0.00,,---,0.35,VWS V14.01,2013-04-18 11:20:00,
2013-04-18 07:21:00,38.7,29.7,28.53,WSW,252,8.3,14.3,70,0.00,,---,0.35,VWS V14.01,2013-04-18 11:21:00,
2013-04-18 07:22:00,38.7,29.7,28.53,WNW,288,14.8,17.2,70,0.00,,---,0.35,VWS V14.01,2013-04-18 11:22:00,
2013-04-18 07:23:00,38.7,29.7,28.53,SW,231,10.5,15.9,70,0.00,,---,0.35,VWS V14.01,2013-04-18 11:23:00,
2013-04-18 07:24:00,64.9,58.3,28.73,WNW,290,5.4,9.6,79,0.00,,---,0.00,VWS V14.01,2013-04-18 11:24:00,
2013-04-18 07:25:00,38.7,29.7,28.53,NW,310,8.3,15.4,70,0.00,,---,0.35,VWS V14.01,2013-04-18 11:25:00,
2013-04-18 07:26:00,38.7,29.7,28.53,West,280,8.3,15.4,70,0.00,,---,0.35,VWS V14.01,2013-04-18 11:26:00,
2013-04-18 07:27:00,38.7,29.7,28.56,NW,322,9.6,13.0,70,0.00,,---,0.35,VWS V14.01,2013-04-18 11:27:00,
2013-04-18 07:28:00,38.7,29.7,28.56,West,279,7.8,12.1,70,0.00,,---,0.35,VWS V14.01,2013-04-18 11:28:00,
2013-04-18 07:29:00,64.9,57.9,28.70,South,179,8.7,13.9,78,0.00,,---,0.00,VWS V14.01,2013-04-18 11:29:00,
2013-04-18 07:30:00,38.7,30.1,28.56,WSW,245,12.5,12.5,71,0.00,,---,0.35,VWS V14.01,2013-04-18 11:30:00,
2013-04-18 07:31:00,38.7,30.1,28.56,WNW,293,17.7,21.5,71,0.00,,---,0.35,VWS V14.01,2013-04-18 11:31:00,
2013-04-18 07:32:00,38.7,30.1,28.56,WSW,247,8.3,17.7,71,0.00,,---,0.35,VWS V14.01,2013-04-18 11:32:00,
2013-04-18 07:33:00,38.7,30.1,28.56,NW,319,11.2,14.3,71,0.00,,---,0.35,VWS V14.01,2013-04-18 11:33:00,
2013-04-18 07:34:00,65.1,58.1,28.70,SW,232,5.4,9.2,78,0.00,,---,0.00,VWS V14.01,2013-04-18 11:34:00,
2013-04-18 07:35:00,38.7,30.1,28.56,WNW,290,12.5,15.9,71,0.00,,---,0.35,VWS V14.01,2013-04-18 11:35:00,
2013-04-18 07:36:00,38.7,30.1,28.56,WNW,286,8.3,15.4,71,0.00,,---,0.35,VWS V14.01,2013-04-18 11:36:00,
2013-04-18 07:37:00,38.8,30.2,28.56,WNW,286,6.9,9.2,71,0.00,,---,0.35,VWS V14.01,2013-04-18 11:37:00,
2013-04-18 07:38:00,38.7,30.4,28.56,NW,317,13.0,15.4,72,0.00,,---,0.35,VWS V14.01,2013-04-18 11:38:00,
2013-04-18 07:39:00,65.1,58.1,28.70,South,191,3.1,13.0,78,0.00,,---,0.00,VWS V14.01,2013-04-18 11:39:00,
2013-04-18 07:40:00,38.7,29.7,28.56,West,269,9.6,19.5,70,0.00,,---,0.35,VWS V14.01,2013-04-18 11:40:00,
2013-04-18 07:41:00,38.7,29.7,28.56,NW,315,5.8,11.2,70,0.00,,---,0.35,VWS V14.01,2013-04-18 11:41:00,
2013-04-18 07:42:00,38.7,30.1,28.56,NW,310,8.7,11.2,71,0.00,,---,0.35,VWS V14.01,2013-04-18 11:42:00,
2013-04-18 07:43:00,38.7,29.7,28.56,WNW,303,6.7,15.9,70,0.00,,---,0.35,VWS V14.01,2013-04-18 11:43:00,
2013-04-18 07:44:00,65.3,58.3,28.70,WSW,257,6.9,11.6,78,0.00,,---,0.00,VWS V14.01,2013-04-18 11:44:00,
2013-04-18 07:45:00,38.7,30.1,28.56,West,275,10.1,15.4,71,0.00,,---,0.35,VWS V14.01,2013-04-18 11:45:00,
2013-04-18 07:46:00,38.7,30.1,28.56,West,265,11.2,19.0,71,0.00,,---,0.35,VWS V14.01,2013-04-18 11:46:00,
2013-04-18 07:47:00,38.7,30.1,28.56,WSW,248,13.0,15.2,71,0.00,,---,0.35,VWS V14.01,2013-04-18 11:47:00,
2013-04-18 07:48:00,38.7,30.1,28.56,SW,230,14.3,18.1,71,0.00,,---,0.35,VWS V14.01,2013-04-18 11:48:00,
2013-04-18 07:49:00,65.5,58.5,28.70,SW,232,6.3,9.6,78,0.00,,---,0.00,VWS V14.01,2013-04-18 11:49:00,
2013-04-18 07:50:00,38.7,29.7,28.56,WSW,238,6.7,16.8,70,0.00,,---,0.35,VWS V14.01,2013-04-18 11:50:00,
2013-04-18 07:51:00,38.5,28.9,28.56,West,277,14.8,21.5,68,0.00,,---,0.35,VWS V14.01,2013-04-18 11:51:00,
2013-04-18 07:52:00,38.5,28.9,28.56,NW,320,13.9,19.0,68,0.00,,---,0.35,VWS V14.01,2013-04-18 11:52:00,
2013-04-18 07:53:00,38.3,28.7,28.56,WNW,292,14.8,17.2,68,0.00,,---,0.35,VWS V14.01,2013-04-18 11:53:00,
2013-04-18 07:54:00,65.7,58.3,28.70,WSW,251,8.3,8.3,77,0.00,,---,0.00,VWS V14.01,2013-04-18 11:54:00,
2013-04-18 07:55:00,38.5,28.9,28.56,WNW,294,10.5,12.1,68,0.00,,---,0.35,VWS V14.01,2013-04-18 11:55:00,
2013-04-18 07:56:00,38.5,28.9,28.56,West,278,9.2,13.0,68,0.00,,---,0.35,VWS V14.01,2013-04-18 11:56:00,
2013-04-18 07:57:00,38.5,28.9,28.56,West,265,11.2,13.0,68,0.00,,---,0.35,VWS V14.01,2013-04-18 11:57:00,
2013-04-18 07:58:00,38.5,28.9,28.56,West,273,9.6,15.2,68,0.00,,---,0.35,VWS V14.01,2013-04-18 11:58:00,
2013-04-18 07:59:00,66.0,58.6,28.73,SW,229,5.4,7.8,77,0.00,,---,0.00,VWS V14.01,2013-04-18 11:59:00,
2013-04-18 08:00:00,38.3,28.3,28.56,North,351,11.0,21.0,67,0.00,,---,0.35,VWS V14.01,2013-04-18 12:00:00,
2013-04-18 08:01:00,38.3,28.0,28.56,WNW,284,12.1,15.4,66,0.00,,---,0.35,VWS V14.01,2013-04-18 12:01:00,
2013-04-18 08:02:00,38.1,27.4,28.56,West,262,12.1,15.2,65,0.00,,---,0.35,VWS V14.01,2013-04-18 12:02:00,
2013-04-18 08:03:00,38.1,27.4,28.56,WNW,287,8.7,13.9,65,0.00,,---,0.35,VWS V14.01,2013-04-18 12:03:00,
2013-04-18 08:04:00,38.3,27.6,28.56,WSW,252,7.4,9.6,65,0.00,,---,0.35,VWS V14.01,2013-04-18 12:04:00,
2013-04-18 08:05:00,38.1,27.8,28.56,SW,234,11.2,15.2,66,0.00,,---,0.35,VWS V14.01,2013-04-18 12:05:00,
2013-04-18 08:06:00,38.1,27.8,28.56,WSW,247,10.5,15.4,66,0.00,,---,0.35,VWS V14.01,2013-04-18 12:06:00,
2013-04-18 08:07:00,38.1,27.8,28.56,NW,309,14.3,20.1,66,0.00,,---,0.35,VWS V14.01,2013-04-18 12:07:00,
2013-04-18 08:08:00,38.1,27.4,28.56,WSW,248,8.3,14.3,65,0.00,,---,0.35,VWS V14.01,2013-04-18 12:08:00,
2013-04-18 08:09:00,69.3,58.7,28.73,SW,232,6.7,10.5,69,0.00,,---,0.00,VWS V14.01,2013-04-18 12:09:00,
2013-04-18 08:10:00,38.1,27.8,28.56,NW,319,7.8,14.3,66,0.00,,---,0.35,VWS V14.01,2013-04-18 12:10:00,
2013-04-18 08:11:00,38.1,27.8,28.56,West,266,4.9,14.3,66,0.00,,---,0.35,VWS V14.01,2013-04-18 12:11:00,
2013-04-18 08:12:00,38.1,27.8,28.58,SW,223,12.5,19.0,66,0.00,,---,0.35,VWS V14.01,2013-04-18 12:12:00,
2013-04-18 08:13:00,37.9,26.9,28.58,WNW,297,13.4,17.2,64,0.00,,---,0.35,VWS V14.01,2013-04-18 12:13:00,
2013-04-18 08:14:00,38.1,27.0,28.58,WNW,285,11.6,14.3,64,0.00,,---,0.35,VWS V14.01,2013-04-18 12:14:00,
2013-04-18 08:15:00,68.4,57.4,28.70,SSW,194,6.7,11.2,68,0.00,,---,0.00,VWS V14.01,2013-04-18 12:15:00,
2013-04-18 08:16:00,37.9,26.5,28.58,WSW,246,9.6,16.8,63,0.00,,---,0.35,VWS V14.01,2013-04-18 12:16:00,
2013-04-18 08:17:00,37.9,26.5,28.58,NW,312,11.2,21.0,63,0.00,,---,0.35,VWS V14.01,2013-04-18 12:17:00,
2013-04-18 08:18:00,37.9,26.1,28.58,NW,305,16.3,18.6,62,0.00,,---,0.35,VWS V14.01,2013-04-18 12:18:00,
2013-04-18 08:19:00,37.9,26.1,28.58,WNW,286,6.3,18.6,62,0.00,,---,0.35,VWS V14.01,2013-04-18 12:19:00,
2013-04-18 08:20:00,67.8,57.3,28.70,SSW,194,6.7,7.8,69,0.00,,---,0.00,VWS V14.01,2013-04-18 12:20:00,
2013-04-18 08:21:00,37.9,26.1,28.58,NW,306,13.0,18.1,62,0.00,,---,0.35,VWS V14.01,2013-04-18 12:21:00,
2013-04-18 08:22:00,37.9,25.7,28.58,NW,315,13.0,15.4,61,0.00,,---,0.35,VWS V14.01,2013-04-18 12:22:00,
2013-04-18 08:23:00,37.9,25.7,28.58,WSW,257,17.7,22.4,61,0.00,,---,0.35,VWS V14.01,2013-04-18 12:23:00,
2013-04-18 08:24:00,37.9,25.3,28.58,West,270,14.3,17.7,60,0.00,,---,0.35,VWS V14.01,2013-04-18 12:24:00,
2013-04-18 08:25:00,67.6,57.5,28.70,SW,218,6.3,15.9,70,0.00,,---,0.00,VWS V14.01,2013-04-18 12:25:00,
2013-04-18 08:26:00,37.9,26.1,28.58,WNW,298,16.8,22.8,62,0.00,,---,0.35,VWS V14.01,2013-04-18 12:26:00,
2013-04-18 08:27:00,37.8,25.5,28.58,NW,308,12.5,19.9,61,0.00,,---,0.35,VWS V14.01,2013-04-18 12:27:00,
2013-04-18 08:28:00,37.8,25.5,28.58,WNW,294,11.6,19.0,61,0.00,,---,0.35,VWS V14.01,2013-04-18 12:28:00,
2013-04-18 08:29:00,37.9,25.7,28.58,WSW,256,11.6,17.2,61,0.00,,---,0.35,VWS V14.01,2013-04-18 12:29:00,
2013-04-18 08:30:00,67.8,58.1,28.70,SSW,197,7.4,10.1,71,0.00,,---,0.00,VWS V14.01,2013-04-18 12:30:00,
2013-04-18 08:31:00,37.8,26.3,28.58,WNW,298,14.3,16.8,63,0.00,,---,0.35,VWS V14.01,2013-04-18 12:31:00,
2013-04-18 08:32:00,37.8,25.9,28.58,WNW,284,10.1,15.2,62,0.00,,---,0.35,VWS V14.01,2013-04-18 12:32:00,
2013-04-18 08:33:00,37.8,25.9,28.58,NW,309,7.4,12.5,62,0.00,,---,0.35,VWS V14.01,2013-04-18 12:33:00,
2013-04-18 08:34:00,37.9,26.5,28.58,NW,308,12.1,15.4,63,0.00,,---,0.35,VWS V14.01,2013-04-18 12:34:00,
2013-04-18 08:35:00,68.0,58.3,28.70,South,179,5.8,10.1,71,0.00,,---,0.00,VWS V14.01,2013-04-18 12:35:00,
2013-04-18 08:36:00,37.9,26.9,28.58,WSW,254,11.2,12.1,64,0.00,,---,0.35,VWS V14.01,2013-04-18 12:36:00,
2013-04-18 08:37:00,37.9,26.9,28.58,WNW,286,6.3,11.2,64,0.00,,---,0.35,VWS V14.01,2013-04-18 12:37:00,
2013-04-18 08:38:00,37.9,27.2,28.58,WSW,253,13.9,14.8,65,0.00,,---,0.35,VWS V14.01,2013-04-18 12:38:00,
2013-04-18 08:39:00,37.9,26.9,28.58,NNW,345,8.3,19.9,64,0.00,,---,0.35,VWS V14.01,2013-04-18 12:39:00,
2013-04-18 08:40:00,68.4,58.6,28.70,SW,226,11.2,15.2,71,0.00,,---,0.00,VWS V14.01,2013-04-18 12:40:00,
2013-04-18 08:41:00,37.8,26.7,28.58,WNW,297,8.3,16.8,64,0.00,,---,0.35,VWS V14.01,2013-04-18 12:41:00,
2013-04-18 08:42:00,37.9,26.9,28.58,WNW,289,15.2,15.2,64,0.00,,---,0.35,VWS V14.01,2013-04-18 12:42:00,
2013-04-18 08:43:00,37.9,26.9,28.58,NW,304,13.4,15.2,64,0.00,,---,0.35,VWS V14.01,2013-04-18 12:43:00,
2013-04-18 08:44:00,37.9,26.9,28.58,West,277,12.5,15.2,64,0.00,,---,0.35,VWS V14.01,2013-04-18 12:44:00,
2013-04-18 08:45:00,68.7,58.5,28.70,SW,214,7.4,12.5,70,0.00,,---,0.00,VWS V14.01,2013-04-18 12:45:00,
2013-04-18 08:46:00,37.9,26.9,28.58,West,274,7.4,13.4,64,0.00,,---,0.35,VWS V14.01,2013-04-18 12:46:00,
2013-04-18 08:47:00,37.9,26.9,28.58,West,280,11.6,15.4,64,0.00,,---,0.35,VWS V14.01,2013-04-18 12:47:00,
2013-04-18 08:48:00,37.9,26.9,28.58,WNW,287,19.0,19.0,64,0.00,,---,0.35,VWS V14.01,2013-04-18 12:48:00,
2013-04-18 08:49:00,37.9,26.5,28.58,West,281,13.4,19.0,63,0.00,,---,0.35,VWS V14.01,2013-04-18 12:49:00,
2013-04-18 08:50:00,69.3,59.1,28.70,SSW,209,5.8,7.8,70,0.00,,---,0.00,VWS V14.01,2013-04-18 12:50:00,
2013-04-18 08:51:00,37.9,26.5,28.58,NW,313,11.2,13.0,63,0.00,,---,0.35,VWS V14.01,2013-04-18 12:51:00,
2013-04-18 08:52:00,37.9,26.1,28.58,WNW,290,9.6,14.3,62,0.00,,---,0.35,VWS V14.01,2013-04-18 12:52:00,
2013-04-18 08:53:00,37.9,26.1,28.58,WNW,303,13.9,14.8,62,0.00,,---,0.35,VWS V14.01,2013-04-18 12:53:00,
2013-04-18 08:54:00,37.9,25.7,28.58,WSW,244,6.7,19.0,61,0.00,,---,0.35,VWS V14.01,2013-04-18 12:54:00,
2013-04-18 08:55:00,69.6,58.6,28.70,SSE,156,9.6,12.5,68,0.00,,---,0.00,VWS V14.01,2013-04-18 12:55:00,
2013-04-18 08:56:00,37.9,25.7,28.58,West,269,12.5,19.0,61,0.00,,---,0.35,VWS V14.01,2013-04-18 12:56:00,
2013-04-18 08:57:00,37.9,25.7,28.58,WNW,291,4.9,20.1,61,0.00,,---,0.35,VWS V14.01,2013-04-18 12:57:00,
2013-04-18 08:58:00,37.9,25.7,28.58,West,269,13.9,14.3,61,0.00,,---,0.35,VWS V14.01,2013-04-18 12:58:00,
2013-04-18 08:59:00,37.9,25.7,28.58,WSW,253,10.1,16.8,61,0.00,,---,0.35,VWS V14.01,2013-04-18 12:59:00,
2013-04-18 09:00:00,70.0,58.5,28.70,WSW,252,4.5,11.6,67,0.00,,---,0.00,VWS V14.01,2013-04-18 13:00:00,
2013-04-18 09:01:00,37.9,25.7,28.58,WNW,290,10.5,16.8,61,0.00,,---,0.35,VWS V14.01,2013-04-18 13:01:00,
2013-04-18 09:02:00,37.9,25.7,28.58,WSW,239,6.9,14.8,61,0.00,,---,0.35,VWS V14.01,2013-04-18 13:02:00,
2013-04-18 09:03:00,38.1,26.6,28.58,West,271,15.4,15.4,63,0.00,,---,0.35,VWS V14.01,2013-04-18 13:03:00,
2013-04-18 09:04:00,37.9,26.1,28.58,West,259,11.2,15.4,62,0.00,,---,0.35,VWS V14.01,2013-04-18 13:04:00,
2013-04-18 09:05:00,70.3,58.5,28.70,NE,47,6.3,14.3,66,0.00,,---,0.00,VWS V14.01,2013-04-18 13:05:00,
2013-04-18 09:06:00,38.1,26.3,28.58,West,278,5.8,12.1,62,0.00,,---,0.35,VWS V14.01,2013-04-18 13:06:00,
2013-04-18 09:07:00,37.9,26.1,28.58,WNW,287,15.2,19.9,62,0.00,,---,0.35,VWS V14.01,2013-04-18 13:07:00,
2013-04-18 09:08:00,37.9,26.1,28.58,WSW,254,12.5,19.0,62,0.00,,---,0.35,VWS V14.01,2013-04-18 13:08:00,
2013-04-18 09:09:00,37.9,25.7,28.58,West,265,15.4,15.4,61,0.00,,---,0.35,VWS V14.01,2013-04-18 13:09:00,
2013-04-18 09:10:00,70.7,58.4,28.70,South,174,9.6,13.9,65,0.00,,---,0.00,VWS V14.01,2013-04-18 13:10:00,
2013-04-18 09:11:00,38.1,25.9,28.58,WNW,288,7.8,13.9,61,0.00,,---,0.35,VWS V14.01,2013-04-18 13:11:00,
2013-04-18 09:12:00,38.1,25.9,28.58,West,276,16.8,16.8,61,0.00,,---,0.35,VWS V14.01,2013-04-18 13:12:00,
2013-04-18 09:13:00,38.1,25.9,28.58,West,276,10.1,21.5,61,0.00,,---,0.35,VWS V14.01,2013-04-18 13:13:00,
2013-04-18 09:14:00,37.9,25.3,28.58,NW,317,9.6,18.6,60,0.00,,---,0.35,VWS V14.01,2013-04-18 13:14:00,
2013-04-18 09:15:00,71.2,58.5,28.70,SSW,205,12.5,12.5,64,0.00,,---,0.00,VWS V14.01,2013-04-18 13:15:00,
2013-04-18 09:16:00,38.1,25.1,28.58,WSW,251,13.4,15.9,59,0.00,,---,0.35,VWS V14.01,2013-04-18 13:16:00,
2013-04-18 09:17:00,38.1,25.5,28.58,WNW,283,8.7,20.1,60,0.00,,---,0.35,VWS V14.01,2013-04-18 13:17:00,
2013-04-18 09:18:00,38.1,25.9,28.58,West,279,13.9,14.8,61,0.00,,---,0.35,VWS V14.01,2013-04-18 13:18:00,
2013-04-18 09:19:00,38.1,25.9,28.58,SW,229,11.0,18.1,61,0.00,,---,0.35,VWS V14.01,2013-04-18 13:19:00,
2013-04-18 09:20:00,71.6,57.9,28.70,West,270,5.8,9.6,62,0.00,,---,0.00,VWS V14.01,2013-04-18 13:20:00,
2013-04-18 09:21:00,38.1,25.5,28.58,WNW,300,11.6,20.1,60,0.00,,---,0.35,VWS V14.01,2013-04-18 13:21:00,
2013-04-18 09:22:00,38.1,25.5,28.58,SW,235,14.8,21.5,60,0.00,,---,0.35,VWS V14.01,2013-04-18 13:22:00,
2013-04-18 09:23:00,38.1,25.9,28.58,West,280,17.7,17.7,61,0.00,,---,0.35,VWS V14.01,2013-04-18 13:23:00,
2013-04-18 09:24:00,38.1,25.5,28.58,West,259,10.5,17.7,60,0.00,,---,0.35,VWS V14.01,2013-04-18 13:24:00,
2013-04-18 09:25:00,71.8,57.6,28.70,SW,215,11.0,14.8,61,0.00,,---,0.00,VWS V14.01,2013-04-18 13:25:00,
2013-04-18 09:26:00,38.1,25.9,28.58,West,274,10.1,13.0,61,0.00,,---,0.35,VWS V14.01,2013-04-18 13:26:00,
2013-04-18 09:27:00,38.1,25.9,28.58,WSW,254,9.2,13.4,61,0.00,,---,0.35,VWS V14.01,2013-04-18 13:27:00,
2013-04-18 09:28:00,38.1,25.9,28.58,WNW,288,9.2,13.9,61,0.00,,---,0.35,VWS V14.01,2013-04-18 13:28:00,
2013-04-18 09:29:00,38.1,26.3,28.58,NE,55,13.4,13.9,62,0.00,,---,0.35,VWS V14.01,2013-04-18 13:29:00,
2013-04-18 09:30:00,71.4,57.7,28.70,SSE,164,9.2,15.4,62,0.00,,---,0.00,VWS V14.01,2013-04-18 13:30:00,
2013-04-18 09:31:00,38.1,25.5,28.58,SW,236,10.1,19.9,60,0.00,,---,0.35,VWS V14.01,2013-04-18 13:31:00,
2013-04-18 09:32:00,38.3,25.6,28.58,WNW,300,8.7,11.2,60,0.00,,---,0.35,VWS V14.01,2013-04-18 13:32:00,
2013-04-18 09:33:00,38.3,25.6,28.58,West,276,6.9,9.6,60,0.00,,---,0.35,VWS V14.01,2013-04-18 13:33:00,
2013-04-18 09:34:00,38.3,25.6,28.58,WSW,249,15.2,19.9,60,0.00,,---,0.35,VWS V14.01,2013-04-18 13:34:00,
2013-04-18 09:35:00,38.1,25.1,28.58,WSW,257,8.7,16.3,59,0.00,,---,0.35,VWS V14.01,2013-04-18 13:35:00,
2013-04-18 09:36:00,38.1,24.2,28.58,NW,306,9.2,19.0,57,0.00,,---,0.35,VWS V14.01,2013-04-18 13:36:00,
2013-04-18 09:37:00,38.3,24.8,28.58,West,281,5.8,9.2,58,0.00,,---,0.35,VWS V14.01,2013-04-18 13:37:00,
2013-04-18 09:38:00,72.1,58.0,28.70,SSW,201,8.7,13.4,61,0.00,,---,0.00,VWS V14.01,2013-04-18 13:38:00,
2013-04-18 09:39:00,38.3,24.4,28.58,NW,305,8.3,16.8,57,0.00,,---,0.35,VWS V14.01,2013-04-18 13:39:00,
2013-04-18 09:40:00,38.1,24.2,28.58,WNW,289,9.2,17.2,57,0.00,,---,0.35,VWS V14.01,2013-04-18 13:40:00,
2013-04-18 09:41:00,38.1,24.2,28.58,SSW,202,7.8,12.5,57,0.00,,---,0.35,VWS V14.01,2013-04-18 13:41:00,
2013-04-18 09:42:00,38.3,24.4,28.58,WNW,291,13.4,13.4,57,0.00,,---,0.35,VWS V14.01,2013-04-18 13:42:00,
2013-04-18 09:43:00,72.3,57.7,28.70,WSW,237,11.2,11.2,60,0.00,,---,0.00,VWS V14.01,2013-04-18 13:43:00,
2013-04-18 09:44:00,38.1,24.7,28.58,WSW,255,11.2,15.4,58,0.00,,---,0.35,VWS V14.01,2013-04-18 13:44:00,
2013-04-18 09:45:00,38.1,24.2,28.58,West,270,14.3,15.9,57,0.00,,---,0.35,VWS V14.01,2013-04-18 13:45:00,
2013-04-18 09:46:00,38.1,24.2,28.58,West,275,13.9,14.8,57,0.00,,---,0.35,VWS V14.01,2013-04-18 13:46:00,
2013-04-18 09:47:00,38.1,24.2,28.58,SW,235,17.7,17.7,57,0.00,,---,0.35,VWS V14.01,2013-04-18 13:47:00,
2013-04-18 09:48:00,72.9,57.2,28.67,South,172,10.1,12.5,58,0.00,,---,0.00,VWS V14.01,2013-04-18 13:48:00,
2013-04-18 09:49:00,38.1,24.7,28.58,WNW,292,7.4,14.8,58,0.00,,---,0.35,VWS V14.01,2013-04-18 13:49:00,
2013-04-18 09:50:00,38.1,25.1,28.58,WSW,256,8.7,11.2,59,0.00,,---,0.35,VWS V14.01,2013-04-18 13:50:00,
2013-04-18 09:51:00,38.1,24.7,28.58,WNW,303,16.8,23.3,58,0.00,,---,0.35,VWS V14.01,2013-04-18 13:51:00,
2013-04-18 09:52:00,38.1,24.7,28.58,WSW,254,11.0,17.7,58,0.00,,---,0.35,VWS V14.01,2013-04-18 13:52:00,
2013-04-18 09:53:00,73.6,56.4,28.67,West,268,10.1,15.9,55,0.00,,---,0.00,VWS V14.01,2013-04-18 13:53:00,
2013-04-18 09:54:00,38.1,24.7,28.58,WSW,249,14.3,18.1,58,0.00,,---,0.35,VWS V14.01,2013-04-18 13:54:00,
2013-04-18 09:55:00,38.1,24.2,28.58,NW,307,17.2,18.6,57,0.00,,---,0.35,VWS V14.01,2013-04-18 13:55:00,
2013-04-18 09:56:00,38.1,24.2,28.58,WSW,248,17.2,19.5,57,0.00,,---,0.35,VWS V14.01,2013-04-18 13:56:00,
2013-04-18 09:57:00,38.1,24.2,28.61,NW,317,14.3,17.2,57,0.00,,---,0.35,VWS V14.01,2013-04-18 13:57:00,
2013-04-18 09:58:00,38.1,24.2,28.61,WSW,252,11.6,16.3,57,0.00,,---,0.35,VWS V14.01,2013-04-18 13:58:00,
2013-04-18 09:59:00,73.9,56.3,28.67,SE,135,5.4,13.9,54,0.00,,---,0.00,VWS V14.01,2013-04-18 13:59:00,
2013-04-18 10:00:00,38.1,24.7,28.61,West,273,16.8,16.8,58,0.00,,---,0.35,VWS V14.01,2013-04-18 14:00:00,
2013-04-18 10:01:00,38.1,24.7,28.61,West,263,11.0,16.8,58,0.00,,---,0.35,VWS V14.01,2013-04-18 14:01:00,
2013-04-18 10:02:00,38.1,24.7,28.61,WSW,254,19.0,19.0,58,0.00,,---,0.35,VWS V14.01,2013-04-18 14:02:00,
2013-04-18 10:03:00,38.1,24.7,28.61,NW,314,10.1,19.0,58,0.00,,---,0.35,VWS V14.01,2013-04-18 14:03:00,
2013-04-18 10:04:00,73.8,55.6,28.67,SSW,208,5.4,17.2,53,0.00,,---,0.00,VWS V14.01,2013-04-18 14:04:00,
2013-04-18 10:05:00,38.1,25.1,28.61,WSW,257,8.3,11.0,59,0.00,,---,0.35,VWS V14.01,2013-04-18 14:05:00,
2013-04-18 10:06:00,38.1,25.1,28.61,WNW,292,9.6,15.4,59,0.00,,---,0.35,VWS V14.01,2013-04-18 14:06:00,
2013-04-18 10:07:00,38.1,24.7,28.61,WNW,302,16.8,16.8,58,0.00,,---,0.35,VWS V14.01,2013-04-18 14:07:00,
2013-04-18 10:08:00,38.1,24.7,28.61,West,265,12.5,16.8,58,0.00,,---,0.35,VWS V14.01,2013-04-18 14:08:00,
2013-04-18 10:09:00,73.8,55.6,28.67,WSW,257,11.0,15.4,53,0.00,,---,0.00,VWS V14.01,2013-04-18 14:09:00,
2013-04-18 10:10:00,38.1,25.1,28.61,SW,228,11.6,14.3,59,0.00,,---,0.35,VWS V14.01,2013-04-18 14:10:00,
2013-04-18 10:11:00,38.1,25.1,28.61,WSW,237,13.0,15.4,59,0.00,,---,0.35,VWS V14.01,2013-04-18 14:11:00,
2013-04-18 10:12:00,38.1,25.5,28.61,WSW,257,11.0,16.3,60,0.00,,---,0.35,VWS V14.01,2013-04-18 14:12:00,
2013-04-18 10:13:00,38.1,25.5,28.61,West,271,11.6,11.6,60,0.00,,---,0.35,VWS V14.01,2013-04-18 14:13:00,
2013-04-18 10:14:00,73.8,56.6,28.67,SE,139,7.4,10.5,55,0.00,,---,0.00,VWS V14.01,2013-04-18 14:14:00,
2013-04-18 10:15:00,38.1,25.9,28.61,SW,234,8.7,14.8,61,0.00,,---,0.35,VWS V14.01,2013-04-18 14:15:00,
2013-04-18 10:16:00,38.1,25.9,28.61,WNW,302,9.2,15.4,61,0.00,,---,0.35,VWS V14.01,2013-04-18 14:16:00,
2013-04-18 10:17:00,38.1,25.9,28.61,WSW,247,7.8,12.5,61,0.00,,---,0.35,VWS V14.01,2013-04-18 14:17:00,
2013-04-18 10:18:00,38.1,26.3,28.61,West,269,7.4,12.1,62,0.00,,---,0.35,VWS V14.01,2013-04-18 14:18:00,
2013-04-18 10:19:00,74.3,56.6,28.67,South,174,7.8,10.1,54,0.00,,---,0.00,VWS V14.01,2013-04-18 14:19:00,
2013-04-18 10:20:00,38.1,26.6,28.61,West,271,9.2,12.1,63,0.00,,---,0.35,VWS V14.01,2013-04-18 14:20:00,
2013-04-18 10:21:00,38.1,26.6,28.61,WSW,248,8.7,15.9,63,0.00,,---,0.35,VWS V14.01,2013-04-18 14:21:00,
2013-04-18 10:22:00,38.1,26.6,28.61,West,263,10.5,10.5,63,0.00,,---,0.35,VWS V14.01,2013-04-18 14:22:00,
2013-04-18 10:23:00,38.1,27.0,28.61,West,263,9.2,13.4,64,0.00,,---,0.35,VWS V14.01,2013-04-18 14:23:00,
2013-04-18 10:24:00,74.7,55.3,28.67,SW,226,14.8,14.8,51,0.00,,---,0.00,VWS V14.01,2013-04-18 14:24:00,
2013-04-18 10:25:00,38.1,27.4,28.61,WNW,291,9.2,13.9,65,0.00,,---,0.35,VWS V14.01,2013-04-18 14:25:00,
2013-04-18 10:26:00,38.1,27.4,28.61,SSW,207,8.3,10.5,65,0.00,,---,0.35,VWS V14.01,2013-04-18 14:26:00,
2013-04-18 10:27:00,38.1,27.4,28.61,WSW,240,16.3,16.8,65,0.00,,---,0.35,VWS V14.01,2013-04-18 14:27:00,
2013-04-18 10:28:00,38.1,27.0,28.61,West,264,18.6,18.6,64,0.00,,---,0.35,VWS V14.01,2013-04-18 14:28:00,
2013-04-18 10:29:00,75.2,55.3,28.67,SW,235,13.0,13.4,50,0.00,,---,0.00,VWS V14.01,2013-04-18 14:29:00,
2013-04-18 10:30:00,37.9,25.3,28.61,West,262,10.5,17.7,60,0.00,,---,0.35,VWS V14.01,2013-04-18 14:30:00,
2013-04-18 10:31:00,38.1,25.5,28.61,WSW,248,8.7,13.4,60,0.00,,---,0.35,VWS V14.01,2013-04-18 14:31:00,
2013-04-18 10:32:00,38.1,25.9,28.61,WSW,243,7.8,15.4,61,0.00,,---,0.35,VWS V14.01,2013-04-18 14:32:00,
2013-04-18 10:33:00,38.1,25.5,28.61,SW,219,15.2,16.3,60,0.00,,---,0.35,VWS V14.01,2013-04-18 14:33:00,
2013-04-18 10:34:00,75.9,54.8,28.67,SSW,192,6.7,11.2,48,0.00,,---,0.00,VWS V14.01,2013-04-18 14:34:00,
2013-04-18 10:35:00,38.1,25.1,28.61,WSW,253,12.5,21.5,59,0.00,,---,0.35,VWS V14.01,2013-04-18 14:35:00,
2013-04-18 10:36:00,38.3,25.2,28.61,West,271,9.2,14.3,59,0.00,,---,0.35,VWS V14.01,2013-04-18 14:36:00,
2013-04-18 10:37:00,38.3,25.2,28.61,West,262,11.6,16.8,59,0.00,,---,0.35,VWS V14.01,2013-04-18 14:37:00,
2013-04-18 10:38:00,38.3,25.2,28.61,West,275,6.9,14.3,59,0.00,,---,0.35,VWS V14.01,2013-04-18 14:38:00,
2013-04-18 10:39:00,75.6,53.9,28.67,SE,145,3.6,12.5,47,0.00,,---,0.00,VWS V14.01,2013-04-18 14:39:00,
2013-04-18 10:40:00,38.1,23.8,28.61,WSW,253,9.2,17.7,56,0.00,,---,0.35,VWS V14.01,2013-04-18 14:40:00,
2013-04-18 10:41:00,38.1,23.8,28.61,West,271,11.2,12.5,56,0.00,,---,0.35,VWS V14.01,2013-04-18 14:41:00,
2013-04-18 10:42:00,38.1,23.8,28.64,SW,222,13.9,14.8,56,0.00,,---,0.35,VWS V14.01,2013-04-18 14:42:00,
2013-04-18 10:43:00,38.1,23.8,28.64,West,268,12.1,19.0,56,0.00,,---,0.35,VWS V14.01,2013-04-18 14:43:00,
2013-04-18 10:44:00,75.7,54.7,28.67,SW,232,7.8,7.8,48,0.00,,---,0.00,VWS V14.01,2013-04-18 14:44:00,
2013-04-18 10:45:00,38.1,24.2,28.64,WSW,255,4.5,13.9,57,0.00,,---,0.35,VWS V14.01,2013-04-18 14:45:00,
2013-04-18 10:46:00,38.1,24.2,28.64,WSW,245,5.8,23.7,57,0.00,,---,0.35,VWS V14.01,2013-04-18 14:46:00,
2013-04-18 10:47:00,38.1,24.7,28.64,WSW,252,5.4,17.2,58,0.00,,---,0.35,VWS V14.01,2013-04-18 14:47:00,
2013-04-18 10:48:00,38.1,24.7,28.64,West,279,17.2,17.2,58,0.00,,---,0.35,VWS V14.01,2013-04-18 14:48:00,
2013-04-18 10:49:00,75.7,53.5,28.67,SSE,168,9.2,19.5,46,0.00,,---,0.00,VWS V14.01,2013-04-18 14:49:00,
2013-04-18 10:50:00,38.1,25.1,28.64,WSW,246,13.4,15.4,59,0.00,,---,0.35,VWS V14.01,2013-04-18 14:50:00,
2013-04-18 10:51:00,38.1,24.7,28.64,WSW,237,8.3,14.3,58,0.00,,---,0.35,VWS V14.01,2013-04-18 14:51:00,
2013-04-18 10:52:00,38.3,25.2,28.64,West,273,12.1,15.9,59,0.00,,---,0.35,VWS V14.01,2013-04-18 14:52:00,
2013-04-18 10:53:00,38.3,25.2,28.64,WSW,251,11.6,17.2,59,0.00,,---,0.35,VWS V14.01,2013-04-18 14:53:00,
2013-04-18 10:54:00,75.7,52.9,28.67,SW,223,12.5,16.3,45,0.00,,---,0.00,VWS V14.01,2013-04-18 14:54:00,
2013-04-18 10:55:00,38.3,23.6,28.64,SW,234,8.3,16.8,55,0.00,,---,0.35,VWS V14.01,2013-04-18 14:55:00,
2013-04-18 10:56:00,38.3,23.6,28.64,WNW,286,18.1,23.3,55,0.00,,---,0.35,VWS V14.01,2013-04-18 14:56:00,
2013-04-18 10:57:00,38.3,22.7,28.64,West,269,11.0,19.5,53,0.00,,---,0.35,VWS V14.01,2013-04-18 14:57:00,
2013-04-18 10:58:00,38.3,22.2,28.64,West,261,11.6,22.8,52,0.00,,---,0.35,VWS V14.01,2013-04-18 14:58:00,
2013-04-18 10:59:00,75.7,53.5,28.64,South,190,4.5,12.5,46,0.00,,---,0.00,VWS V14.01,2013-04-18 14:59:00,
2013-04-18 11:00:00,38.3,22.2,28.64,WNW,292,11.6,19.5,52,0.00,,---,0.35,VWS V14.01,2013-04-18 15:00:00,
2013-04-18 11:01:00,38.3,22.2,28.64,NNW,333,15.2,15.2,52,0.00,,---,0.35,VWS V14.01,2013-04-18 15:01:00,
2013-04-18 11:02:00,38.3,22.2,28.64,WSW,258,11.6,20.6,52,0.00,,---,0.35,VWS V14.01,2013-04-18 15:02:00,
2013-04-18 11:03:00,38.3,21.8,28.64,West,267,11.0,18.6,51,0.00,,---,0.35,VWS V14.01,2013-04-18 15:03:00,
2013-04-18 11:04:00,75.9,53.1,28.64,WSW,245,12.1,17.2,45,0.00,,---,0.00,VWS V14.01,2013-04-18 15:04:00,
2013-04-18 11:05:00,38.3,22.2,28.64,NW,318,13.0,16.8,52,0.00,,---,0.35,VWS V14.01,2013-04-18 15:05:00,
2013-04-18 11:06:00,38.3,22.2,28.64,West,269,11.0,17.2,52,0.00,,---,0.35,VWS V14.01,2013-04-18 15:06:00,
2013-04-18 11:07:00,38.3,22.2,28.64,SW,215,4.9,12.1,52,0.00,,---,0.35,VWS V14.01,2013-04-18 15:07:00,
2013-04-18 11:08:00,38.5,22.9,28.64,WSW,258,15.2,15.2,53,0.00,,---,0.35,VWS V14.01,2013-04-18 15:08:00,
2013-04-18 11:09:00,76.3,52.2,28.64,SSW,197,13.0,16.8,43,0.00,,---,0.00,VWS V14.01,2013-04-18 15:09:00,
2013-04-18 11:10:00,38.5,23.3,28.64,WSW,240,6.7,11.6,54,0.00,,---,0.35,VWS V14.01,2013-04-18 15:10:00,
2013-04-18 11:11:00,38.5,23.3,28.64,West,274,9.6,11.6,54,0.00,,---,0.35,VWS V14.01,2013-04-18 15:11:00,
2013-04-18 11:12:00,38.5,23.7,28.64,West,262,6.3,11.6,55,0.00,,---,0.35,VWS V14.01,2013-04-18 15:12:00,
2013-04-18 11:13:00,38.5,23.7,28.64,West,263,13.9,17.2,55,0.00,,---,0.35,VWS V14.01,2013-04-18 15:13:00,
2013-04-18 11:14:00,75.9,51.8,28.67,SW,222,9.6,13.0,43,0.00,,---,0.00,VWS V14.01,2013-04-18 15:14:00,
2013-04-18 11:15:00,38.3,22.7,28.64,WNW,301,19.9,20.1,53,0.00,,---,0.35,VWS V14.01,2013-04-18 15:15:00,
2013-04-18 11:16:00,38.5,22.9,28.64,SW,229,11.0,19.9,53,0.00,,---,0.35,VWS V14.01,2013-04-18 15:16:00,
2013-04-18 11:17:00,38.5,22.9,28.64,WSW,244,7.8,12.5,53,0.00,,---,0.35,VWS V14.01,2013-04-18 15:17:00,
2013-04-18 11:18:00,38.5,23.3,28.64,WNW,298,11.0,17.7,54,0.00,,---,0.35,VWS V14.01,2013-04-18 15:18:00,
2013-04-18 11:19:00,76.3,52.8,28.67,South,187,6.7,12.1,44,0.00,,---,0.00,VWS V14.01,2013-04-18 15:19:00,
2013-04-18 11:20:00,38.5,23.3,28.64,WSW,248,11.6,18.1,54,0.00,,---,0.35,VWS V14.01,2013-04-18 15:20:00,
2013-04-18 11:21:00,38.5,23.3,28.64,SSE,152,10.5,19.5,54,0.00,,---,0.35,VWS V14.01,2013-04-18 15:21:00,
2013-04-18 11:22:00,38.5,23.7,28.64,WSW,240,9.6,15.4,55,0.00,,---,0.35,VWS V14.01,2013-04-18 15:22:00,
2013-04-18 11:23:00,38.5,23.7,28.64,West,275,11.6,11.6,55,0.00,,---,0.35,VWS V14.01,2013-04-18 15:23:00,
2013-04-18 11:24:00,76.5,52.3,28.67,WSW,247,10.5,16.3,43,0.00,,---,0.00,VWS V14.01,2013-04-18 15:24:00,
2013-04-18 11:25:00,38.5,24.2,28.64,NW,313,10.1,16.8,56,0.00,,---,0.35,VWS V14.01,2013-04-18 15:25:00,
2013-04-18 11:26:00,38.5,23.7,28.64,West,266,10.1,16.3,55,0.00,,---,0.35,VWS V14.01,2013-04-18 15:26:00,
2013-04-18 11:27:00,38.5,24.2,28.64,WNW,282,11.6,13.0,56,0.00,,---,0.35,VWS V14.01,2013-04-18 15:27:00,
2013-04-18 11:28:00,38.5,23.7,28.64,WSW,254,8.3,11.6,55,0.00,,---,0.35,VWS V14.01,2013-04-18 15:28:00,
2013-04-18 11:29:00,76.8,52.7,28.67,SSW,192,6.7,13.9,43,0.00,,---,0.00,VWS V14.01,2013-04-18 15:29:00,
2013-04-18 11:30:00,38.7,24.3,28.64,WSW,239,6.9,13.0,56,0.00,,---,0.35,VWS V14.01,2013-04-18 15:30:00,
2013-04-18 11:31:00,38.7,24.3,28.64,SW,222,9.2,11.6,56,0.00,,---,0.35,VWS V14.01,2013-04-18 15:31:00,
2013-04-18 11:32:00,38.7,24.3,28.64,West,279,6.9,11.2,56,0.00,,---,0.35,VWS V14.01,2013-04-18 15:32:00,
2013-04-18 11:33:00,38.7,23.9,28.64,WNW,282,13.4,13.4,55,0.00,,---,0.35,VWS V14.01,2013-04-18 15:33:00,
2013-04-18 11:34:00,76.6,51.8,28.67,SW,228,11.6,20.6,42,0.00,,---,0.00,VWS V14.01,2013-04-18 15:34:00,
2013-04-18 11:35:00,38.7,23.0,28.64,West,259,8.7,20.6,53,0.00,,---,0.35,VWS V14.01,2013-04-18 15:35:00,
2013-04-18 11:36:00,38.8,23.2,28.64,West,272,8.7,12.1,53,0.00,,---,0.35,VWS V14.01,2013-04-18 15:36:00,
2013-04-18 11:37:00,38.8,23.2,28.64,WSW,256,11.2,15.2,53,0.00,,---,0.35,VWS V14.01,2013-04-18 15:37:00,
2013-04-18 11:38:00,38.8,23.2,28.64,West,261,14.3,18.6,53,0.00,,---,0.35,VWS V14.01,2013-04-18 15:38:00,
2013-04-18 11:39:00,76.3,52.2,28.67,SSW,209,7.8,14.8,43,0.00,,---,0.00,VWS V14.01,2013-04-18 15:39:00,
2013-04-18 11:40:00,39.0,23.4,28.64,WSW,254,12.5,14.3,53,0.00,,---,0.35,VWS V14.01,2013-04-18 15:40:00,
2013-04-18 11:41:00,39.0,23.4,28.64,SW,230,15.4,15.9,53,0.00,,---,0.35,VWS V14.01,2013-04-18 15:41:00,
2013-04-18 11:42:00,39.0,23.4,28.64,WSW,244,13.4,19.5,53,0.00,,---,0.35,VWS V14.01,2013-04-18 15:42:00,
2013-04-18 11:43:00,39.0,23.4,28.64,West,261,8.7,15.9,53,0.00,,---,0.35,VWS V14.01,2013-04-18 15:43:00,
2013-04-18 11:44:00,76.6,52.5,28.67,SSW,213,8.7,13.9,43,0.00,,---,0.00,VWS V14.01,2013-04-18 15:44:00,
2013-04-18 11:45:00,39.0,22.9,28.64,West,260,11.0,21.5,52,0.00,,---,0.35,VWS V14.01,2013-04-18 15:45:00,
2013-04-18 11:46:00,39.0,23.4,28.64,WSW,246,11.2,15.9,53,0.00,,---,0.35,VWS V14.01,2013-04-18 15:46:00,
2013-04-18 11:47:00,39.0,23.4,28.64,WNW,283,11.2,19.9,53,0.00,,---,0.35,VWS V14.01,2013-04-18 15:47:00,
2013-04-18 11:48:00,38.8,23.2,28.64,West,265,20.1,20.1,53,0.00,,---,0.35,VWS V14.01,2013-04-18 15:48:00,
2013-04-18 11:49:00,76.6,52.5,28.67,WSW,250,10.1,12.5,43,0.00,,---,0.00,VWS V14.01,2013-04-18 15:49:00,
2013-04-18 11:50:00,38.8,22.7,28.64,West,266,12.1,16.8,52,0.00,,---,0.35,VWS V14.01,2013-04-18 15:50:00,
2013-04-18 11:51:00,38.8,22.7,28.64,West,262,13.9,18.1,52,0.00,,---,0.35,VWS V14.01,2013-04-18 15:51:00,
2013-04-18 11:52:00,38.8,22.7,28.64,WSW,241,9.2,20.1,52,0.00,,---,0.35,VWS V14.01,2013-04-18 15:52:00,
2013-04-18 11:53:00,38.8,22.7,28.64,WSW,258,14.3,14.3,52,0.00,,---,0.35,VWS V14.01,2013-04-18 15:53:00,
2013-04-18 11:54:00,77.4,53.1,28.67,SSE,166,8.3,11.2,43,0.00,,---,0.00,VWS V14.01,2013-04-18 15:54:00,
2013-04-18 11:55:00,38.8,23.2,28.64,NNW,340,11.6,20.1,53,0.00,,---,0.35,VWS V14.01,2013-04-18 15:55:00,
2013-04-18 11:56:00,38.5,23.3,28.64,WSW,251,10.1,20.1,54,0.00,,---,0.35,VWS V14.01,2013-04-18 15:56:00,
2013-04-18 11:57:00,38.3,23.6,28.64,WSW,245,15.4,22.4,55,0.00,,---,0.35,VWS V14.01,2013-04-18 15:57:00,
2013-04-18 11:58:00,37.9,23.7,28.64,WNW,303,15.4,25.3,56,0.00,,---,0.35,VWS V14.01,2013-04-18 15:58:00,
2013-04-18 11:59:00,77.0,52.2,28.64,SW,218,9.6,15.2,42,0.00,,---,0.00,VWS V14.01,2013-04-18 15:59:00,
2013-04-18 12:00:00,37.6,24.6,28.64,WNW,290,8.7,21.5,59,0.00,,---,0.35,VWS V14.01,2013-04-18 16:00:00,
2013-04-18 12:01:00,37.4,25.6,28.64,NW,319,18.6,20.1,62,0.00,,---,0.35,VWS V14.01,2013-04-18 16:01:00,
2013-04-18 12:02:00,37.2,26.2,28.64,WSW,249,14.8,18.6,64,0.00,,---,0.35,VWS V14.01,2013-04-18 16:02:00,
2013-04-18 12:03:00,37.2,26.9,28.64,WSW,237,11.0,15.2,66,0.00,,---,0.35,VWS V14.01,2013-04-18 16:03:00,
2013-04-18 12:04:00,78.1,51.8,28.64,SSW,208,9.6,10.5,40,0.00,,---,0.00,VWS V14.01,2013-04-18 16:04:00,
2013-04-18 12:05:00,37.0,27.8,28.64,WSW,243,12.5,16.8,69,0.00,,---,0.35,VWS V14.01,2013-04-18 16:05:00,
2013-04-18 12:06:00,37.0,28.2,28.64,West,279,15.9,16.3,70,0.00,,---,0.35,VWS V14.01,2013-04-18 16:06:00,
2013-04-18 12:07:00,37.0,28.2,28.64,WSW,248,8.3,20.6,70,0.00,,---,0.35,VWS V14.01,2013-04-18 16:07:00,
2013-04-18 12:08:00,37.0,28.2,28.64,West,266,15.4,15.9,70,0.00,,---,0.35,VWS V14.01,2013-04-18 16:08:00,
2013-04-18 12:09:00,77.7,51.5,28.64,SW,235,13.4,18.6,40,0.00,,---,0.00,VWS V14.01,2013-04-18 16:09:00,
2013-04-18 12:10:00,37.4,28.5,28.64,WNW,284,9.6,13.4,70,0.00,,---,0.35,VWS V14.01,2013-04-18 16:10:00,
2013-04-18 12:11:00,37.4,28.5,28.64,NW,309,11.0,13.4,70,0.00,,---,0.35,VWS V14.01,2013-04-18 16:11:00,
2013-04-18 12:12:00,37.4,28.2,28.64,West,262,10.1,16.3,69,0.00,,---,0.35,VWS V14.01,2013-04-18 16:12:00,
2013-04-18 12:13:00,37.6,28.4,28.64,WNW,299,6.7,13.0,69,0.00,,---,0.35,VWS V14.01,2013-04-18 16:13:00,
2013-04-18 12:14:00,77.9,51.7,28.64,ESE,121,11.0,16.3,40,0.00,,---,0.00,VWS V14.01,2013-04-18 16:14:00,
2013-04-18 12:15:00,37.8,28.2,28.64,WNW,295,13.4,14.8,68,0.00,,---,0.35,VWS V14.01,2013-04-18 16:15:00,
2013-04-18 12:16:00,37.9,28.0,28.64,NW,305,0.0,13.9,67,0.00,,---,0.35,VWS V14.01,2013-04-18 16:16:00,
2013-04-18 12:17:00,38.1,28.1,28.64,SW,236,8.3,11.0,67,0.00,,---,0.35,VWS V14.01,2013-04-18 16:17:00,
2013-04-18 12:18:00,38.3,28.3,28.64,NW,312,5.8,11.2,67,0.00,,---,0.35,VWS V14.01,2013-04-18 16:18:00,
2013-04-18 12:19:00,77.5,51.3,28.64,SSW,209,8.7,13.9,40,0.00,,---,0.00,VWS V14.01,2013-04-18 16:19:00,
2013-04-18 12:20:00,38.5,27.8,28.64,WSW,241,12.1,16.3,65,0.00,,---,0.35,VWS V14.01,2013-04-18 16:20:00,
2013-04-18 12:21:00,38.5,27.0,28.64,WNW,299,9.2,17.7,63,0.00,,---,0.35,VWS V14.01,2013-04-18 16:21:00,
2013-04-18 12:22:00,38.5,26.6,28.64,WNW,283,11.6,15.2,62,0.00,,---,0.35,VWS V14.01,2013-04-18 16:22:00,
2013-04-18 12:23:00,38.7,26.4,28.64,WSW,250,10.5,15.9,61,0.00,,---,0.35,VWS V14.01,2013-04-18 16:23:00,
2013-04-18 12:24:00,77.7,51.5,28.64,SW,223,10.5,11.0,40,0.00,,---,0.00,VWS V14.01,2013-04-18 16:24:00,
2013-04-18 12:25:00,38.8,26.2,28.64,WSW,249,8.3,12.1,60,0.00,,---,0.35,VWS V14.01,2013-04-18 16:25:00,
2013-04-18 12:26:00,38.8,26.2,28.64,WSW,242,12.5,17.7,60,0.00,,---,0.35,VWS V14.01,2013-04-18 16:26:00,
2013-04-18 12:27:00,38.8,25.8,28.64,WSW,239,10.5,16.3,59,0.00,,---,0.35,VWS V14.01,2013-04-18 16:27:00,
2013-04-18 12:28:00,38.8,25.8,28.64,West,276,7.4,11.6,59,0.00,,---,0.35,VWS V14.01,2013-04-18 16:28:00,
2013-04-18 12:29:00,77.9,51.7,28.64,SW,219,13.4,17.2,40,0.00,,---,0.00,VWS V14.01,2013-04-18 16:29:00,
2013-04-18 12:30:00,38.8,25.8,28.64,WSW,250,8.7,15.4,59,0.00,,---,0.35,VWS V14.01,2013-04-18 16:30:00,
2013-04-18 12:31:00,39.0,25.9,28.64,West,273,9.6,13.9,59,0.00,,---,0.35,VWS V14.01,2013-04-18 16:31:00,
2013-04-18 12:32:00,38.8,24.9,28.64,West,263,19.9,21.5,57,0.00,,---,0.35,VWS V14.01,2013-04-18 16:32:00,
2013-04-18 12:33:00,38.7,23.5,28.64,WSW,256,20.6,26.2,54,0.00,,---,0.35,VWS V14.01,2013-04-18 16:33:00,
2013-04-18 12:34:00,78.1,51.1,28.64,WSW,252,10.5,22.4,39,0.00,,---,0.00,VWS V14.01,2013-04-18 16:34:00,
2013-04-18 12:35:00,38.7,22.1,28.64,West,266,9.6,18.6,51,0.00,,---,0.35,VWS V14.01,2013-04-18 16:35:00,
2013-04-18 12:36:00,38.7,22.1,28.64,West,274,12.1,16.8,51,0.00,,---,0.35,VWS V14.01,2013-04-18 16:36:00,
2013-04-18 12:37:00,38.7,21.6,28.64,West,277,14.3,19.5,50,0.00,,---,0.35,VWS V14.01,2013-04-18 16:37:00,
2013-04-18 12:38:00,38.7,21.2,28.64,West,273,7.8,19.0,49,0.00,,---,0.35,VWS V14.01,2013-04-18 16:38:00,
2013-04-18 12:39:00,77.5,51.3,28.64,SW,226,6.7,18.1,40,0.00,,---,0.00,VWS V14.01,2013-04-18 16:39:00,
2013-04-18 12:40:00,38.7,21.6,28.64,WSW,239,9.2,16.8,50,0.00,,---,0.35,VWS V14.01,2013-04-18 16:40:00,
2013-04-18 12:41:00,38.7,21.6,28.64,SW,235,17.2,24.8,50,0.00,,---,0.35,VWS V14.01,2013-04-18 16:41:00,
2013-04-18 12:42:00,38.7,21.6,28.64,West,279,17.2,25.3,50,0.00,,---,0.35,VWS V14.01,2013-04-18 16:42:00,
2013-04-18 12:43:00,38.7,22.1,28.64,WNW,284,17.2,17.7,51,0.00,,---,0.35,VWS V14.01,2013-04-18 16:43:00,
2013-04-18 12:44:00,77.9,51.7,28.64,SSW,209,7.4,12.1,40,0.00,,---,0.00,VWS V14.01,2013-04-18 16:44:00,
2013-04-18 12:45:00,38.7,21.6,28.64,NW,313,10.1,13.9,50,0.00,,---,0.35,VWS V14.01,2013-04-18 16:45:00,
2013-04-18 12:46:00,38.7,21.6,28.64,WNW,284,12.1,13.0,50,0.00,,---,0.35,VWS V14.01,2013-04-18 16:46:00,
2013-04-18 12:47:00,38.7,21.6,28.64,WSW,254,16.3,20.6,50,0.00,,---,0.35,VWS V14.01,2013-04-18 16:47:00,
2013-04-18 12:48:00,38.7,21.6,28.64,WNW,297,21.9,21.9,50,0.00,,---,0.35,VWS V14.01,2013-04-18 16:48:00,
2013-04-18 12:49:00,77.5,51.3,28.64,WSW,241,7.8,11.2,40,0.00,,---,0.00,VWS V14.01,2013-04-18 16:49:00,
2013-04-18 12:50:00,38.5,21.5,28.64,West,280,21.9,21.9,50,0.00,,---,0.35,VWS V14.01,2013-04-18 16:50:00,
2013-04-18 12:51:00,38.5,21.0,28.64,WSW,251,11.0,21.9,49,0.00,,---,0.35,VWS V14.01,2013-04-18 16:51:00,
2013-04-18 12:52:00,38.5,21.0,28.64,SW,232,10.5,18.6,49,0.00,,---,0.35,VWS V14.01,2013-04-18 16:52:00,
2013-04-18 12:53:00,38.5,21.0,28.64,WSW,255,11.6,20.6,49,0.00,,---,0.35,VWS V14.01,2013-04-18 16:53:00,
2013-04-18 12:54:00,77.5,51.3,28.64,WNW,289,8.7,13.9,40,0.00,,---,0.00,VWS V14.01,2013-04-18 16:54:00,
2013-04-18 12:55:00,38.5,21.0,28.64,WSW,251,22.8,22.8,49,0.00,,---,0.35,VWS V14.01,2013-04-18 16:55:00,
2013-04-18 12:56:00,38.5,20.5,28.64,WSW,256,12.1,22.8,48,0.00,,---,0.35,VWS V14.01,2013-04-18 16:56:00,
2013-04-18 12:57:00,38.5,20.5,28.64,West,259,9.2,16.8,48,0.00,,---,0.35,VWS V14.01,2013-04-18 16:57:00,
2013-04-18 12:58:00,38.7,21.2,28.64,WSW,240,13.0,17.7,49,0.00,,---,0.35,VWS V14.01,2013-04-18 16:58:00,
2013-04-18 12:59:00,77.5,51.3,28.64,WSW,249,7.4,11.6,40,0.00,,---,0.00,VWS V14.01,2013-04-18 16:59:00,
2013-04-18 13:00:00,38.8,21.8,28.64,WNW,283,9.6,10.5,50,0.00,,---,0.35,VWS V14.01,2013-04-18 17:00:00,
2013-04-18 13:01:00,38.8,21.8,28.64,WNW,291,13.0,15.9,50,0.00,,---,0.35,VWS V14.01,2013-04-18 17:01:00,
2013-04-18 13:02:00,38.8,21.8,28.64,WNW,296,6.7,13.4,50,0.00,,---,0.35,VWS V14.01,2013-04-18 17:02:00,
2013-04-18 13:03:00,39.0,22.0,28.64,West,271,15.4,15.4,50,0.00,,---,0.35,VWS V14.01,2013-04-18 17:03:00,
2013-04-18 13:04:00,77.7,50.8,28.64,WSW,250,17.2,20.1,39,0.00,,---,0.00,VWS V14.01,2013-04-18 17:04:00,
2013-04-18 13:05:00,38.8,21.3,28.64,West,272,14.8,21.0,49,0.00,,---,0.35,VWS V14.01,2013-04-18 17:05:00,
2013-04-18 13:06:00,38.8,21.3,28.64,West,280,15.2,15.2,49,0.00,,---,0.35,VWS V14.01,2013-04-18 17:06:00,
2013-04-18 13:07:00,38.8,21.3,28.64,West,261,13.0,18.6,49,0.00,,---,0.35,VWS V14.01,2013-04-18 17:07:00,
2013-04-18 13:08:00,38.7,20.7,28.64,WSW,252,16.8,22.4,48,0.00,,---,0.35,VWS V14.01,2013-04-18 17:08:00,
2013-04-18 13:09:00,77.4,51.2,28.64,SW,223,9.2,15.2,40,0.00,,---,0.00,VWS V14.01,2013-04-18 17:09:00,
2013-04-18 13:10:00,38.7,20.7,28.64,WSW,257,6.9,18.1,48,0.00,,---,0.35,VWS V14.01,2013-04-18 17:10:00,
2013-04-18 13:11:00,38.7,20.7,28.64,West,264,18.1,20.6,48,0.00,,---,0.35,VWS V14.01,2013-04-18 17:11:00,
2013-04-18 13:12:00,38.7,20.7,28.64,West,267,15.2,19.5,48,0.00,,---,0.35,VWS V14.01,2013-04-18 17:12:00,
2013-04-18 13:13:00,38.7,20.7,28.64,West,273,15.9,15.9,48,0.00,,---,0.35,VWS V14.01,2013-04-18 17:13:00,
2013-04-18 13:14:00,77.0,51.5,28.64,WSW,248,11.2,14.8,41,0.00,,---,0.00,VWS V14.01,2013-04-18 17:14:00,
2013-04-18 13:15:00,38.7,20.2,28.64,West,281,11.2,20.1,47,0.00,,---,0.35,VWS V14.01,2013-04-18 17:15:00,
2013-04-18 13:16:00,38.7,20.7,28.64,WNW,298,10.5,14.8,48,0.00,,---,0.35,VWS V14.01,2013-04-18 17:16:00,
2013-04-18 13:17:00,38.7,21.2,28.64,SW,233,16.8,16.8,49,0.00,,---,0.35,VWS V14.01,2013-04-18 17:17:00,
2013-04-18 13:18:00,38.7,21.2,28.64,West,275,14.8,18.1,49,0.00,,---,0.35,VWS V14.01,2013-04-18 17:18:00,
2013-04-18 13:19:00,76.5,51.7,28.64,SSW,212,5.8,11.2,42,0.00,,---,0.00,VWS V14.01,2013-04-18 17:19:00,
2013-04-18 13:20:00,38.7,21.2,28.64,WSW,255,12.1,19.9,49,0.00,,---,0.35,VWS V14.01,2013-04-18 17:20:00,
2013-04-18 13:21:00,38.7,21.2,28.64,WSW,242,9.2,13.9,49,0.00,,---,0.35,VWS V14.01,2013-04-18 17:21:00,
2013-04-18 13:22:00,38.7,21.2,28.64,WNW,283,11.0,13.0,49,0.00,,---,0.35,VWS V14.01,2013-04-18 17:22:00,
2013-04-18 13:23:00,38.7,21.2,28.64,WSW,253,9.6,21.0,49,0.00,,---,0.35,VWS V14.01,2013-04-18 17:23:00,
2013-04-18 13:24:00,75.9,51.8,28.64,South,183,6.7,17.7,43,0.00,,---,0.00,VWS V14.01,2013-04-18 17:24:00,
2013-04-18 13:25:00,38.7,21.2,28.64,WSW,250,13.9,19.0,49,0.00,,---,0.35,VWS V14.01,2013-04-18 17:25:00,
2013-04-18 13:26:00,38.7,21.2,28.64,SW,234,7.8,16.3,49,0.00,,---,0.35,VWS V14.01,2013-04-18 17:26:00,
2013-04-18 13:27:00,38.7,21.2,28.67,SW,215,11.0,17.2,49,0.00,,---,0.35,VWS V14.01,2013-04-18 17:27:00,
2013-04-18 13:28:00,38.7,21.2,28.67,West,280,9.6,19.0,49,0.00,,---,0.35,VWS V14.01,2013-04-18 17:28:00,
2013-04-18 13:29:00,75.4,52.0,28.64,SW,217,10.1,12.5,44,0.00,,---,0.00,VWS V14.01,2013-04-18 17:29:00,
2013-04-18 13:30:00,38.7,21.6,28.67,WNW,293,9.2,18.1,50,0.00,,---,0.35,VWS V14.01,2013-04-18 17:30:00,
2013-04-18 13:31:00,38.7,21.6,28.67,NW,308,11.0,18.6,50,0.00,,---,0.35,VWS V14.01,2013-04-18 17:31:00,
2013-04-18 13:32:00,38.7,21.6,28.67,West,267,13.9,13.9,50,0.00,,---,0.35,VWS V14.01,2013-04-18 17:32:00,
2013-04-18 13:33:00,38.7,22.1,28.67,WNW,303,13.0,15.9,51,0.00,,---,0.35,VWS V14.01,2013-04-18 17:33:00,
2013-04-18 13:34:00,75.4,52.0,28.64,SE,143,10.1,11.6,44,0.00,,---,0.00,VWS V14.01,2013-04-18 17:34:00,
2013-04-18 13:35:00,38.7,22.1,28.67,West,263,11.0,15.9,51,0.00,,---,0.35,VWS V14.01,2013-04-18 17:35:00,
2013-04-18 13:36:00,38.7,22.6,28.67,WNW,288,16.3,16.3,52,0.00,,---,0.35,VWS V14.01,2013-04-18 17:36:00,
2013-04-18 13:37:00,38.7,22.6,28.67,NW,311,13.9,16.8,52,0.00,,---,0.35,VWS V14.01,2013-04-18 17:37:00,
2013-04-18 13:38:00,38.7,22.6,28.67,WSW,253,13.9,15.2,52,0.00,,---,0.35,VWS V14.01,2013-04-18 17:38:00,
2013-04-18 13:39:00,38.7,22.6,28.67,WSW,246,6.7,16.3,52,0.00,,---,0.35,VWS V14.01,2013-04-18 17:39:00,
2013-04-18 13:40:00,75.2,51.2,28.64,South,172,11.0,16.3,43,0.00,,---,0.00,VWS V14.01,2013-04-18 17:40:00,
2013-04-18 13:41:00,38.7,23.0,28.67,WNW,286,5.4,16.8,53,0.00,,---,0.35,VWS V14.01,2013-04-18 17:41:00,
2013-04-18 13:42:00,38.8,23.6,28.67,WNW,284,11.0,11.0,54,0.00,,---,0.35,VWS V14.01,2013-04-18 17:42:00,
2013-04-18 13:43:00,39.0,23.8,28.67,West,271,7.4,12.5,54,0.00,,---,0.35,VWS V14.01,2013-04-18 17:43:00,
2013-04-18 13:44:00,39.0,23.8,28.67,WNW,299,9.2,16.8,54,0.00,,---,0.35,VWS V14.01,2013-04-18 17:44:00,
2013-04-18 13:45:00,75.0,51.7,28.64,SW,221,6.7,13.0,44,0.00,,---,0.00,VWS V14.01,2013-04-18 17:45:00,
2013-04-18 13:46:00,39.0,22.9,28.67,WNW,299,11.0,18.6,52,0.00,,---,0.35,VWS V14.01,2013-04-18 17:46:00,
2013-04-18 13:47:00,39.2,23.1,28.67,WSW,255,8.7,19.0,52,0.00,,---,0.35,VWS V14.01,2013-04-18 17:47:00,
2013-04-18 13:48:00,39.2,23.1,28.67,West,278,9.6,15.4,52,0.00,,---,0.35,VWS V14.01,2013-04-18 17:48:00,
2013-04-18 13:49:00,39.2,22.6,28.67,WNW,284,16.3,18.1,51,0.00,,---,0.35,VWS V14.01,2013-04-18 17:49:00,
2013-04-18 13:50:00,75.2,51.2,28.64,SW,216,9.2,12.1,43,0.00,,---,0.00,VWS V14.01,2013-04-18 17:50:00,
2013-04-18 13:51:00,39.0,22.4,28.67,WSW,239,13.4,20.6,51,0.00,,---,0.35,VWS V14.01,2013-04-18 17:51:00,
2013-04-18 13:52:00,39.0,22.4,28.67,West,259,9.6,14.3,51,0.00,,---,0.35,VWS V14.01,2013-04-18 17:52:00,
2013-04-18 13:53:00,38.8,22.3,28.67,WSW,256,10.5,23.3,51,0.00,,---,0.35,VWS V14.01,2013-04-18 17:53:00,
2013-04-18 13:54:00,38.7,22.6,28.67,NW,310,10.1,16.3,52,0.00,,---,0.35,VWS V14.01,2013-04-18 17:54:00,
2013-04-18 13:55:00,75.0,51.7,28.64,West,259,7.8,10.5,44,0.00,,---,0.00,VWS V14.01,2013-04-18 17:55:00,
2013-04-18 13:56:00,38.7,23.5,28.67,WNW,292,10.1,11.2,54,0.00,,---,0.35,VWS V14.01,2013-04-18 17:56:00,
2013-04-18 13:57:00,38.5,22.9,28.67,WNW,283,12.5,21.0,53,0.00,,---,0.35,VWS V14.01,2013-04-18 17:57:00,
2013-04-18 13:58:00,38.5,22.9,28.67,WNW,289,10.1,14.8,53,0.00,,---,0.35,VWS V14.01,2013-04-18 17:58:00,
2013-04-18 13:59:00,38.5,23.3,28.67,WSW,245,10.5,14.3,54,0.00,,---,0.35,VWS V14.01,2013-04-18 17:59:00,
2013-04-18 14:00:00,74.7,51.9,28.64,WSW,237,9.2,19.5,45,0.00,,---,0.00,VWS V14.01,2013-04-18 18:00:00,
2013-04-18 14:01:00,38.7,23.5,28.67,WSW,251,7.8,14.8,54,0.00,,---,0.35,VWS V14.01,2013-04-18 18:01:00,
2013-04-18 14:02:00,38.7,23.5,28.67,West,280,11.2,19.9,54,0.00,,---,0.35,VWS V14.01,2013-04-18 18:02:00,
2013-04-18 14:03:00,38.8,23.6,28.67,WNW,288,13.0,21.0,54,0.00,,---,0.35,VWS V14.01,2013-04-18 18:03:00,
2013-04-18 14:04:00,39.0,23.4,28.67,SSW,203,8.3,18.1,53,0.00,,---,0.35,VWS V14.01,2013-04-18 18:04:00,
2013-04-18 14:05:00,71.2,47.0,28.64,NW,308,9.6,12.1,42,0.00,,---,0.00,VWS V14.01,2013-04-18 18:05:00,
2013-04-18 14:06:00,39.6,23.9,28.67,NW,311,10.1,15.2,53,0.00,,---,0.35,VWS V14.01,2013-04-18 18:06:00,
2013-04-18 14:07:00,39.7,24.0,28.67,SSW,210,9.6,17.2,53,0.00,,---,0.35,VWS V14.01,2013-04-18 18:07:00,
2013-04-18 14:08:00,39.7,23.6,28.67,WSW,242,8.3,15.4,52,0.00,,---,0.35,VWS V14.01,2013-04-18 18:08:00,
2013-04-18 14:09:00,39.7,23.1,28.67,WSW,244,18.6,18.6,51,0.00,,---,0.35,VWS V14.01,2013-04-18 18:09:00,
2013-04-18 14:10:00,68.5,49.7,28.64,NNW,346,7.8,9.2,51,0.00,,---,0.00,VWS V14.01,2013-04-18 18:10:00,
2013-04-18 14:11:00,39.7,22.2,28.67,West,270,10.1,19.0,49,0.00,,---,0.35,VWS V14.01,2013-04-18 18:11:00,
2013-04-18 14:12:00,39.9,22.3,28.67,West,264,11.0,13.9,49,0.00,,---,0.35,VWS V14.01,2013-04-18 18:12:00,
2013-04-18 14:13:00,40.1,22.5,28.67,WNW,295,13.4,13.4,49,0.00,,---,0.35,VWS V14.01,2013-04-18 18:13:00,
2013-04-18 14:14:00,40.1,22.0,28.67,West,260,14.8,16.8,48,0.00,,---,0.35,VWS V14.01,2013-04-18 18:14:00,
2013-04-18 14:15:00,66.6,53.6,28.67,NNW,338,6.9,11.0,63,0.00,,---,0.00,VWS V14.01,2013-04-18 18:15:00,
2013-04-18 14:16:00,40.3,22.2,28.67,WSW,250,12.1,20.1,48,0.00,,---,0.35,VWS V14.01,2013-04-18 18:16:00,
2013-04-18 14:17:00,40.3,22.2,28.67,WSW,251,9.2,19.9,48,0.00,,---,0.35,VWS V14.01,2013-04-18 18:17:00,
2013-04-18 14:18:00,40.1,22.0,28.67,WNW,282,21.5,24.8,48,0.00,,---,0.35,VWS V14.01,2013-04-18 18:18:00,
2013-04-18 14:19:00,39.9,21.3,28.67,West,268,19.0,23.7,47,0.00,,---,0.35,VWS V14.01,2013-04-18 18:19:00,
2013-04-18 14:20:00,66.2,54.5,28.67,NW,308,6.7,8.7,66,0.00,,---,0.00,VWS V14.01,2013-04-18 18:20:00,
2013-04-18 14:21:00,39.7,21.7,28.67,NW,324,16.3,18.6,48,0.00,,---,0.35,VWS V14.01,2013-04-18 18:21:00,
2013-04-18 14:22:00,39.7,21.2,28.67,West,264,18.1,21.5,47,0.00,,---,0.35,VWS V14.01,2013-04-18 18:22:00,
2013-04-18 14:23:00,39.6,21.0,28.67,SW,223,13.4,21.0,47,0.00,,---,0.35,VWS V14.01,2013-04-18 18:23:00,
2013-04-18 14:24:00,39.4,20.3,28.67,West,270,14.3,20.6,46,0.00,,---,0.35,VWS V14.01,2013-04-18 18:24:00,
2013-04-18 14:25:00,65.7,55.2,28.67,NW,310,10.1,10.1,69,0.00,,---,0.00,VWS V14.01,2013-04-18 18:25:00,
2013-04-18 14:26:00,39.4,21.3,28.67,West,266,9.6,15.4,48,0.00,,---,0.35,VWS V14.01,2013-04-18 18:26:00,
2013-04-18 14:27:00,39.4,21.3,28.67,WSW,254,16.3,17.2,48,0.00,,---,0.35,VWS V14.01,2013-04-18 18:27:00,
2013-04-18 14:28:00,39.4,21.3,28.67,West,280,17.2,23.7,48,0.00,,---,0.35,VWS V14.01,2013-04-18 18:28:00,
2013-04-18 14:29:00,39.4,20.8,28.67,WSW,250,10.1,21.0,47,0.00,,---,0.35,VWS V14.01,2013-04-18 18:29:00,
2013-04-18 14:30:00,64.0,57.4,28.67,West,279,4.9,9.2,79,0.00,,---,0.00,VWS V14.01,2013-04-18 18:30:00,
2013-04-18 14:31:00,39.4,20.8,28.67,WSW,237,14.8,19.0,47,0.00,,---,0.35,VWS V14.01,2013-04-18 18:31:00,
2013-04-18 14:32:00,39.4,20.8,28.67,West,278,9.2,18.1,47,0.00,,---,0.35,VWS V14.01,2013-04-18 18:32:00,
2013-04-18 14:33:00,39.4,20.8,28.67,SSW,207,15.2,15.2,47,0.00,,---,0.35,VWS V14.01,2013-04-18 18:33:00,
2013-04-18 14:34:00,39.4,21.3,28.67,South,178,10.1,15.2,48,0.00,,---,0.35,VWS V14.01,2013-04-18 18:34:00,
2013-04-18 14:35:00,63.0,58.4,28.67,NNW,335,7.4,11.6,85,0.00,,---,0.00,VWS V14.01,2013-04-18 18:35:00,
2013-04-18 14:36:00,39.6,22.0,28.67,West,262,6.3,16.3,49,0.00,,---,0.35,VWS V14.01,2013-04-18 18:36:00,
2013-04-18 14:37:00,39.7,21.7,28.67,West,276,19.5,22.8,48,0.00,,---,0.35,VWS V14.01,2013-04-18 18:37:00,
2013-04-18 14:38:00,39.7,21.7,28.67,WSW,247,24.2,24.2,48,0.00,,---,0.35,VWS V14.01,2013-04-18 18:38:00,
2013-04-18 14:39:00,39.7,20.7,28.67,West,260,19.5,25.3,46,0.00,,---,0.35,VWS V14.01,2013-04-18 18:39:00,
2013-04-18 14:40:00,62.6,59.3,28.67,NNW,332,4.9,13.4,89,0.04,,---,0.04,VWS V14.01,2013-04-18 18:40:00,
2013-04-18 14:41:00,39.7,21.2,28.67,South,178,12.1,25.7,47,0.00,,---,0.35,VWS V14.01,2013-04-18 18:41:00,
2013-04-18 14:42:00,39.7,20.7,28.70,West,260,21.5,21.5,46,0.00,,---,0.35,VWS V14.01,2013-04-18 18:42:00,
2013-04-18 14:43:00,39.9,20.8,28.70,West,280,11.0,22.4,46,0.00,,---,0.35,VWS V14.01,2013-04-18 18:43:00,
2013-04-18 14:44:00,39.9,20.8,28.70,SW,219,14.3,24.8,46,0.00,,---,0.35,VWS V14.01,2013-04-18 18:44:00,
2013-04-18 14:45:00,62.2,59.6,28.67,West,273,5.8,10.1,91,0.04,,---,0.04,VWS V14.01,2013-04-18 18:45:00,
2013-04-18 14:46:00,39.9,21.3,28.70,WNW,292,23.7,23.7,47,0.00,,---,0.35,VWS V14.01,2013-04-18 18:46:00,
2013-04-18 14:47:00,39.9,20.3,28.70,SSW,207,8.7,23.7,45,0.00,,---,0.35,VWS V14.01,2013-04-18 18:47:00,
2013-04-18 14:48:00,39.9,20.8,28.70,West,280,10.1,13.4,46,0.00,,---,0.35,VWS V14.01,2013-04-18 18:48:00,
2013-04-18 14:49:00,39.9,21.8,28.70,WNW,282,10.5,12.5,48,0.00,,---,0.35,VWS V14.01,2013-04-18 18:49:00,
2013-04-18 14:50:00,62.2,59.9,28.67,NW,317,6.9,9.6,92,0.04,,---,0.04,VWS V14.01,2013-04-18 18:50:00,
2013-04-18 14:51:00,39.7,21.2,28.70,West,271,16.8,16.8,47,0.00,,---,0.35,VWS V14.01,2013-04-18 18:51:00,
2013-04-18 14:52:00,39.7,20.7,28.70,WSW,244,9.6,20.6,46,0.00,,---,0.35,VWS V14.01,2013-04-18 18:52:00,
2013-04-18 14:53:00,39.6,20.0,28.70,West,279,24.8,24.8,45,0.00,,---,0.35,VWS V14.01,2013-04-18 18:53:00,
2013-04-18 14:54:00,39.4,19.8,28.70,West,272,15.4,24.8,45,0.00,,---,0.35,VWS V14.01,2013-04-18 18:54:00,
2013-04-18 14:55:00,62.2,60.2,28.67,WSW,238,6.3,8.7,93,0.04,,---,0.04,VWS V14.01,2013-04-18 18:55:00,
2013-04-18 14:56:00,39.4,20.3,28.70,West,269,17.2,19.5,46,0.00,,---,0.35,VWS V14.01,2013-04-18 18:56:00,
2013-04-18 14:57:00,39.4,19.8,28.70,WSW,255,18.1,24.2,45,0.00,,---,0.35,VWS V14.01,2013-04-18 18:57:00,
2013-04-18 14:58:00,39.4,19.8,28.70,WSW,245,12.1,24.2,45,0.00,,---,0.35,VWS V14.01,2013-04-18 18:58:00,
2013-04-18 14:59:00,39.4,19.8,28.70,SW,230,15.9,19.9,45,0.00,,---,0.35,VWS V14.01,2013-04-18 18:59:00,
2013-04-18 15:00:00,62.1,60.3,28.67,WSW,256,5.4,9.2,94,0.08,,---,0.08,VWS V14.01,2013-04-18 19:00:00,
2013-04-18 15:01:00,39.6,20.5,28.70,WSW,240,12.1,19.5,46,0.00,,---,0.35,VWS V14.01,2013-04-18 19:01:00,
2013-04-18 15:02:00,39.7,20.7,28.70,NW,311,15.2,19.5,46,0.00,,---,0.35,VWS V14.01,2013-04-18 19:02:00,
2013-04-18 15:03:00,39.7,20.7,28.70,West,264,15.4,15.4,46,0.00,,---,0.35,VWS V14.01,2013-04-18 19:03:00,
2013-04-18 15:04:00,39.9,20.8,28.70,SW,221,10.1,15.4,46,0.00,,---,0.35,VWS V14.01,2013-04-18 19:04:00,
2013-04-18 15:05:00,62.1,60.3,28.67,West,281,3.6,6.3,94,0.08,,---,0.08,VWS V14.01,2013-04-18 19:05:00,
2013-04-18 15:06:00,39.7,20.1,28.70,WSW,241,11.0,16.8,45,0.00,,---,0.35,VWS V14.01,2013-04-18 19:06:00,
2013-04-18 15:07:00,39.9,20.8,28.70,WSW,241,8.7,13.4,46,0.00,,---,0.35,VWS V14.01,2013-04-18 19:07:00,
2013-04-18 15:08:00,40.1,21.0,28.70,SW,233,5.4,14.8,46,0.00,,---,0.35,VWS V14.01,2013-04-18 19:08:00,
2013-04-18 15:09:00,40.3,21.2,28.70,WSW,251,16.3,21.0,46,0.00,,---,0.35,VWS V14.01,2013-04-18 19:09:00,
2013-04-18 15:10:00,62.2,60.8,28.67,West,270,5.4,6.7,95,0.08,,---,0.08,VWS V14.01,2013-04-18 19:10:00,
2013-04-18 15:11:00,40.3,20.6,28.70,West,260,9.6,12.5,45,0.00,,---,0.35,VWS V14.01,2013-04-18 19:11:00,
2013-04-18 15:12:00,40.3,20.1,28.70,WSW,252,8.3,17.7,44,0.00,,---,0.35,VWS V14.01,2013-04-18 19:12:00,
2013-04-18 15:13:00,40.3,20.6,28.70,West,269,13.0,13.0,45,0.00,,---,0.35,VWS V14.01,2013-04-18 19:13:00,
2013-04-18 15:14:00,40.3,20.6,28.70,WSW,245,10.1,16.8,45,0.00,,---,0.35,VWS V14.01,2013-04-18 19:14:00,
2013-04-18 15:15:00,62.2,60.8,28.67,WNW,291,4.9,6.9,95,0.08,,---,0.08,VWS V14.01,2013-04-18 19:15:00,
2013-04-18 15:16:00,40.1,20.5,28.70,WSW,248,11.6,19.9,45,0.00,,---,0.35,VWS V14.01,2013-04-18 19:16:00,
2013-04-18 15:17:00,39.9,20.8,28.70,SW,234,11.0,13.9,46,0.00,,---,0.35,VWS V14.01,2013-04-18 19:17:00,
2013-04-18 15:18:00,39.9,20.8,28.70,WSW,242,19.5,19.5,46,0.00,,---,0.35,VWS V14.01,2013-04-18 19:18:00,
2013-04-18 15:19:00,39.9,20.3,28.70,West,262,8.7,21.5,45,0.00,,---,0.35,VWS V14.01,2013-04-18 19:19:00,
2013-04-18 15:20:00,62.4,61.0,28.67,West,277,3.6,4.9,95,0.08,,---,0.08,VWS V14.01,2013-04-18 19:20:00,
2013-04-18 15:21:00,39.6,20.0,28.70,SW,230,11.0,16.3,45,0.00,,---,0.35,VWS V14.01,2013-04-18 19:21:00,
2013-04-18 15:22:00,39.6,20.0,28.70,West,259,9.2,13.9,45,0.00,,---,0.35,VWS V14.01,2013-04-18 19:22:00,
2013-04-18 15:23:00,39.6,20.0,28.70,West,268,15.4,17.2,45,0.00,,---,0.35,VWS V14.01,2013-04-18 19:23:00,
2013-04-18 15:24:00,39.4,20.3,28.70,WSW,254,10.1,17.2,46,0.00,,---,0.35,VWS V14.01,2013-04-18 19:24:00,
2013-04-18 15:25:00,62.6,61.5,28.67,WNW,297,6.7,6.7,96,0.08,,---,0.08,VWS V14.01,2013-04-18 19:25:00,
2013-04-18 15:26:00,39.4,21.3,28.70,WSW,251,9.6,13.4,48,0.00,,---,0.35,VWS V14.01,2013-04-18 19:26:00,
2013-04-18 15:27:00,39.4,21.3,28.70,WSW,252,17.2,17.7,48,0.00,,---,0.35,VWS V14.01,2013-04-18 19:27:00,
2013-04-18 15:28:00,39.2,21.2,28.70,West,268,9.6,17.2,48,0.00,,---,0.35,VWS V14.01,2013-04-18 19:28:00,
2013-04-18 15:29:00,39.2,20.7,28.70,WNW,298,15.4,22.4,47,0.00,,---,0.35,VWS V14.01,2013-04-18 19:29:00,
2013-04-18 15:30:00,62.2,61.1,28.67,NNW,332,6.9,8.3,96,0.08,,---,0.08,VWS V14.01,2013-04-18 19:30:00,
2013-04-18 15:31:00,39.0,20.5,28.70,WNW,301,14.8,15.4,47,0.00,,---,0.35,VWS V14.01,2013-04-18 19:31:00,
2013-04-18 15:32:00,39.2,21.2,28.70,SW,218,14.3,15.9,48,0.00,,---,0.35,VWS V14.01,2013-04-18 19:32:00,
2013-04-18 15:33:00,39.0,21.0,28.70,SW,236,12.1,15.4,48,0.00,,---,0.35,VWS V14.01,2013-04-18 19:33:00,
2013-04-18 15:34:00,39.2,21.2,28.70,West,268,15.9,19.0,48,0.00,,---,0.35,VWS V14.01,2013-04-18 19:34:00,
2013-04-18 15:35:00,62.2,61.1,28.67,SW,233,3.6,4.5,96,0.12,,---,0.12,VWS V14.01,2013-04-18 19:35:00,
2013-04-18 15:36:00,39.2,21.2,28.70,WNW,289,12.1,15.4,48,0.00,,---,0.35,VWS V14.01,2013-04-18 19:36:00,
2013-04-18 15:37:00,39.2,21.2,28.70,West,267,15.9,21.0,48,0.00,,---,0.35,VWS V14.01,2013-04-18 19:37:00,
2013-04-18 15:38:00,39.4,20.8,28.70,WSW,238,7.4,19.0,47,0.00,,---,0.35,VWS V14.01,2013-04-18 19:38:00,
2013-04-18 15:39:00,39.4,20.3,28.70,WSW,255,10.1,15.9,46,0.00,,---,0.35,VWS V14.01,2013-04-18 19:39:00,
2013-04-18 15:40:00,62.4,61.3,28.67,WSW,258,3.1,4.0,96,0.08,,---,0.12,VWS V14.01,2013-04-18 19:40:00,
2013-04-18 15:41:00,39.4,19.3,28.70,West,277,22.8,22.8,44,0.00,,---,0.35,VWS V14.01,2013-04-18 19:41:00,
2013-04-18 15:42:00,39.4,19.3,28.70,SW,234,13.9,22.8,44,0.00,,---,0.35,VWS V14.01,2013-04-18 19:42:00,
2013-04-18 15:43:00,39.4,19.3,28.70,WSW,240,21.0,21.0,44,0.00,,---,0.35,VWS V14.01,2013-04-18 19:43:00,
2013-04-18 15:44:00,39.4,18.8,28.70,SW,219,17.7,21.5,43,0.00,,---,0.35,VWS V14.01,2013-04-18 19:44:00,
2013-04-18 15:45:00,62.4,61.3,28.67,West,281,6.9,6.9,96,0.12,,---,0.16,VWS V14.01,2013-04-18 19:45:00,
2013-04-18 15:46:00,39.6,19.5,28.70,WSW,248,13.0,15.2,44,0.00,,---,0.35,VWS V14.01,2013-04-18 19:46:00,
2013-04-18 15:47:00,39.7,19.6,28.70,SW,216,8.7,13.0,44,0.00,,---,0.35,VWS V14.01,2013-04-18 19:47:00,
2013-04-18 15:48:00,39.7,19.6,28.70,WSW,237,12.1,16.3,44,0.00,,---,0.35,VWS V14.01,2013-04-18 19:48:00,
2013-04-18 15:49:00,39.7,19.1,28.70,NW,307,19.5,20.1,43,0.00,,---,0.35,VWS V14.01,2013-04-18 19:49:00,
2013-04-18 15:50:00,62.4,61.6,28.67,NW,304,5.4,6.7,97,0.12,,---,0.16,VWS V14.01,2013-04-18 19:50:00,
2013-04-18 15:51:00,39.7,19.1,28.70,SW,232,22.4,22.4,43,0.00,,---,0.35,VWS V14.01,2013-04-18 19:51:00,
2013-04-18 15:52:00,39.7,19.1,28.70,SSW,202,9.2,22.4,43,0.00,,---,0.35,VWS V14.01,2013-04-18 19:52:00,
2013-04-18 15:53:00,39.6,18.9,28.70,West,262,9.6,27.1,43,0.00,,---,0.35,VWS V14.01,2013-04-18 19:53:00,
2013-04-18 15:54:00,39.7,19.6,28.70,WNW,284,11.0,14.8,44,0.00,,---,0.35,VWS V14.01,2013-04-18 19:54:00,
2013-04-18 15:55:00,62.4,61.6,28.67,NNW,333,3.1,4.0,97,0.12,,---,0.16,VWS V14.01,2013-04-18 19:55:00,
2013-04-18 15:56:00,39.7,19.6,28.70,WSW,242,21.0,21.0,44,0.00,,---,0.35,VWS V14.01,2013-04-18 19:56:00,
2013-04-18 15:57:00,39.4,18.8,28.70,West,273,12.5,23.7,43,0.00,,---,0.35,VWS V14.01,2013-04-18 19:57:00,
2013-04-18 15:58:00,39.4,19.3,28.70,WSW,243,16.3,17.2,44,0.00,,---,0.35,VWS V14.01,2013-04-18 19:58:00,
2013-04-18 15:59:00,39.4,18.8,28.70,West,259,8.7,23.7,43,0.00,,---,0.35,VWS V14.01,2013-04-18 19:59:00,
2013-04-18 16:00:00,62.2,61.4,28.67,NW,311,3.6,5.4,97,0.08,,---,0.16,VWS V14.01,2013-04-18 20:00:00,
2013-04-18 16:01:00,39.4,19.3,28.70,WSW,257,10.1,24.8,44,0.00,,---,0.35,VWS V14.01,2013-04-18 20:01:00,
2013-04-18 16:02:00,39.4,19.8,28.70,WNW,288,13.4,22.4,45,0.00,,---,0.35,VWS V14.01,2013-04-18 20:02:00,
2013-04-18 16:03:00,39.2,19.7,28.70,West,272,19.0,24.2,45,0.00,,---,0.35,VWS V14.01,2013-04-18 20:03:00,
2013-04-18 16:04:00,39.2,19.7,28.70,West,265,15.4,19.0,45,0.00,,---,0.35,VWS V14.01,2013-04-18 20:04:00,
2013-04-18 16:05:00,39.2,19.7,28.70,NNW,343,14.8,19.5,45,0.00,,---,0.35,VWS V14.01,2013-04-18 20:05:00,
2013-04-18 16:06:00,62.4,61.6,28.67,WNW,291,0.0,0.0,97,0.08,,---,0.16,VWS V14.01,2013-04-18 20:06:00,
2013-04-18 16:07:00,39.2,20.2,28.70,NW,324,13.0,17.2,46,0.00,,---,0.35,VWS V14.01,2013-04-18 20:07:00,
2013-04-18 16:08:00,39.0,20.0,28.70,WSW,243,12.1,19.0,46,0.00,,---,0.35,VWS V14.01,2013-04-18 20:08:00,
2013-04-18 16:09:00,39.0,20.5,28.70,West,259,22.4,22.4,47,0.00,,---,0.35,VWS V14.01,2013-04-18 20:09:00,
2013-04-18 16:10:00,39.0,20.0,28.70,West,261,16.3,22.4,46,0.00,,---,0.35,VWS V14.01,2013-04-18 20:10:00,
2013-04-18 16:11:00,62.6,61.7,28.67,WNW,291,3.6,4.0,97,0.08,,---,0.16,VWS V14.01,2013-04-18 20:11:00,
2013-04-18 16:12:00,38.8,19.8,28.70,WNW,282,12.1,20.6,46,0.00,,---,0.35,VWS V14.01,2013-04-18 20:12:00,
2013-04-18 16:13:00,38.8,20.4,28.70,West,279,10.5,18.1,47,0.00,,---,0.35,VWS V14.01,2013-04-18 20:13:00,
2013-04-18 16:14:00,38.7,20.2,28.70,WSW,246,13.4,21.5,47,0.00,,---,0.35,VWS V14.01,2013-04-18 20:14:00,
2013-04-18 16:15:00,38.7,20.7,28.70,West,279,14.3,22.4,48,0.00,,---,0.35,VWS V14.01,2013-04-18 20:15:00,
2013-04-18 16:16:00,38.7,21.2,28.70,West,281,9.2,16.3,49,0.00,,---,0.35,VWS V14.01,2013-04-18 20:16:00,
2013-04-18 16:17:00,38.7,21.2,28.70,West,271,14.3,17.2,49,0.00,,---,0.35,VWS V14.01,2013-04-18 20:17:00,
2013-04-18 16:18:00,38.7,21.2,28.70,SW,230,4.5,15.4,49,0.00,,---,0.35,VWS V14.01,2013-04-18 20:18:00,
2013-04-18 16:19:00,62.6,61.7,28.67,West,269,4.9,6.3,97,0.08,,---,0.16,VWS V14.01,2013-04-18 20:19:00,
2013-04-18 16:20:00,38.7,21.6,28.70,WSW,242,8.3,15.9,50,0.00,,---,0.35,VWS V14.01,2013-04-18 20:20:00,
2013-04-18 16:21:00,38.7,21.6,28.70,WNW,288,11.2,13.0,50,0.00,,---,0.35,VWS V14.01,2013-04-18 20:21:00,
2013-04-18 16:22:00,38.7,21.6,28.70,West,273,11.0,16.8,50,0.00,,---,0.35,VWS V14.01,2013-04-18 20:22:00,
2013-04-18 16:23:00,38.7,21.6,28.70,WNW,282,17.2,17.2,50,0.00,,---,0.35,VWS V14.01,2013-04-18 20:23:00,
2013-04-18 16:24:00,62.4,61.6,28.67,West,269,0.0,0.0,97,0.08,,---,0.16,VWS V14.01,2013-04-18 20:24:00,
2013-04-18 16:25:00,38.7,21.6,28.70,WNW,295,6.9,23.7,50,0.00,,---,0.35,VWS V14.01,2013-04-18 20:25:00,
2013-04-18 16:26:00,38.7,21.6,28.70,West,264,12.5,21.0,50,0.00,,---,0.35,VWS V14.01,2013-04-18 20:26:00,
2013-04-18 16:27:00,38.7,21.6,28.70,West,272,7.4,14.8,50,0.00,,---,0.35,VWS V14.01,2013-04-18 20:27:00,
2013-04-18 16:28:00,38.7,21.6,28.70,WNW,284,13.4,23.7,50,0.00,,---,0.35,VWS V14.01,2013-04-18 20:28:00,
2013-04-18 16:29:00,38.7,21.6,28.70,WSW,253,14.8,19.5,50,0.00,,---,0.35,VWS V14.01,2013-04-18 20:29:00,
2013-04-18 16:30:00,38.7,21.6,28.70,West,263,13.0,16.8,50,0.00,,---,0.35,VWS V14.01,2013-04-18 20:30:00,
2013-04-18 16:31:00,62.4,61.6,28.64,West,269,0.0,0.0,97,0.08,,---,0.16,VWS V14.01,2013-04-18 20:31:00,
2013-04-18 16:32:00,38.8,22.3,28.70,West,274,14.3,18.1,51,0.00,,---,0.35,VWS V14.01,2013-04-18 20:32:00,
2013-04-18 16:33:00,38.7,22.1,28.70,WSW,247,23.7,23.7,51,0.00,,---,0.35,VWS V14.01,2013-04-18 20:33:00,
2013-04-18 16:34:00,38.7,21.2,28.70,SW,223,13.4,23.7,49,0.00,,---,0.35,VWS V14.01,2013-04-18 20:34:00,
2013-04-18 16:35:00,38.7,21.2,28.70,West,279,14.8,19.9,49,0.00,,---,0.35,VWS V14.01,2013-04-18 20:35:00,
2013-04-18 16:36:00,62.6,61.7,28.64,West,269,0.0,0.0,97,0.08,,---,0.20,VWS V14.01,2013-04-18 20:36:00,
2013-04-18 16:37:00,38.7,21.2,28.70,WSW,240,8.7,22.8,49,0.00,,---,0.35,VWS V14.01,2013-04-18 20:37:00,
2013-04-18 16:38:00,38.7,21.6,28.70,WSW,254,11.6,17.7,50,0.00,,---,0.35,VWS V14.01,2013-04-18 20:38:00,
2013-04-18 16:39:00,38.8,21.8,28.70,WSW,251,13.0,17.2,50,0.00,,---,0.35,VWS V14.01,2013-04-18 20:39:00,
2013-04-18 16:40:00,38.8,21.8,28.70,WSW,257,16.8,16.8,50,0.00,,---,0.35,VWS V14.01,2013-04-18 20:40:00,
2013-04-18 16:41:00,39.2,21.7,28.70,West,275,11.0,16.8,49,0.00,,---,0.35,VWS V14.01,2013-04-18 20:41:00,
2013-04-18 16:42:00,39.2,22.1,28.70,WNW,285,9.2,15.9,50,0.00,,---,0.35,VWS V14.01,2013-04-18 20:42:00,
2013-04-18 16:43:00,39.4,21.8,28.70,WSW,241,12.5,15.9,49,0.00,,---,0.35,VWS V14.01,2013-04-18 20:43:00,
2013-04-18 16:44:00,63.1,62.3,28.64,West,269,0.0,0.0,97,0.08,,---,0.20,VWS V14.01,2013-04-18 20:44:00,
2013-04-18 16:45:00,39.6,22.0,28.70,WNW,303,9.2,15.4,49,0.00,,---,0.35,VWS V14.01,2013-04-18 20:45:00,
2013-04-18 16:46:00,39.6,22.0,28.70,WNW,295,13.4,16.3,49,0.00,,---,0.35,VWS V14.01,2013-04-18 20:46:00,
2013-04-18 16:47:00,39.6,22.0,28.70,WSW,249,8.7,13.4,49,0.00,,---,0.35,VWS V14.01,2013-04-18 20:47:00,
2013-04-18 16:48:00,39.7,22.2,28.70,SSW,206,16.3,16.3,49,0.00,,---,0.35,VWS V14.01,2013-04-18 20:48:00,
2013-04-18 16:49:00,63.1,62.3,28.64,West,269,0.0,0.0,97,0.04,,---,0.20,VWS V14.01,2013-04-18 20:49:00,
2013-04-18 16:50:00,39.6,21.5,28.70,WNW,289,12.5,23.3,48,0.00,,---,0.35,VWS V14.01,2013-04-18 20:50:00,
2013-04-18 16:51:00,39.6,21.5,28.70,WNW,295,12.5,15.2,48,0.00,,---,0.35,VWS V14.01,2013-04-18 20:51:00,
2013-04-18 16:52:00,39.4,20.8,28.70,WSW,239,12.5,23.3,47,0.00,,---,0.35,VWS V14.01,2013-04-18 20:52:00,
2013-04-18 16:53:00,39.2,20.2,28.70,SSW,196,8.7,21.9,46,0.00,,---,0.35,VWS V14.01,2013-04-18 20:53:00,
2013-04-18 16:54:00,39.2,20.2,28.70,West,272,13.4,19.5,46,0.00,,---,0.35,VWS V14.01,2013-04-18 20:54:00,
2013-04-18 16:55:00,63.1,62.3,28.64,West,269,0.0,0.0,97,0.04,,---,0.20,VWS V14.01,2013-04-18 20:55:00,
2013-04-18 16:56:00,39.2,21.7,28.70,West,277,13.0,19.9,49,0.00,,---,0.35,VWS V14.01,2013-04-18 20:56:00,
2013-04-18 16:57:00,39.2,21.7,28.73,West,261,15.2,15.2,49,0.00,,---,0.35,VWS V14.01,2013-04-18 20:57:00,
2013-04-18 16:58:00,39.0,21.0,28.73,WNW,295,9.2,18.1,48,0.00,,---,0.35,VWS V14.01,2013-04-18 20:58:00,
2013-04-18 16:59:00,38.8,20.8,28.73,WSW,247,10.1,20.6,48,0.00,,---,0.35,VWS V14.01,2013-04-18 20:59:00,
2013-04-18 17:00:00,63.0,62.1,28.64,West,269,0.0,0.0,97,0.04,,---,0.20,VWS V14.01,2013-04-18 21:00:00,
2013-04-18 17:01:00,38.8,21.3,28.73,West,272,12.5,14.8,49,0.00,,---,0.35,VWS V14.01,2013-04-18 21:01:00,
2013-04-18 17:02:00,38.7,21.2,28.73,West,274,16.8,16.8,49,0.00,,---,0.35,VWS V14.01,2013-04-18 21:02:00,
2013-04-18 17:03:00,38.7,21.6,28.73,West,281,13.9,17.7,50,0.00,,---,0.35,VWS V14.01,2013-04-18 21:03:00,
2013-04-18 17:04:00,38.7,21.6,28.73,West,264,8.7,13.9,50,0.00,,---,0.35,VWS V14.01,2013-04-18 21:04:00,
2013-04-18 17:05:00,62.8,61.9,28.64,West,269,0.0,0.0,97,0.04,,---,0.20,VWS V14.01,2013-04-18 21:05:00,
2013-04-18 17:06:00,38.5,21.9,28.73,SW,223,9.2,19.9,51,0.00,,---,0.35,VWS V14.01,2013-04-18 21:06:00,
2013-04-18 17:07:00,38.5,22.4,28.73,West,274,11.6,13.4,52,0.00,,---,0.35,VWS V14.01,2013-04-18 21:07:00,
2013-04-18 17:08:00,38.5,22.9,28.73,WSW,241,10.5,16.3,53,0.00,,---,0.35,VWS V14.01,2013-04-18 21:08:00,
2013-04-18 17:09:00,38.3,22.7,28.73,West,279,19.9,22.4,53,0.00,,---,0.35,VWS V14.01,2013-04-18 21:09:00,
2013-04-18 17:10:00,38.1,23.0,28.73,West,267,11.2,19.9,54,0.00,,---,0.35,VWS V14.01,2013-04-18 21:10:00,
2013-04-18 17:11:00,62.6,61.7,28.64,West,269,0.0,2.7,97,0.04,,---,0.20,VWS V14.01,2013-04-18 21:11:00,
2013-04-18 17:12:00,38.1,23.4,28.73,NW,309,8.3,15.4,55,0.00,,---,0.35,VWS V14.01,2013-04-18 21:12:00,
2013-04-18 17:13:00,38.1,23.8,28.73,West,280,12.5,19.5,56,0.00,,---,0.35,VWS V14.01,2013-04-18 21:13:00,
2013-04-18 17:14:00,38.1,23.8,28.73,WNW,287,11.6,18.6,56,0.00,,---,0.35,VWS V14.01,2013-04-18 21:14:00,
2013-04-18 17:15:00,38.1,24.2,28.73,SSW,208,11.6,19.9,57,0.00,,---,0.35,VWS V14.01,2013-04-18 21:15:00,
2013-04-18 17:16:00,62.6,61.7,28.64,SE,127,0.0,3.6,97,0.04,,---,0.20,VWS V14.01,2013-04-18 21:16:00,
2013-04-18 17:17:00,38.3,24.4,28.73,West,280,13.9,16.3,57,0.00,,---,0.35,VWS V14.01,2013-04-18 21:17:00,
2013-04-18 17:18:00,38.3,24.4,28.73,NNW,328,11.6,15.4,57,0.00,,---,0.35,VWS V14.01,2013-04-18 21:18:00,
2013-04-18 17:19:00,38.3,24.0,28.73,WSW,237,17.7,20.1,56,0.00,,---,0.35,VWS V14.01,2013-04-18 21:19:00,
2013-04-18 17:20:00,38.5,24.2,28.73,West,261,14.8,17.7,56,0.00,,---,0.35,VWS V14.01,2013-04-18 21:20:00,
2013-04-18 17:21:00,38.5,24.2,28.73,West,259,10.5,14.8,56,0.00,,---,0.35,VWS V14.01,2013-04-18 21:21:00,
2013-04-18 17:22:00,63.0,62.1,28.64,SE,126,3.1,3.6,97,0.04,,---,0.20,VWS V14.01,2013-04-18 21:22:00,
2013-04-18 17:23:00,38.5,23.3,28.73,West,269,8.7,20.6,54,0.00,,---,0.35,VWS V14.01,2013-04-18 21:23:00,
2013-04-18 17:24:00,38.5,23.3,28.73,WNW,292,14.8,14.8,54,0.00,,---,0.35,VWS V14.01,2013-04-18 21:24:00,
2013-04-18 17:25:00,38.5,22.9,28.73,WSW,244,9.6,14.8,53,0.00,,---,0.35,VWS V14.01,2013-04-18 21:25:00,
2013-04-18 17:26:00,38.5,22.9,28.73,NW,309,9.6,13.4,53,0.00,,---,0.35,VWS V14.01,2013-04-18 21:26:00,
2013-04-18 17:27:00,63.0,62.1,28.64,ESE,111,3.6,4.9,97,0.08,,---,0.24,VWS V14.01,2013-04-18 21:27:00,
2013-04-18 17:28:00,38.5,23.3,28.73,WNW,286,11.2,15.2,54,0.00,,---,0.35,VWS V14.01,2013-04-18 21:28:00,
2013-04-18 17:29:00,38.7,23.5,28.73,West,275,13.0,13.0,54,0.00,,---,0.35,VWS V14.01,2013-04-18 21:29:00,
2013-04-18 17:30:00,38.5,22.9,28.73,NW,317,14.3,18.1,53,0.00,,---,0.35,VWS V14.01,2013-04-18 21:30:00,
2013-04-18 17:31:00,38.5,22.9,28.73,West,265,17.2,19.5,53,0.00,,---,0.35,VWS V14.01,2013-04-18 21:31:00,
2013-04-18 17:32:00,63.3,62.5,28.61,ESE,109,5.4,5.4,97,0.08,,---,0.24,VWS V14.01,2013-04-18 21:32:00,
2013-04-18 17:33:00,38.3,22.7,28.73,WNW,282,20.6,26.2,53,0.00,,---,0.35,VWS V14.01,2013-04-18 21:33:00,
2013-04-18 17:34:00,38.3,22.2,28.73,West,266,13.0,20.6,52,0.00,,---,0.35,VWS V14.01,2013-04-18 21:34:00,
2013-04-18 17:35:00,38.3,22.2,28.73,WSW,242,9.6,15.9,52,0.00,,---,0.35,VWS V14.01,2013-04-18 21:35:00,
2013-04-18 17:36:00,38.5,22.9,28.73,WSW,245,9.2,11.2,53,0.00,,---,0.35,VWS V14.01,2013-04-18 21:36:00,
2013-04-18 17:37:00,63.7,62.8,28.61,ESE,115,5.4,5.8,97,0.04,,---,0.24,VWS V14.01,2013-04-18 21:37:00,
2013-04-18 17:38:00,38.5,22.9,28.73,West,271,10.1,19.5,53,0.00,,---,0.35,VWS V14.01,2013-04-18 21:38:00,
2013-04-18 17:39:00,38.7,23.5,28.73,West,261,6.7,10.1,54,0.00,,---,0.35,VWS V14.01,2013-04-18 21:39:00,
2013-04-18 17:40:00,38.7,23.5,28.73,West,271,15.9,18.1,54,0.00,,---,0.35,VWS V14.01,2013-04-18 21:40:00,
2013-04-18 17:41:00,38.7,23.0,28.73,WSW,254,6.3,15.9,53,0.00,,---,0.35,VWS V14.01,2013-04-18 21:41:00,
2013-04-18 17:42:00,38.7,23.5,28.73,WSW,247,9.6,11.2,54,0.00,,---,0.35,VWS V14.01,2013-04-18 21:42:00,
2013-04-18 17:43:00,63.5,62.6,28.61,ESE,117,4.9,5.8,97,0.04,,---,0.24,VWS V14.01,2013-04-18 21:43:00,
2013-04-18 17:44:00,38.5,22.9,28.73,WNW,294,12.1,17.7,53,0.00,,---,0.35,VWS V14.01,2013-04-18 21:44:00,
2013-04-18 17:45:00,38.5,23.3,28.73,West,266,10.1,12.1,54,0.00,,---,0.35,VWS V14.01,2013-04-18 21:45:00,
2013-04-18 17:46:00,38.5,23.3,28.73,West,271,11.2,14.3,54,0.00,,---,0.35,VWS V14.01,2013-04-18 21:46:00,
2013-04-18 17:47:00,38.5,23.3,28.73,WNW,296,15.4,15.4,54,0.00,,---,0.35,VWS V14.01,2013-04-18 21:47:00,
2013-04-18 17:48:00,63.3,62.5,28.61,SE,124,4.5,6.3,97,0.04,,---,0.24,VWS V14.01,2013-04-18 21:48:00,
2013-04-18 17:49:00,38.5,23.7,28.73,West,263,10.5,12.5,55,0.00,,---,0.35,VWS V14.01,2013-04-18 21:49:00,
2013-04-18 17:50:00,38.3,23.6,28.73,West,278,9.6,16.8,55,0.00,,---,0.35,VWS V14.01,2013-04-18 21:50:00,
2013-04-18 17:51:00,38.3,24.0,28.73,West,268,8.3,15.4,56,0.00,,---,0.35,VWS V14.01,2013-04-18 21:51:00,
2013-04-18 17:52:00,38.5,24.2,28.73,WNW,303,11.2,11.2,56,0.00,,---,0.35,VWS V14.01,2013-04-18 21:52:00,
2013-04-18 17:53:00,63.1,62.3,28.61,ESE,104,3.6,5.8,97,0.04,,---,0.24,VWS V14.01,2013-04-18 21:53:00,
2013-04-18 17:54:00,38.1,24.7,28.73,WSW,251,15.9,21.5,58,0.00,,---,0.35,VWS V14.01,2013-04-18 21:54:00,
2013-04-18 17:55:00,38.1,24.7,28.73,WSW,250,6.3,16.3,58,0.00,,---,0.35,VWS V14.01,2013-04-18 21:55:00,
2013-04-18 17:56:00,38.1,25.1,28.73,WSW,248,9.2,24.8,59,0.00,,---,0.35,VWS V14.01,2013-04-18 21:56:00,
2013-04-18 17:57:00,38.1,25.1,28.76,WSW,241,12.5,14.3,59,0.00,,---,0.35,VWS V14.01,2013-04-18 21:57:00,
2013-04-18 17:58:00,63.0,62.1,28.61,ESE,115,4.9,4.9,97,0.04,,---,0.24,VWS V14.01,2013-04-18 21:58:00,
2013-04-18 17:59:00,38.1,25.1,28.76,WSW,253,6.9,16.3,59,0.00,,---,0.35,VWS V14.01,2013-04-18 21:59:00,
2013-04-18 18:00:00,38.3,25.2,28.76,WNW,299,13.0,15.2,59,0.00,,---,0.35,VWS V14.01,2013-04-18 22:00:00,
2013-04-18 18:01:00,38.3,25.2,28.76,West,263,7.8,13.0,59,0.00,,---,0.35,VWS V14.01,2013-04-18 22:01:00,
2013-04-18 18:02:00,38.3,25.2,28.76,WSW,250,3.1,13.9,59,0.00,,---,0.35,VWS V14.01,2013-04-18 22:02:00,
2013-04-18 18:03:00,62.8,61.9,28.61,ESE,106,2.7,3.6,97,0.04,,---,0.24,VWS V14.01,2013-04-18 22:03:00,
2013-04-18 18:04:00,38.3,25.2,28.76,West,264,4.0,14.3,59,0.00,,---,0.35,VWS V14.01,2013-04-18 22:04:00,
2013-04-18 18:05:00,38.3,25.6,28.76,WNW,295,8.3,14.8,60,0.00,,---,0.35,VWS V14.01,2013-04-18 22:05:00,
2013-04-18 18:06:00,38.1,25.5,28.76,WSW,254,12.5,15.4,60,0.00,,---,0.35,VWS V14.01,2013-04-18 22:06:00,
2013-04-18 18:07:00,38.1,25.1,28.76,West,279,15.9,15.9,59,0.00,,---,0.35,VWS V14.01,2013-04-18 22:07:00,
2013-04-18 18:08:00,38.1,25.5,28.76,SW,235,7.4,17.7,60,0.00,,---,0.35,VWS V14.01,2013-04-18 22:08:00,
2013-04-18 18:09:00,38.1,25.9,28.76,WSW,252,10.5,15.4,61,0.00,,---,0.35,VWS V14.01,2013-04-18 22:09:00,
2013-04-18 18:10:00,63.0,62.1,28.61,NNW,337,5.8,6.7,97,0.04,,---,0.24,VWS V14.01,2013-04-18 22:10:00,
2013-04-18 18:11:00,37.9,26.1,28.76,West,260,8.3,15.9,62,0.00,,---,0.35,VWS V14.01,2013-04-18 22:11:00,
2013-04-18 18:12:00,37.9,26.1,28.76,SW,223,7.8,11.2,62,0.00,,---,0.35,VWS V14.01,2013-04-18 22:12:00,
2013-04-18 18:13:00,37.9,26.5,28.76,WSW,237,11.2,13.0,63,0.00,,---,0.35,VWS V14.01,2013-04-18 22:13:00,
2013-04-18 18:14:00,37.9,26.5,28.76,WSW,255,17.2,17.2,63,0.00,,---,0.35,VWS V14.01,2013-04-18 22:14:00,
2013-04-18 18:15:00,37.9,26.5,28.76,West,269,14.3,19.5,63,0.00,,---,0.35,VWS V14.01,2013-04-18 22:15:00,
2013-04-18 18:16:00,37.9,26.5,28.76,SW,223,11.0,17.2,63,0.00,,---,0.35,VWS V14.01,2013-04-18 22:16:00,
2013-04-18 18:17:00,62.8,61.9,28.64,NE,40,3.1,4.5,97,0.04,,---,0.24,VWS V14.01,2013-04-18 22:17:00,
2013-04-18 18:18:00,37.9,26.9,28.76,WSW,255,8.3,11.2,64,0.00,,---,0.35,VWS V14.01,2013-04-18 22:18:00,
2013-04-18 18:19:00,37.9,26.9,28.76,SW,226,4.9,12.1,64,0.00,,---,0.35,VWS V14.01,2013-04-18 22:19:00,
2013-04-18 18:20:00,37.9,27.2,28.76,WNW,295,10.5,13.0,65,0.00,,---,0.35,VWS V14.01,2013-04-18 22:20:00,
2013-04-18 18:21:00,37.9,27.2,28.76,WNW,283,5.4,14.3,65,0.00,,---,0.35,VWS V14.01,2013-04-18 22:21:00,
2013-04-18 18:22:00,62.6,61.7,28.64,WSW,249,4.9,7.8,97,0.04,,---,0.24,VWS V14.01,2013-04-18 22:22:00,
2013-04-18 18:23:00,37.9,27.2,28.76,SW,235,9.2,14.3,65,0.00,,---,0.35,VWS V14.01,2013-04-18 22:23:00,
2013-04-18 18:24:00,37.9,27.2,28.76,SW,234,10.1,11.0,65,0.00,,---,0.35,VWS V14.01,2013-04-18 22:24:00,
2013-04-18 18:25:00,37.9,27.2,28.76,West,269,9.2,14.8,65,0.00,,---,0.35,VWS V14.01,2013-04-18 22:25:00,
2013-04-18 18:26:00,37.9,27.2,28.76,WSW,255,6.9,11.6,65,0.00,,---,0.35,VWS V14.01,2013-04-18 22:26:00,
2013-04-18 18:27:00,61.5,60.7,28.64,NW,315,4.5,13.9,97,0.00,,---,0.24,VWS V14.01,2013-04-18 22:27:00,
2013-04-18 18:28:00,37.9,26.9,28.76,West,267,8.7,16.3,64,0.00,,---,0.35,VWS V14.01,2013-04-18 22:28:00,
2013-04-18 18:29:00,37.9,26.5,28.76,WSW,244,12.5,15.4,63,0.00,,---,0.35,VWS V14.01,2013-04-18 22:29:00,
2013-04-18 18:30:00,37.9,26.5,28.76,West,264,13.0,16.8,63,0.00,,---,0.35,VWS V14.01,2013-04-18 22:30:00,
2013-04-18 18:31:00,37.9,26.1,28.76,WSW,239,7.8,18.1,62,0.00,,---,0.35,VWS V14.01,2013-04-18 22:31:00,
2013-04-18 18:32:00,37.9,26.1,28.76,WSW,239,6.7,15.4,62,0.00,,---,0.35,VWS V14.01,2013-04-18 22:32:00,
2013-04-18 18:33:00,61.9,61.0,28.67,ENE,62,0.0,11.2,97,0.00,,---,0.24,VWS V14.01,2013-04-18 22:33:00,
2013-04-18 18:34:00,37.9,26.1,28.76,West,264,11.0,12.5,62,0.00,,---,0.35,VWS V14.01,2013-04-18 22:34:00,
2013-04-18 18:35:00,37.9,26.5,28.76,West,272,10.5,14.8,63,0.00,,---,0.35,VWS V14.01,2013-04-18 22:35:00,
2013-04-18 18:36:00,37.9,26.5,28.76,West,267,12.5,15.4,63,0.00,,---,0.35,VWS V14.01,2013-04-18 22:36:00,
2013-04-18 18:37:00,37.9,26.9,28.76,West,270,17.2,17.7,64,0.00,,---,0.35,VWS V14.01,2013-04-18 22:37:00,
2013-04-18 18:38:00,61.9,60.7,28.67,NNW,338,8.3,9.6,96,0.00,,---,0.24,VWS V14.01,2013-04-18 22:38:00,
2013-04-18 18:39:00,37.8,27.1,28.76,WSW,242,13.0,13.4,65,0.00,,---,0.35,VWS V14.01,2013-04-18 22:39:00,
2013-04-18 18:40:00,37.6,26.9,28.76,WSW,241,8.3,16.3,65,0.00,,---,0.35,VWS V14.01,2013-04-18 22:40:00,
2013-04-18 18:41:00,37.6,27.3,28.76,West,269,7.8,8.3,66,0.00,,---,0.35,VWS V14.01,2013-04-18 22:41:00,
2013-04-18 18:42:00,37.6,27.3,28.76,West,274,11.0,11.0,66,0.00,,---,0.35,VWS V14.01,2013-04-18 22:42:00,
2013-04-18 18:43:00,37.6,27.6,28.76,West,280,9.2,16.3,67,0.00,,---,0.35,VWS V14.01,2013-04-18 22:43:00,
2013-04-18 18:44:00,61.7,60.3,28.67,NW,308,7.8,9.6,95,0.04,,---,0.28,VWS V14.01,2013-04-18 22:44:00,
2013-04-18 18:45:00,37.6,28.4,28.76,WSW,257,11.0,13.4,69,0.00,,---,0.35,VWS V14.01,2013-04-18 22:45:00,
2013-04-18 18:46:00,37.4,28.5,28.76,West,269,12.5,17.2,70,0.00,,---,0.35,VWS V14.01,2013-04-18 22:46:00,
2013-04-18 18:47:00,37.2,28.4,28.76,West,270,9.2,14.3,70,0.00,,---,0.35,VWS V14.01,2013-04-18 22:47:00,
2013-04-18 18:48:00,37.2,28.7,28.76,West,268,13.0,13.0,71,0.00,,---,0.35,VWS V14.01,2013-04-18 22:48:00,
2013-04-18 18:49:00,61.7,60.5,28.67,NW,319,5.4,6.7,96,0.04,,---,0.28,VWS V14.01,2013-04-18 22:49:00,
2013-04-18 18:50:00,36.9,29.0,28.76,WSW,258,9.6,14.3,73,0.00,,---,0.35,VWS V14.01,2013-04-18 22:50:00,
2013-04-18 18:51:00,36.9,29.0,28.76,WSW,254,11.0,11.6,73,0.00,,---,0.35,VWS V14.01,2013-04-18 22:51:00,
2013-04-18 18:52:00,36.9,29.4,28.76,West,263,13.4,13.9,74,0.00,,---,0.35,VWS V14.01,2013-04-18 22:52:00,
2013-04-18 18:53:00,36.9,29.4,28.76,WSW,253,6.9,13.4,74,0.00,,---,0.35,VWS V14.01,2013-04-18 22:53:00,
2013-04-18 18:54:00,61.5,60.4,28.67,West,266,4.0,5.8,96,0.04,,---,0.28,VWS V14.01,2013-04-18 22:54:00,
2013-04-18 18:55:00,36.9,29.7,28.76,WSW,249,6.3,7.8,75,0.00,,---,0.35,VWS V14.01,2013-04-18 22:55:00,
2013-04-18 18:56:00,36.9,30.0,28.76,West,276,5.8,11.0,76,0.00,,---,0.35,VWS V14.01,2013-04-18 22:56:00,
2013-04-18 18:57:00,36.9,30.0,28.76,WNW,286,6.3,11.2,76,0.00,,---,0.35,VWS V14.01,2013-04-18 22:57:00,
2013-04-18 18:58:00,36.9,30.0,28.76,West,270,9.6,11.0,76,0.00,,---,0.35,VWS V14.01,2013-04-18 22:58:00,
2013-04-18 18:59:00,61.5,60.4,28.67,WNW,288,0.0,6.3,96,0.08,,---,0.31,VWS V14.01,2013-04-18 22:59:00,
2013-04-18 19:00:00,37.0,29.9,28.76,West,261,8.7,13.9,75,0.00,,---,0.35,VWS V14.01,2013-04-18 23:00:00,
2013-04-18 19:01:00,37.0,29.9,28.76,WSW,256,9.2,15.9,75,0.00,,---,0.35,VWS V14.01,2013-04-18 23:01:00,
2013-04-18 19:02:00,37.0,29.9,28.76,West,263,8.3,9.6,75,0.00,,---,0.35,VWS V14.01,2013-04-18 23:02:00,
2013-04-18 19:03:00,37.2,30.0,28.76,WSW,238,9.6,11.0,75,0.00,,---,0.35,VWS V14.01,2013-04-18 23:03:00,
2013-04-18 19:04:00,61.3,60.2,28.67,WNW,288,0.0,0.0,96,0.08,,---,0.31,VWS V14.01,2013-04-18 23:04:00,
2013-04-18 19:05:00,37.2,29.4,28.76,West,267,11.0,21.0,73,0.00,,---,0.35,VWS V14.01,2013-04-18 23:05:00,
2013-04-18 19:06:00,37.2,29.0,28.76,WSW,254,5.8,11.2,72,0.00,,---,0.35,VWS V14.01,2013-04-18 23:06:00,
2013-04-18 19:07:00,37.4,29.2,28.76,WSW,254,13.4,13.4,72,0.00,,---,0.35,VWS V14.01,2013-04-18 23:07:00,
2013-04-18 19:08:00,37.4,28.9,28.76,West,268,12.1,16.8,71,0.00,,---,0.35,VWS V14.01,2013-04-18 23:08:00,
2013-04-18 19:09:00,61.3,60.2,28.67,WNW,288,0.0,0.0,96,0.08,,---,0.31,VWS V14.01,2013-04-18 23:09:00,
2013-04-18 19:10:00,37.4,28.5,28.76,West,266,8.3,18.1,70,0.00,,---,0.35,VWS V14.01,2013-04-18 23:10:00,
2013-04-18 19:11:00,37.4,28.5,28.76,West,259,11.6,12.1,70,0.00,,---,0.35,VWS V14.01,2013-04-18 23:11:00,
2013-04-18 19:12:00,37.4,28.2,28.76,WSW,250,12.1,14.8,69,0.00,,---,0.35,VWS V14.01,2013-04-18 23:12:00,
2013-04-18 19:13:00,37.6,28.4,28.76,WSW,256,10.1,12.1,69,0.00,,---,0.35,VWS V14.01,2013-04-18 23:13:00,
2013-04-18 19:14:00,61.5,60.4,28.67,West,273,2.7,6.3,96,0.12,,---,0.35,VWS V14.01,2013-04-18 23:14:00,
2013-04-18 19:15:00,37.6,28.0,28.76,WSW,247,8.3,13.0,68,0.00,,---,0.35,VWS V14.01,2013-04-18 23:15:00,
2013-04-18 19:16:00,37.6,28.0,28.76,WSW,253,11.2,15.9,68,0.00,,---,0.35,VWS V14.01,2013-04-18 23:16:00,
2013-04-18 19:17:00,37.6,28.0,28.76,SW,222,7.8,11.2,68,0.00,,---,0.35,VWS V14.01,2013-04-18 23:17:00,
2013-04-18 19:18:00,37.6,28.0,28.76,West,269,15.4,18.6,68,0.00,,---,0.35,VWS V14.01,2013-04-18 23:18:00,
2013-04-18 19:19:00,61.5,60.7,28.67,West,263,2.7,4.9,97,0.12,,---,0.35,VWS V14.01,2013-04-18 23:19:00,
2013-04-18 19:20:00,37.6,28.0,28.76,WSW,242,7.4,8.7,68,0.00,,---,0.35,VWS V14.01,2013-04-18 23:20:00,
2013-04-18 19:21:00,37.6,28.0,28.76,SW,236,12.1,12.1,68,0.00,,---,0.35,VWS V14.01,2013-04-18 23:21:00,
2013-04-18 19:22:00,37.6,28.0,28.76,WSW,239,6.7,12.1,68,0.00,,---,0.35,VWS V14.01,2013-04-18 23:22:00,
2013-04-18 19:23:00,37.6,28.4,28.76,WSW,241,6.7,8.7,69,0.00,,---,0.35,VWS V14.01,2013-04-18 23:23:00,
2013-04-18 19:24:00,61.5,60.7,28.67,West,263,0.0,0.0,97,0.16,,---,0.39,VWS V14.01,2013-04-18 23:24:00,
2013-04-18 19:25:00,37.8,28.5,28.76,WSW,249,9.2,11.0,69,0.00,,---,0.35,VWS V14.01,2013-04-18 23:25:00,
2013-04-18 19:26:00,37.8,28.9,28.76,West,259,7.8,9.2,70,0.00,,---,0.35,VWS V14.01,2013-04-18 23:26:00,
2013-04-18 19:27:00,37.8,28.9,28.79,West,262,9.2,11.0,70,0.00,,---,0.35,VWS V14.01,2013-04-18 23:27:00,
2013-04-18 19:28:00,37.6,28.7,28.79,West,279,9.2,11.0,70,0.00,,---,0.35,VWS V14.01,2013-04-18 23:28:00,
2013-04-18 19:29:00,61.5,60.7,28.67,West,263,0.0,2.7,97,0.20,,---,0.43,VWS V14.01,2013-04-18 23:29:00,
2013-04-18 19:30:00,37.6,29.0,28.79,WSW,257,7.4,13.0,71,0.00,,---,0.35,VWS V14.01,2013-04-18 23:30:00,
2013-04-18 19:31:00,37.6,29.0,28.79,SW,221,5.4,8.7,71,0.00,,---,0.35,VWS V14.01,2013-04-18 23:31:00,
2013-04-18 19:32:00,37.6,29.0,28.79,WNW,287,11.0,11.0,71,0.00,,---,0.35,VWS V14.01,2013-04-18 23:32:00,
2013-04-18 19:33:00,37.6,29.0,28.79,West,266,9.2,11.2,71,0.00,,---,0.35,VWS V14.01,2013-04-18 23:33:00,
2013-04-18 19:34:00,61.5,60.7,28.67,SSW,200,3.6,6.3,97,0.20,,---,0.43,VWS V14.01,2013-04-18 23:34:00,
2013-04-18 19:35:00,37.6,29.0,28.79,WSW,243,13.4,13.4,71,0.00,,---,0.35,VWS V14.01,2013-04-18 23:35:00,
2013-04-18 19:36:00,37.4,28.9,28.79,West,265,8.7,15.2,71,0.00,,---,0.35,VWS V14.01,2013-04-18 23:36:00,
2013-04-18 19:37:00,37.4,28.9,28.79,West,279,5.4,11.2,71,0.00,,---,0.35,VWS V14.01,2013-04-18 23:37:00,
2013-04-18 19:38:00,37.6,29.4,28.79,WSW,244,11.2,11.2,72,0.00,,---,0.35,VWS V14.01,2013-04-18 23:38:00,
2013-04-18 19:39:00,61.7,60.8,28.67,WSW,238,4.0,6.3,97,0.24,,---,0.47,VWS V14.01,2013-04-18 23:39:00,
2013-04-18 19:40:00,37.4,29.2,28.79,SW,236,11.6,17.2,72,0.00,,---,0.35,VWS V14.01,2013-04-18 23:40:00,
2013-04-18 19:41:00,37.4,29.2,28.79,WSW,255,6.9,11.6,72,0.00,,---,0.35,VWS V14.01,2013-04-18 23:41:00,
2013-04-18 19:42:00,37.4,29.5,28.79,West,273,5.4,12.5,73,0.00,,---,0.35,VWS V14.01,2013-04-18 23:42:00,
2013-04-18 19:43:00,37.4,29.5,28.79,SW,217,11.2,11.2,73,0.00,,---,0.35,VWS V14.01,2013-04-18 23:43:00,
2013-04-18 19:44:00,61.5,60.7,28.64,WSW,239,5.8,5.8,97,0.24,,---,0.51,VWS V14.01,2013-04-18 23:44:00,
2013-04-18 19:45:00,37.4,29.9,28.79,SW,221,8.7,13.4,74,0.00,,---,0.35,VWS V14.01,2013-04-18 23:45:00,
2013-04-18 19:46:00,37.2,29.7,28.79,West,280,10.5,11.0,74,0.00,,---,0.35,VWS V14.01,2013-04-18 23:46:00,
2013-04-18 19:47:00,37.2,29.7,28.79,WSW,244,6.3,15.9,74,0.00,,---,0.35,VWS V14.01,2013-04-18 23:47:00,
2013-04-18 19:48:00,37.2,29.7,28.79,WNW,289,8.7,9.2,74,0.00,,---,0.35,VWS V14.01,2013-04-18 23:48:00,
2013-04-18 19:49:00,61.3,60.5,28.64,SW,225,0.0,5.8,97,0.24,,---,0.51,VWS V14.01,2013-04-18 23:49:00,
2013-04-18 19:50:00,37.2,30.0,28.79,West,277,7.4,14.3,75,0.00,,---,0.35,VWS V14.01,2013-04-18 23:50:00,
2013-04-18 19:51:00,37.2,30.0,28.79,SW,234,7.4,12.1,75,0.00,,---,0.35,VWS V14.01,2013-04-18 23:51:00,
2013-04-18 19:52:00,37.0,29.9,28.79,West,281,10.5,14.8,75,0.00,,---,0.35,VWS V14.01,2013-04-18 23:52:00,
2013-04-18 19:53:00,37.0,29.9,28.79,SW,233,4.5,11.2,75,0.00,,---,0.35,VWS V14.01,2013-04-18 23:53:00,
2013-04-18 19:54:00,61.3,60.5,28.64,SW,225,0.0,0.0,97,0.28,,---,0.55,VWS V14.01,2013-04-18 23:54:00,
2013-04-18 19:55:00,37.0,29.9,28.79,WSW,253,11.2,12.5,75,0.00,,---,0.35,VWS V14.01,2013-04-18 23:55:00,
2013-04-18 19:56:00,37.0,30.2,28.79,WSW,254,7.4,11.6,76,0.00,,---,0.35,VWS V14.01,2013-04-18 23:56:00,
2013-04-18 19:57:00,37.0,30.2,28.79,West,265,9.2,14.3,76,0.00,,---,0.35,VWS V14.01,2013-04-18 23:57:00,
2013-04-18 19:58:00,37.0,30.2,28.79,WSW,247,7.4,10.5,76,0.00,,---,0.35,VWS V14.01,2013-04-18 23:58:00,
2013-04-18 19:59:00,61.3,60.5,28.64,SW,225,0.0,0.0,97,0.24,,---,0.55,VWS V14.01,2013-04-18 23:59:00,
2013-04-18 20:00:00,37.0,30.5,28.79,West,272,13.0,16.8,77,0.00,,---,0.35,VWS V14.01,2013-04-19 00:00:00,
2013-04-18 20:01:00,36.9,30.3,28.79,SSW,202,10.1,19.9,77,0.00,,---,0.35,VWS V14.01,2013-04-19 00:01:00,
2013-04-18 20:02:00,36.9,30.3,28.79,SW,218,5.4,15.4,77,0.00,,---,0.35,VWS V14.01,2013-04-19 00:02:00,
2013-04-18 20:03:00,36.7,30.5,28.79,West,271,7.4,13.0,78,0.00,,---,0.35,VWS V14.01,2013-04-19 00:03:00,
2013-04-18 20:04:00,61.3,60.5,28.64,SW,225,0.0,0.0,97,0.24,,---,0.55,VWS V14.01,2013-04-19 00:04:00,
2013-04-18 20:05:00,36.3,30.4,28.79,West,280,14.8,18.6,79,0.00,,---,0.35,VWS V14.01,2013-04-19 00:05:00,
2013-04-18 20:06:00,36.3,30.8,28.79,West,267,17.2,17.2,80,0.00,,---,0.35,VWS V14.01,2013-04-19 00:06:00,
2013-04-18 20:07:00,36.1,30.9,28.79,West,265,7.4,17.2,81,0.00,,---,0.35,VWS V14.01,2013-04-19 00:07:00,
2013-04-18 20:08:00,36.1,31.2,28.79,WNW,282,8.7,12.1,82,0.04,,---,0.39,VWS V14.01,2013-04-19 00:08:00,
2013-04-18 20:09:00,61.3,60.5,28.64,SW,225,0.0,0.0,97,0.24,,---,0.55,VWS V14.01,2013-04-19 00:09:00,
2013-04-18 20:10:00,36.0,31.3,28.79,SW,220,10.5,10.5,83,0.04,,---,0.39,VWS V14.01,2013-04-19 00:10:00,
2013-04-18 20:11:00,36.0,31.6,28.79,WSW,240,7.8,14.8,84,0.04,,---,0.39,VWS V14.01,2013-04-19 00:11:00,
2013-04-18 20:12:00,36.0,31.9,28.79,West,269,5.8,8.7,85,0.04,,---,0.39,VWS V14.01,2013-04-19 00:12:00,
2013-04-18 20:13:00,36.0,31.9,28.79,WSW,250,8.3,13.0,85,0.04,,---,0.39,VWS V14.01,2013-04-19 00:13:00,
2013-04-18 20:14:00,61.3,60.5,28.61,SW,221,4.5,4.5,97,0.20,,---,0.55,VWS V14.01,2013-04-19 00:14:00,
2013-04-18 20:15:00,36.0,32.2,28.79,West,281,9.6,9.6,86,0.04,,---,0.39,VWS V14.01,2013-04-19 00:15:00,
2013-04-18 20:16:00,36.0,32.5,28.79,WSW,257,4.9,11.0,87,0.04,,---,0.39,VWS V14.01,2013-04-19 00:16:00,
2013-04-18 20:17:00,36.0,32.5,28.79,WNW,290,9.6,11.0,87,0.04,,---,0.39,VWS V14.01,2013-04-19 00:17:00,
2013-04-18 20:18:00,36.0,32.8,28.79,West,272,6.9,12.1,88,0.04,,---,0.39,VWS V14.01,2013-04-19 00:18:00,
2013-04-18 20:19:00,61.3,60.5,28.61,WSW,251,4.5,4.9,97,0.20,,---,0.55,VWS V14.01,2013-04-19 00:19:00,
2013-04-18 20:20:00,36.1,32.9,28.79,West,281,7.4,8.7,88,0.04,,---,0.39,VWS V14.01,2013-04-19 00:20:00,
2013-04-18 20:21:00,36.1,32.9,28.79,West,275,6.7,9.2,88,0.04,,---,0.39,VWS V14.01,2013-04-19 00:21:00,
2013-04-18 20:22:00,36.1,33.2,28.79,West,266,7.4,9.2,89,0.04,,---,0.39,VWS V14.01,2013-04-19 00:22:00,
2013-04-18 20:23:00,36.1,33.2,28.79,West,267,8.7,8.7,89,0.04,,---,0.39,VWS V14.01,2013-04-19 00:23:00,
2013-04-18 20:24:00,61.3,60.5,28.61,NNW,332,0.0,0.0,97,0.31,,---,0.67,VWS V14.01,2013-04-19 00:24:00,
2013-04-18 20:25:00,36.3,33.4,28.79,WSW,244,6.3,7.8,89,0.04,,---,0.39,VWS V14.01,2013-04-19 00:25:00,
2013-04-18 20:26:00,36.3,33.7,28.79,WSW,246,8.3,9.6,90,0.04,,---,0.39,VWS V14.01,2013-04-19 00:26:00,
2013-04-18 20:27:00,36.3,33.7,28.79,WNW,286,5.4,8.7,90,0.04,,---,0.39,VWS V14.01,2013-04-19 00:27:00,
2013-04-18 20:28:00,36.3,33.7,28.79,SW,236,6.9,7.4,90,0.04,,---,0.39,VWS V14.01,2013-04-19 00:28:00,
2013-04-18 20:29:00,61.3,60.5,28.64,SSW,192,0.0,2.7,97,0.31,,---,0.71,VWS V14.01,2013-04-19 00:29:00,
2013-04-18 20:30:00,36.3,34.0,28.79,WNW,296,4.5,8.3,91,0.04,,---,0.39,VWS V14.01,2013-04-19 00:30:00,
2013-04-18 20:31:00,36.3,34.0,28.79,WSW,246,5.4,7.8,91,0.04,,---,0.39,VWS V14.01,2013-04-19 00:31:00,
2013-04-18 20:32:00,36.3,34.0,28.79,SW,224,7.8,8.3,91,0.04,,---,0.39,VWS V14.01,2013-04-19 00:32:00,
2013-04-18 20:33:00,36.3,34.0,28.79,WSW,239,8.3,10.1,91,0.04,,---,0.39,VWS V14.01,2013-04-19 00:33:00,
2013-04-18 20:34:00,61.3,60.5,28.64,SSW,193,0.0,2.7,97,0.31,,---,0.75,VWS V14.01,2013-04-19 00:34:00,
2013-04-18 20:35:00,36.3,34.0,28.79,West,277,10.5,10.5,91,0.04,,---,0.39,VWS V14.01,2013-04-19 00:35:00,
2013-04-18 20:36:00,36.5,34.1,28.79,West,268,10.1,11.0,91,0.04,,---,0.39,VWS V14.01,2013-04-19 00:36:00,
2013-04-18 20:37:00,36.5,34.1,28.79,West,271,6.9,11.2,91,0.04,,---,0.39,VWS V14.01,2013-04-19 00:37:00,
2013-04-18 20:38:00,36.5,34.1,28.79,WSW,258,6.3,9.6,91,0.04,,---,0.39,VWS V14.01,2013-04-19 00:38:00,
2013-04-18 20:39:00,61.3,60.5,28.64,SSW,193,2.7,4.0,97,0.31,,---,0.79,VWS V14.01,2013-04-19 00:39:00,
2013-04-18 20:40:00,36.5,33.6,28.79,WNW,294,6.9,10.1,89,0.04,,---,0.39,VWS V14.01,2013-04-19 00:40:00,
2013-04-18 20:41:00,36.7,33.8,28.79,West,261,11.6,13.9,89,0.04,,---,0.39,VWS V14.01,2013-04-19 00:41:00,
2013-04-18 20:42:00,36.7,33.5,28.82,West,278,7.8,15.9,88,0.04,,---,0.39,VWS V14.01,2013-04-19 00:42:00,
2013-04-18 20:43:00,36.7,33.5,28.82,WNW,301,6.9,10.1,88,0.04,,---,0.39,VWS V14.01,2013-04-19 00:43:00,
2013-04-18 20:44:00,61.3,60.5,28.64,SW,220,0.0,3.1,97,0.28,,---,0.79,VWS V14.01,2013-04-19 00:44:00,
2013-04-18 20:45:00,36.7,32.6,28.82,West,278,6.9,15.2,85,0.04,,---,0.39,VWS V14.01,2013-04-19 00:45:00,
2013-04-18 20:46:00,36.9,32.5,28.82,WSW,239,11.2,11.2,84,0.04,,---,0.39,VWS V14.01,2013-04-19 00:46:00,
2013-04-18 20:47:00,36.9,31.9,28.82,West,268,5.8,15.2,82,0.04,,---,0.39,VWS V14.01,2013-04-19 00:47:00,
2013-04-18 20:48:00,37.0,31.8,28.82,West,281,7.8,9.6,81,0.04,,---,0.39,VWS V14.01,2013-04-19 00:48:00,
2013-04-18 20:49:00,61.3,60.5,28.64,SW,221,0.0,0.0,97,0.31,,---,0.83,VWS V14.01,2013-04-19 00:49:00,
2013-04-18 20:50:00,37.0,30.8,28.82,WNW,283,11.6,13.0,78,0.04,,---,0.39,VWS V14.01,2013-04-19 00:50:00,
2013-04-18 20:51:00,37.2,30.7,28.82,West,272,7.4,11.6,77,0.04,,---,0.39,VWS V14.01,2013-04-19 00:51:00,
2013-04-18 20:52:00,37.2,30.4,28.82,SW,227,6.9,11.6,76,0.04,,---,0.39,VWS V14.01,2013-04-19 00:52:00,
2013-04-18 20:53:00,37.2,30.0,28.82,WNW,282,7.4,10.5,75,0.04,,---,0.39,VWS V14.01,2013-04-19 00:53:00,
2013-04-18 20:54:00,61.3,60.5,28.64,SW,221,0.0,0.0,97,0.35,,---,0.87,VWS V14.01,2013-04-19 00:54:00,
2013-04-18 20:55:00,37.4,30.2,28.82,WNW,298,9.2,10.5,75,0.04,,---,0.39,VWS V14.01,2013-04-19 00:55:00,
2013-04-18 20:56:00,37.2,29.7,28.82,West,278,5.8,11.6,74,0.04,,---,0.39,VWS V14.01,2013-04-19 00:56:00,
2013-04-18 20:57:00,37.4,29.5,28.82,WNW,288,9.2,10.5,73,0.04,,---,0.39,VWS V14.01,2013-04-19 00:57:00,
2013-04-18 20:58:00,37.4,29.5,28.82,WNW,282,7.4,11.0,73,0.04,,---,0.39,VWS V14.01,2013-04-19 00:58:00,
2013-04-18 20:59:00,61.3,60.5,28.61,SW,221,2.7,4.0,97,0.31,,---,0.87,VWS V14.01,2013-04-19 00:59:00,
2013-04-18 21:00:00,37.4,29.2,28.82,West,273,7.8,15.9,72,0.04,,---,0.39,VWS V14.01,2013-04-19 01:00:00,
2013-04-18 21:01:00,37.4,28.9,28.82,WNW,297,6.9,12.5,71,0.04,,---,0.39,VWS V14.01,2013-04-19 01:01:00,
2013-04-18 21:02:00,37.4,28.9,28.82,West,275,8.7,11.6,71,0.04,,---,0.39,VWS V14.01,2013-04-19 01:02:00,
2013-04-18 21:03:00,37.4,28.9,28.82,WSW,255,8.7,10.1,71,0.04,,---,0.39,VWS V14.01,2013-04-19 01:03:00,
2013-04-18 21:04:00,61.3,60.5,28.61,SE,138,0.0,0.0,97,0.31,,---,0.87,VWS V14.01,2013-04-19 01:04:00,
2013-04-18 21:05:00,37.4,28.9,28.82,WSW,241,11.6,11.6,71,0.04,,---,0.39,VWS V14.01,2013-04-19 01:05:00,
2013-04-18 21:06:00,37.4,28.5,28.82,WNW,295,8.7,11.6,70,0.04,,---,0.39,VWS V14.01,2013-04-19 01:06:00,
2013-04-18 21:07:00,37.6,28.7,28.82,West,275,8.3,8.7,70,0.04,,---,0.39,VWS V14.01,2013-04-19 01:07:00,
2013-04-18 21:08:00,37.4,28.5,28.82,WSW,252,11.6,12.1,70,0.04,,---,0.39,VWS V14.01,2013-04-19 01:08:00,
2013-04-18 21:09:00,61.3,60.5,28.61,SE,138,0.0,0.0,97,0.31,,---,0.87,VWS V14.01,2013-04-19 01:09:00,
2013-04-18 21:10:00,37.4,28.5,28.82,WNW,294,14.8,14.8,70,0.00,,---,0.39,VWS V14.01,2013-04-19 01:10:00,
2013-04-18 21:11:00,37.4,28.5,28.82,West,278,6.7,14.8,70,0.00,,---,0.39,VWS V14.01,2013-04-19 01:11:00,
2013-04-18 21:12:00,37.4,28.5,28.82,West,267,11.2,13.9,70,0.00,,---,0.39,VWS V14.01,2013-04-19 01:12:00,
2013-04-18 21:13:00,37.2,28.4,28.82,West,275,7.4,15.4,70,0.00,,---,0.39,VWS V14.01,2013-04-19 01:13:00,
2013-04-18 21:14:00,61.2,60.3,28.59,SE,126,4.0,4.5,97,0.35,,---,0.91,VWS V14.01,2013-04-19 01:14:00,
2013-04-18 21:15:00,37.2,28.7,28.82,WSW,239,9.2,11.2,71,0.00,,---,0.39,VWS V14.01,2013-04-19 01:15:00,
2013-04-18 21:16:00,37.0,28.9,28.82,WSW,255,6.7,10.5,72,0.00,,---,0.39,VWS V14.01,2013-04-19 01:16:00,
2013-04-18 21:17:00,37.0,29.2,28.82,WSW,248,10.1,10.1,73,0.00,,---,0.39,VWS V14.01,2013-04-19 01:17:00,
2013-04-18 21:18:00,36.7,29.5,28.82,NW,309,12.5,13.4,75,0.00,,---,0.39,VWS V14.01,2013-04-19 01:18:00,
2013-04-18 21:19:00,61.2,60.3,28.59,ESE,114,0.0,3.1,97,0.35,,---,0.91,VWS V14.01,2013-04-19 01:19:00,
2013-04-18 21:20:00,36.7,29.8,28.82,WSW,250,14.3,14.3,76,0.00,,---,0.39,VWS V14.01,2013-04-19 01:20:00,
2013-04-18 21:21:00,36.5,30.3,28.82,WNW,292,10.1,18.1,78,0.00,,---,0.39,VWS V14.01,2013-04-19 01:21:00,
2013-04-18 21:22:00,36.3,30.4,28.82,WNW,302,11.2,13.0,79,0.00,,---,0.39,VWS V14.01,2013-04-19 01:22:00,
2013-04-18 21:23:00,36.3,30.8,28.82,WNW,295,12.1,14.3,80,0.00,,---,0.39,VWS V14.01,2013-04-19 01:23:00,
2013-04-18 21:24:00,36.1,30.9,28.82,West,262,9.6,13.9,81,0.00,,---,0.39,VWS V14.01,2013-04-19 01:24:00,
2013-04-18 21:25:00,61.2,60.3,28.59,ESE,110,4.0,5.4,97,0.24,,---,0.91,VWS V14.01,2013-04-19 01:25:00,
2013-04-18 21:26:00,36.1,31.5,28.82,SW,236,5.8,9.6,83,0.00,,---,0.39,VWS V14.01,2013-04-19 01:26:00,
2013-04-18 21:27:00,36.1,31.8,28.82,WSW,254,7.8,12.1,84,0.00,,---,0.39,VWS V14.01,2013-04-19 01:27:00,
2013-04-18 21:28:00,36.1,32.1,28.82,West,261,10.5,12.5,85,0.00,,---,0.39,VWS V14.01,2013-04-19 01:28:00,
2013-04-18 21:29:00,36.1,32.1,28.82,WNW,288,5.8,14.3,85,0.00,,---,0.39,VWS V14.01,2013-04-19 01:29:00,
2013-04-18 21:30:00,61.2,60.3,28.59,ESE,112,3.1,4.9,97,0.20,,---,0.91,VWS V14.01,2013-04-19 01:30:00,
2013-04-18 21:31:00,36.0,32.2,28.82,WNW,284,6.3,10.1,86,0.00,,---,0.39,VWS V14.01,2013-04-19 01:31:00,
2013-04-18 21:32:00,36.0,32.5,28.82,West,262,8.7,9.6,87,0.00,,---,0.39,VWS V14.01,2013-04-19 01:32:00,
2013-04-18 21:33:00,36.1,32.7,28.82,West,274,14.8,14.8,87,0.00,,---,0.39,VWS V14.01,2013-04-19 01:33:00,
2013-04-18 21:34:00,36.1,32.9,28.82,WSW,254,11.0,14.8,88,0.00,,---,0.39,VWS V14.01,2013-04-19 01:34:00,
2013-04-18 21:35:00,61.2,60.3,28.59,ESE,112,3.1,3.6,97,0.16,,---,0.91,VWS V14.01,2013-04-19 01:35:00,
2013-04-18 21:36:00,36.0,32.8,28.82,West,275,6.9,11.0,88,0.00,,---,0.39,VWS V14.01,2013-04-19 01:36:00,
2013-04-18 21:37:00,36.0,33.0,28.82,West,268,8.7,10.5,89,0.00,,---,0.39,VWS V14.01,2013-04-19 01:37:00,
2013-04-18 21:38:00,36.0,33.0,28.82,WSW,241,8.7,13.0,89,0.00,,---,0.39,VWS V14.01,2013-04-19 01:38:00,
2013-04-18 21:39:00,35.8,32.9,28.82,WNW,292,5.4,11.0,89,0.00,,---,0.39,VWS V14.01,2013-04-19 01:39:00,
2013-04-18 21:40:00,61.2,60.3,28.59,ESE,112,0.0,3.1,97,0.12,,---,0.91,VWS V14.01,2013-04-19 01:40:00,
2013-04-18 21:41:00,35.8,33.1,28.82,WSW,253,9.6,9.6,90,0.00,,---,0.39,VWS V14.01,2013-04-19 01:41:00,
2013-04-18 21:42:00,35.8,33.1,28.82,WSW,243,5.4,10.1,90,0.00,,---,0.39,VWS V14.01,2013-04-19 01:42:00,
2013-04-18 21:43:00,35.8,33.4,28.82,WNW,287,7.8,11.0,91,0.00,,---,0.39,VWS V14.01,2013-04-19 01:43:00,
2013-04-18 21:44:00,35.8,33.4,28.82,West,259,6.7,9.2,91,0.00,,---,0.39,VWS V14.01,2013-04-19 01:44:00,
2013-04-18 21:45:00,61.0,60.1,28.59,ESE,112,0.0,0.0,97,0.12,,---,0.91,VWS V14.01,2013-04-19 01:45:00,
2013-04-18 21:46:00,35.8,33.7,28.82,WSW,258,10.1,10.1,92,0.00,,---,0.39,VWS V14.01,2013-04-19 01:46:00,
2013-04-18 21:47:00,35.8,33.7,28.82,WSW,240,5.8,10.5,92,0.00,,---,0.39,VWS V14.01,2013-04-19 01:47:00,
2013-04-18 21:48:00,35.8,33.7,28.82,West,259,8.7,11.2,92,0.00,,---,0.39,VWS V14.01,2013-04-19 01:48:00,
2013-04-18 21:49:00,35.8,34.0,28.82,WNW,295,6.9,13.0,93,0.00,,---,0.39,VWS V14.01,2013-04-19 01:49:00,
2013-04-18 21:50:00,61.0,60.1,28.59,ESE,112,0.0,0.0,97,0.08,,---,0.91,VWS V14.01,2013-04-19 01:50:00,
2013-04-18 21:51:00,35.8,34.0,28.82,WNW,285,9.2,9.2,93,0.00,,---,0.39,VWS V14.01,2013-04-19 01:51:00,
2013-04-18 21:52:00,36.0,34.4,28.82,WNW,282,7.8,9.2,94,0.00,,---,0.39,VWS V14.01,2013-04-19 01:52:00,
2013-04-18 21:53:00,36.0,34.4,28.82,West,276,4.5,9.2,94,0.00,,---,0.39,VWS V14.01,2013-04-19 01:53:00,
2013-04-18 21:54:00,36.0,34.4,28.82,West,264,9.2,9.6,94,0.00,,---,0.39,VWS V14.01,2013-04-19 01:54:00,
2013-04-18 21:55:00,61.0,60.1,28.59,ESE,112,0.0,0.0,97,0.04,,---,0.91,VWS V14.01,2013-04-19 01:55:00,
2013-04-18 21:56:00,36.1,34.6,28.82,WNW,284,14.3,14.3,94,0.00,,---,0.39,VWS V14.01,2013-04-19 01:56:00,
2013-04-18 21:57:00,36.0,34.7,28.85,West,280,9.6,14.8,95,0.00,,---,0.39,VWS V14.01,2013-04-19 01:57:00,
2013-04-18 21:58:00,36.1,34.8,28.85,West,266,11.0,11.0,95,0.00,,---,0.39,VWS V14.01,2013-04-19 01:58:00,
2013-04-18 21:59:00,36.1,34.8,28.85,West,262,5.4,11.0,95,0.00,,---,0.39,VWS V14.01,2013-04-19 01:59:00,
2013-04-18 22:00:00,61.0,60.1,28.61,ESE,112,0.0,0.0,97,0.04,,---,0.91,VWS V14.01,2013-04-19 02:00:00,
2013-04-18 22:01:00,36.1,34.8,28.85,West,262,8.7,12.1,95,0.00,,---,0.39,VWS V14.01,2013-04-19 02:01:00,
2013-04-18 22:02:00,36.1,34.8,28.85,WNW,289,4.9,8.7,95,0.00,,---,0.39,VWS V14.01,2013-04-19 02:02:00,
2013-04-18 22:03:00,36.0,34.7,28.85,WSW,237,5.8,10.1,95,0.00,,---,0.39,VWS V14.01,2013-04-19 02:03:00,
2013-04-18 22:04:00,35.8,34.5,28.85,NW,312,8.3,10.5,95,0.00,,---,0.39,VWS V14.01,2013-04-19 02:04:00,
2013-04-18 22:05:00,61.2,60.3,28.61,ESE,112,0.0,0.0,97,0.04,,---,0.91,VWS V14.01,2013-04-19 02:05:00,
2013-04-18 22:06:00,35.6,34.3,28.85,WSW,254,4.0,13.0,95,0.00,,---,0.39,VWS V14.01,2013-04-19 02:06:00,
2013-04-18 22:07:00,35.6,34.3,28.85,West,259,10.1,13.4,95,0.00,,---,0.39,VWS V14.01,2013-04-19 02:07:00,
2013-04-18 22:08:00,35.6,34.3,28.85,WNW,298,6.9,11.6,95,0.00,,---,0.39,VWS V14.01,2013-04-19 02:08:00,
2013-04-18 22:09:00,35.6,34.3,28.85,West,273,7.4,11.0,95,0.00,,---,0.39,VWS V14.01,2013-04-19 02:09:00,
2013-04-18 22:10:00,61.2,60.3,28.61,ESE,112,0.0,0.0,97,0.04,,---,0.91,VWS V14.01,2013-04-19 02:10:00,
2013-04-18 22:11:00,35.6,34.3,28.85,NW,304,14.3,14.3,95,0.00,,---,0.39,VWS V14.01,2013-04-19 02:11:00,
2013-04-18 22:12:00,35.6,34.3,28.85,West,281,11.6,14.3,95,0.00,,---,0.39,VWS V14.01,2013-04-19 02:12:00,
2013-04-18 22:13:00,35.6,34.3,28.85,West,273,6.3,15.2,95,0.00,,---,0.39,VWS V14.01,2013-04-19 02:13:00,
2013-04-18 22:14:00,35.6,34.3,28.85,WNW,282,8.3,13.0,95,0.00,,---,0.39,VWS V14.01,2013-04-19 02:14:00,
2013-04-18 22:15:00,61.2,60.3,28.61,ESE,112,0.0,0.0,97,0.00,,---,0.91,VWS V14.01,2013-04-19 02:15:00,
2013-04-18 22:16:00,35.6,34.3,28.85,WSW,247,7.4,11.0,95,0.00,,---,0.39,VWS V14.01,2013-04-19 02:16:00,
2013-04-18 22:17:00,35.6,34.3,28.85,NW,305,8.7,14.8,95,0.00,,---,0.39,VWS V14.01,2013-04-19 02:17:00,
2013-04-18 22:18:00,35.6,34.3,28.85,West,276,11.2,12.5,95,0.00,,---,0.39,VWS V14.01,2013-04-19 02:18:00,
2013-04-18 22:19:00,35.6,34.3,28.85,West,267,5.8,11.2,95,0.00,,---,0.39,VWS V14.01,2013-04-19 02:19:00,
2013-04-18 22:20:00,61.2,60.3,28.61,ESE,112,0.0,0.0,97,0.00,,---,0.91,VWS V14.01,2013-04-19 02:20:00,
2013-04-18 22:21:00,35.6,34.3,28.85,WNW,286,8.3,9.6,95,0.00,,---,0.39,VWS V14.01,2013-04-19 02:21:00,
2013-04-18 22:22:00,35.6,34.0,28.85,West,265,9.2,11.2,94,0.00,,---,0.39,VWS V14.01,2013-04-19 02:22:00,
2013-04-18 22:23:00,35.8,34.2,28.85,WNW,298,11.2,11.6,94,0.00,,---,0.39,VWS V14.01,2013-04-19 02:23:00,
2013-04-18 22:24:00,35.8,34.2,28.85,West,272,6.7,11.2,94,0.00,,---,0.39,VWS V14.01,2013-04-19 02:24:00,
2013-04-18 22:25:00,61.2,60.3,28.61,ESE,113,4.9,4.9,97,0.00,,---,0.91,VWS V14.01,2013-04-19 02:25:00,
2013-04-18 22:26:00,35.8,34.2,28.85,NW,314,8.3,12.5,94,0.00,,---,0.39,VWS V14.01,2013-04-19 02:26:00,
2013-04-18 22:27:00,35.8,34.2,28.85,West,271,13.0,13.4,94,0.00,,---,0.39,VWS V14.01,2013-04-19 02:27:00,
2013-04-18 22:28:00,35.8,34.2,28.85,West,280,12.1,13.0,94,0.00,,---,0.39,VWS V14.01,2013-04-19 02:28:00,
2013-04-18 22:29:00,35.8,34.2,28.85,WNW,282,9.2,15.2,94,0.00,,---,0.39,VWS V14.01,2013-04-19 02:29:00,
2013-04-18 22:30:00,61.2,60.3,28.61,SSE,152,0.0,3.1,97,0.00,,---,0.91,VWS V14.01,2013-04-19 02:30:00,
2013-04-18 22:31:00,35.8,34.2,28.85,WNW,299,6.7,10.1,94,0.00,,---,0.39,VWS V14.01,2013-04-19 02:31:00,
2013-04-18 22:32:00,35.8,34.2,28.85,WNW,284,10.5,12.5,94,0.00,,---,0.39,VWS V14.01,2013-04-19 02:32:00,
2013-04-18 22:33:00,35.8,34.2,28.85,WNW,283,8.3,15.9,94,0.00,,---,0.39,VWS V14.01,2013-04-19 02:33:00,
2013-04-18 22:34:00,35.8,34.2,28.85,WSW,250,8.3,15.4,94,0.00,,---,0.39,VWS V14.01,2013-04-19 02:34:00,
2013-04-18 22:35:00,61.2,60.3,28.61,SSE,152,0.0,3.6,97,0.00,,---,0.91,VWS V14.01,2013-04-19 02:35:00,
2013-04-18 22:36:00,35.8,34.2,28.85,West,262,8.7,13.0,94,0.00,,---,0.39,VWS V14.01,2013-04-19 02:36:00,
2013-04-18 22:37:00,35.8,34.2,28.85,West,279,8.3,12.1,94,0.00,,---,0.39,VWS V14.01,2013-04-19 02:37:00,
2013-04-18 22:38:00,35.8,34.2,28.85,WSW,247,8.7,12.5,94,0.00,,---,0.39,VWS V14.01,2013-04-19 02:38:00,
2013-04-18 22:39:00,35.8,34.2,28.85,SW,215,5.4,9.2,94,0.00,,---,0.39,VWS V14.01,2013-04-19 02:39:00,
2013-04-18 22:40:00,61.2,60.3,28.61,ESE,120,4.0,4.9,97,0.00,,---,0.91,VWS V14.01,2013-04-19 02:40:00,
2013-04-18 22:41:00,35.8,34.2,28.85,West,279,4.9,11.0,94,0.00,,---,0.39,VWS V14.01,2013-04-19 02:41:00,
2013-04-18 22:42:00,35.8,34.2,28.85,WSW,239,4.9,7.8,94,0.00,,---,0.39,VWS V14.01,2013-04-19 02:42:00,
2013-04-18 22:43:00,35.8,34.2,28.85,West,275,4.5,7.4,94,0.00,,---,0.39,VWS V14.01,2013-04-19 02:43:00,
2013-04-18 22:44:00,35.8,34.2,28.85,NW,315,8.3,12.5,94,0.00,,---,0.39,VWS V14.01,2013-04-19 02:44:00,
2013-04-18 22:45:00,61.3,60.5,28.59,ESE,119,6.3,7.8,97,0.00,,---,0.91,VWS V14.01,2013-04-19 02:45:00,
2013-04-18 22:46:00,35.8,34.2,28.85,WSW,243,7.8,11.6,94,0.00,,---,0.39,VWS V14.01,2013-04-19 02:46:00,
2013-04-18 22:47:00,35.8,34.5,28.85,WSW,243,12.5,12.5,95,0.00,,---,0.39,VWS V14.01,2013-04-19 02:47:00,
2013-04-18 22:48:00,35.8,34.5,28.85,WSW,251,8.7,12.5,95,0.00,,---,0.39,VWS V14.01,2013-04-19 02:48:00,
2013-04-18 22:49:00,35.8,34.5,28.85,WSW,240,7.4,14.3,95,0.00,,---,0.39,VWS V14.01,2013-04-19 02:49:00,
2013-04-18 22:50:00,61.2,60.3,28.59,SE,127,4.9,5.8,97,0.00,,---,0.91,VWS V14.01,2013-04-19 02:50:00,
2013-04-18 22:51:00,35.6,34.3,28.85,WSW,242,10.5,11.0,95,0.00,,---,0.39,VWS V14.01,2013-04-19 02:51:00,
2013-04-18 22:52:00,35.6,34.3,28.85,WNW,296,13.0,13.4,95,0.00,,---,0.39,VWS V14.01,2013-04-19 02:52:00,
2013-04-18 22:53:00,35.6,34.3,28.85,West,270,8.7,13.0,95,0.00,,---,0.39,VWS V14.01,2013-04-19 02:53:00,
2013-04-18 22:54:00,35.6,34.3,28.85,West,263,4.0,9.2,95,0.00,,---,0.39,VWS V14.01,2013-04-19 02:54:00,
2013-04-18 22:55:00,61.2,60.3,28.59,SE,139,3.6,6.3,97,0.00,,---,0.91,VWS V14.01,2013-04-19 02:55:00,
2013-04-18 22:56:00,35.6,34.3,28.85,West,275,10.5,10.5,95,0.00,,---,0.39,VWS V14.01,2013-04-19 02:56:00,
2013-04-18 22:57:00,35.6,34.3,28.85,West,262,11.6,11.6,95,0.00,,---,0.39,VWS V14.01,2013-04-19 02:57:00,
2013-04-18 22:58:00,35.4,34.1,28.85,WSW,251,13.4,13.4,95,0.00,,---,0.39,VWS V14.01,2013-04-19 02:58:00,
2013-04-18 22:59:00,35.4,34.1,28.85,West,269,11.2,13.9,95,0.00,,---,0.39,VWS V14.01,2013-04-19 02:59:00,
2013-04-18 23:00:00,61.2,60.3,28.56,SE,131,4.9,4.9,97,0.00,,---,0.91,VWS V14.01,2013-04-19 03:00:00,
2013-04-18 23:01:00,35.4,34.1,28.85,West,263,11.0,11.0,95,0.00,,---,0.39,VWS V14.01,2013-04-19 03:01:00,
2013-04-18 23:02:00,35.4,34.1,28.85,WSW,258,6.7,11.2,95,0.00,,---,0.39,VWS V14.01,2013-04-19 03:02:00,
2013-04-18 23:03:00,35.4,34.1,28.85,West,279,11.2,11.2,95,0.00,,---,0.39,VWS V14.01,2013-04-19 03:03:00,
2013-04-18 23:04:00,35.4,34.1,28.85,West,269,11.0,12.1,95,0.00,,---,0.39,VWS V14.01,2013-04-19 03:04:00,
2013-04-18 23:05:00,61.2,60.3,28.56,East,100,5.4,5.4,97,0.00,,---,0.91,VWS V14.01,2013-04-19 03:05:00,
2013-04-18 23:06:00,35.6,34.3,28.85,West,273,8.7,15.2,95,0.00,,---,0.39,VWS V14.01,2013-04-19 03:06:00,
2013-04-18 23:07:00,35.6,34.3,28.85,WSW,243,5.4,11.6,95,0.00,,---,0.39,VWS V14.01,2013-04-19 03:07:00,
2013-04-18 23:08:00,35.6,34.3,28.85,WSW,245,6.9,11.2,95,0.00,,---,0.39,VWS V14.01,2013-04-19 03:08:00,
2013-04-18 23:09:00,35.4,34.1,28.85,West,261,10.5,10.5,95,0.00,,---,0.39,VWS V14.01,2013-04-19 03:09:00,
2013-04-18 23:10:00,61.2,60.3,28.56,SE,125,0.0,4.9,97,0.00,,---,0.91,VWS V14.01,2013-04-19 03:10:00,
2013-04-18 23:11:00,35.4,34.1,28.85,WSW,247,10.1,10.1,95,0.00,,---,0.39,VWS V14.01,2013-04-19 03:11:00,
2013-04-18 23:12:00,35.6,34.3,28.85,NW,308,8.3,13.4,95,0.00,,---,0.39,VWS V14.01,2013-04-19 03:12:00,
2013-04-18 23:13:00,35.4,34.1,28.85,WNW,283,10.1,12.1,95,0.00,,---,0.39,VWS V14.01,2013-04-19 03:13:00,
2013-04-18 23:14:00,35.4,34.1,28.85,WSW,244,7.4,10.1,95,0.00,,---,0.39,VWS V14.01,2013-04-19 03:14:00,
2013-04-18 23:15:00,61.2,60.3,28.59,WSW,240,0.0,0.0,97,0.00,,---,0.91,VWS V14.01,2013-04-19 03:15:00,
2013-04-18 23:16:00,35.4,34.1,28.85,West,276,7.4,11.6,95,0.00,,---,0.39,VWS V14.01,2013-04-19 03:16:00,
2013-04-18 23:17:00,35.4,34.1,28.85,West,263,11.2,12.5,95,0.00,,---,0.39,VWS V14.01,2013-04-19 03:17:00,
2013-04-18 23:18:00,35.4,34.1,28.85,WNW,282,8.3,11.2,95,0.00,,---,0.39,VWS V14.01,2013-04-19 03:18:00,
2013-04-18 23:19:00,35.4,33.9,28.85,WNW,290,8.3,12.1,94,0.00,,---,0.39,VWS V14.01,2013-04-19 03:19:00,
2013-04-18 23:20:00,61.2,60.3,28.59,SE,125,2.7,4.0,97,0.00,,---,0.91,VWS V14.01,2013-04-19 03:20:00,
2013-04-18 23:21:00,35.4,33.9,28.85,WSW,252,11.6,13.4,94,0.00,,---,0.39,VWS V14.01,2013-04-19 03:21:00,
2013-04-18 23:22:00,35.4,33.9,28.85,West,259,6.7,11.6,94,0.00,,---,0.39,VWS V14.01,2013-04-19 03:22:00,
2013-04-18 23:23:00,35.4,33.9,28.85,WNW,282,7.8,13.4,94,0.00,,---,0.39,VWS V14.01,2013-04-19 03:23:00,
2013-04-18 23:24:00,35.4,33.9,28.85,WSW,248,6.3,9.2,94,0.00,,---,0.39,VWS V14.01,2013-04-19 03:24:00,
2013-04-18 23:25:00,61.2,60.3,28.59,SSE,149,2.7,4.0,97,0.00,,---,0.91,VWS V14.01,2013-04-19 03:25:00,
2013-04-18 23:26:00,35.6,33.8,28.85,WSW,256,7.8,17.2,93,0.00,,---,0.39,VWS V14.01,2013-04-19 03:26:00,
2013-04-18 23:27:00,35.6,33.8,28.85,West,264,5.8,11.2,93,0.00,,---,0.39,VWS V14.01,2013-04-19 03:27:00,
2013-04-18 23:28:00,35.6,33.5,28.85,NW,318,11.2,14.3,92,0.00,,---,0.39,VWS V14.01,2013-04-19 03:28:00,
2013-04-18 23:29:00,35.6,33.5,28.85,North,351,12.1,13.9,92,0.00,,---,0.39,VWS V14.01,2013-04-19 03:29:00,
2013-04-18 23:30:00,61.2,60.3,28.56,ESE,113,4.9,5.8,97,0.00,,---,0.91,VWS V14.01,2013-04-19 03:30:00,
2013-04-18 23:31:00,35.8,33.1,28.85,WNW,292,6.7,13.4,90,0.00,,---,0.39,VWS V14.01,2013-04-19 03:31:00,
2013-04-18 23:32:00,35.8,33.1,28.85,West,274,12.1,12.1,90,0.00,,---,0.39,VWS V14.01,2013-04-19 03:32:00,
2013-04-18 23:33:00,35.8,32.9,28.85,West,272,8.3,17.2,89,0.00,,---,0.39,VWS V14.01,2013-04-19 03:33:00,
2013-04-18 23:34:00,35.8,32.6,28.85,WNW,289,11.6,11.6,88,0.00,,---,0.39,VWS V14.01,2013-04-19 03:34:00,
2013-04-18 23:35:00,61.2,60.3,28.56,SE,125,4.0,5.8,97,0.00,,---,0.91,VWS V14.01,2013-04-19 03:35:00,
2013-04-18 23:36:00,36.0,32.5,28.85,WSW,246,13.0,14.8,87,0.00,,---,0.39,VWS V14.01,2013-04-19 03:36:00,
2013-04-18 23:37:00,36.1,32.4,28.85,West,262,8.3,13.4,86,0.00,,---,0.39,VWS V14.01,2013-04-19 03:37:00,
2013-04-18 23:38:00,36.0,32.2,28.85,West,267,8.7,13.9,86,0.00,,---,0.39,VWS V14.01,2013-04-19 03:38:00,
2013-04-18 23:39:00,36.0,31.9,28.85,West,279,5.4,10.5,85,0.00,,---,0.39,VWS V14.01,2013-04-19 03:39:00,
2013-04-18 23:40:00,61.2,60.3,28.56,ESE,108,5.8,5.8,97,0.00,,---,0.91,VWS V14.01,2013-04-19 03:40:00,
2013-04-18 23:41:00,36.1,32.1,28.85,SW,235,6.3,8.3,85,0.00,,---,0.39,VWS V14.01,2013-04-19 03:41:00,
2013-04-18 23:42:00,36.1,31.8,28.85,West,268,6.7,15.9,84,0.00,,---,0.39,VWS V14.01,2013-04-19 03:42:00,
2013-04-18 23:43:00,36.0,31.6,28.85,West,267,6.7,10.1,84,0.00,,---,0.39,VWS V14.01,2013-04-19 03:43:00,
2013-04-18 23:44:00,36.0,31.6,28.85,WSW,239,8.7,8.7,84,0.00,,---,0.39,VWS V14.01,2013-04-19 03:44:00,
2013-04-18 23:45:00,61.2,60.3,28.53,SE,139,4.0,6.7,97,0.00,,---,0.91,VWS V14.01,2013-04-19 03:45:00,
2013-04-18 23:46:00,36.0,31.3,28.85,WSW,255,12.1,12.1,83,0.00,,---,0.39,VWS V14.01,2013-04-19 03:46:00,
2013-04-18 23:47:00,36.0,31.0,28.85,WNW,287,10.1,12.1,82,0.00,,---,0.39,VWS V14.01,2013-04-19 03:47:00,
2013-04-18 23:48:00,36.0,31.0,28.85,WSW,254,8.7,13.4,82,0.00,,---,0.39,VWS V14.01,2013-04-19 03:48:00,
2013-04-18 23:49:00,36.0,31.0,28.85,West,264,8.7,12.1,82,0.00,,---,0.39,VWS V14.01,2013-04-19 03:49:00,
2013-04-18 23:50:00,61.2,60.3,28.53,SSE,149,3.6,3.6,97,0.00,,---,0.91,VWS V14.01,2013-04-19 03:50:00,
2013-04-18 23:51:00,35.8,30.5,28.85,WSW,246,11.0,13.4,81,0.00,,---,0.39,VWS V14.01,2013-04-19 03:51:00,
2013-04-18 23:52:00,35.8,30.5,28.85,West,267,7.4,11.0,81,0.00,,---,0.39,VWS V14.01,2013-04-19 03:52:00,
2013-04-18 23:53:00,35.8,30.5,28.85,West,272,0.0,11.0,81,0.00,,---,0.39,VWS V14.01,2013-04-19 03:53:00,
2013-04-18 23:54:00,35.8,30.5,28.85,West,264,8.3,10.5,81,0.00,,---,0.39,VWS V14.01,2013-04-19 03:54:00,
2013-04-18 23:55:00,61.2,60.3,28.53,SE,135,0.0,0.0,97,0.00,,---,0.91,VWS V14.01,2013-04-19 03:55:00,
2013-04-18 23:56:00,35.6,30.4,28.85,West,262,11.6,11.6,81,0.00,,---,0.39,VWS V14.01,2013-04-19 03:56:00,
2013-04-18 23:57:00,35.6,30.4,28.85,West,271,4.9,12.1,81,0.00,,---,0.39,VWS V14.01,2013-04-19 03:57:00,
2013-04-18 23:58:00,35.6,30.4,28.85,West,261,5.8,10.1,81,0.00,,---,0.39,VWS V14.01,2013-04-19 03:58:00,
2013-04-18 23:59:00,35.6,30.4,28.85,SSW,203,9.6,11.6,81,0.00,,---,0.39,VWS V14.01,2013-04-19 03:59:00,